<?xml version='1.0' encoding='UTF-8'?><gpx version="1.1" creator="JPX - https://github.com/jenetics/jpx" xmlns="http://www.topografix.com/GPX/1/1"><trk><trkseg><trkpt lat="41.9473624" lon="13.4742404"><ele>767.0</ele><time>2026-03-29T05:47:13.42Z</time></trkpt><trkpt lat="41.9473043" lon="13.4741864"><ele>767.0</ele><time>2026-03-29T05:47:18.394Z</time></trkpt><trkpt lat="41.9472941" lon="13.4741022"><ele>767.0</ele><time>2026-03-29T05:47:24.408Z</time></trkpt><trkpt lat="41.9472823" lon="13.4740131"><ele>767.0</ele><time>2026-03-29T05:47:32.395Z</time></trkpt><trkpt lat="41.9472645" lon="13.4739248"><ele>767.0</ele><time>2026-03-29T05:47:41.404Z</time></trkpt><trkpt lat="41.9472427" lon="13.4738324"><ele>767.0</ele><time>2026-03-29T05:47:48.392Z</time></trkpt><trkpt lat="41.9472057" lon="13.4737611"><ele>767.0</ele><time>2026-03-29T05:47:56.39Z</time></trkpt><trkpt lat="41.9471459" lon="13.4737109"><ele>770.0</ele><time>2026-03-29T05:48:04.392Z</time></trkpt><trkpt lat="41.9470865" lon="13.4736704"><ele>773.0</ele><time>2026-03-29T05:48:13.394Z</time></trkpt><trkpt lat="41.9470862" lon="13.4735851"><ele>776.0</ele><time>2026-03-29T05:48:22.394Z</time></trkpt><trkpt lat="41.9470935" lon="13.4735008"><ele>779.0</ele><time>2026-03-29T05:48:30.392Z</time></trkpt><trkpt lat="41.9471007" lon="13.4734153"><ele>782.0</ele><time>2026-03-29T05:48:38.327Z</time></trkpt><trkpt lat="41.9470694" lon="13.4733315"><ele>785.0</ele><time>2026-03-29T05:48:48.431Z</time></trkpt><trkpt lat="41.9470142" lon="13.47328"><ele>788.0</ele><time>2026-03-29T05:48:57.394Z</time></trkpt><trkpt lat="41.9469583" lon="13.4732283"><ele>788.0</ele><time>2026-03-29T05:49:07.394Z</time></trkpt><trkpt lat="41.9468949" lon="13.4732192"><ele>788.0</ele><time>2026-03-29T05:49:17.395Z</time></trkpt><trkpt lat="41.9468297" lon="13.4732393"><ele>788.0</ele><time>2026-03-29T05:49:26.306Z</time></trkpt><trkpt lat="41.946778" lon="13.4731881"><ele>788.0</ele><time>2026-03-29T05:49:36.382Z</time></trkpt><trkpt lat="41.9467442" lon="13.4731149"><ele>788.0</ele><time>2026-03-29T05:49:43.441Z</time></trkpt><trkpt lat="41.9467285" lon="13.473025"><ele>788.0</ele><time>2026-03-29T05:49:54.393Z</time></trkpt><trkpt lat="41.946706" lon="13.4729366"><ele>788.0</ele><time>2026-03-29T05:50:03.409Z</time></trkpt><trkpt lat="41.9466811" lon="13.4728509"><ele>789.0</ele><time>2026-03-29T05:50:13.34Z</time></trkpt><trkpt lat="41.9466538" lon="13.4727666"><ele>790.0</ele><time>2026-03-29T05:50:23.393Z</time></trkpt><trkpt lat="41.9466057" lon="13.4727118"><ele>791.0</ele><time>2026-03-29T05:50:32.397Z</time></trkpt><trkpt lat="41.9465474" lon="13.4726793"><ele>792.0</ele><time>2026-03-29T05:50:43.392Z</time></trkpt><trkpt lat="41.9464789" lon="13.4726667"><ele>793.0</ele><time>2026-03-29T05:51:50.479Z</time></trkpt><trkpt lat="41.9464235" lon="13.4727072"><ele>794.0</ele><time>2026-03-29T05:51:57.394Z</time></trkpt><trkpt lat="41.9464796" lon="13.4726628"><ele>795.0</ele><time>2026-03-29T05:52:12.396Z</time></trkpt><trkpt lat="41.9465072" lon="13.4725791"><ele>795.0</ele><time>2026-03-29T05:52:21.396Z</time></trkpt><trkpt lat="41.9465197" lon="13.472488"><ele>795.0</ele><time>2026-03-29T05:52:29.392Z</time></trkpt><trkpt lat="41.9465496" lon="13.4724063"><ele>795.0</ele><time>2026-03-29T05:52:37.396Z</time></trkpt><trkpt lat="41.946571" lon="13.4723262"><ele>795.0</ele><time>2026-03-29T05:52:46.349Z</time></trkpt><trkpt lat="41.9466051" lon="13.4722419"><ele>795.0</ele><time>2026-03-29T05:52:55.332Z</time></trkpt><trkpt lat="41.9466189" lon="13.4721537"><ele>795.0</ele><time>2026-03-29T05:53:04.392Z</time></trkpt><trkpt lat="41.9466255" lon="13.4720679"><ele>795.0</ele><time>2026-03-29T05:53:14.394Z</time></trkpt><trkpt lat="41.9466397" lon="13.4719812"><ele>797.5714285714286</ele><time>2026-03-29T05:53:23.338Z</time></trkpt><trkpt lat="41.9466551" lon="13.4718936"><ele>800.1428571428571</ele><time>2026-03-29T05:53:31.393Z</time></trkpt><trkpt lat="41.946713" lon="13.4718513"><ele>802.7142857142858</ele><time>2026-03-29T05:53:39.432Z</time></trkpt><trkpt lat="41.9467651" lon="13.4719036"><ele>805.2857142857142</ele><time>2026-03-29T05:53:49.417Z</time></trkpt><trkpt lat="41.946824" lon="13.4719464"><ele>807.8571428571428</ele><time>2026-03-29T05:53:57.432Z</time></trkpt><trkpt lat="41.946885" lon="13.4719857"><ele>810.4285714285714</ele><time>2026-03-29T05:54:04.456Z</time></trkpt><trkpt lat="41.946948" lon="13.4720151"><ele>813.0</ele><time>2026-03-29T05:54:12.416Z</time></trkpt><trkpt lat="41.9470027" lon="13.4720687"><ele>813.1428571428572</ele><time>2026-03-29T05:54:20.398Z</time></trkpt><trkpt lat="41.9470625" lon="13.4721164"><ele>813.2857142857142</ele><time>2026-03-29T05:54:28.405Z</time></trkpt><trkpt lat="41.9471195" lon="13.4721543"><ele>813.4285714285714</ele><time>2026-03-29T05:54:36.401Z</time></trkpt><trkpt lat="41.947169" lon="13.47222"><ele>813.5714285714287</ele><time>2026-03-29T05:54:43.333Z</time></trkpt><trkpt lat="41.9472071" lon="13.4722923"><ele>813.7142857142858</ele><time>2026-03-29T05:54:50.428Z</time></trkpt><trkpt lat="41.9472547" lon="13.4723583"><ele>813.8571428571429</ele><time>2026-03-29T05:54:57.401Z</time></trkpt><trkpt lat="41.9473037" lon="13.4724217"><ele>814.0</ele><time>2026-03-29T05:55:04.406Z</time></trkpt><trkpt lat="41.9473672" lon="13.4724718"><ele>814.0000000000001</ele><time>2026-03-29T05:55:11.375Z</time></trkpt><trkpt lat="41.9473852" lon="13.472555"><ele>814.0</ele><time>2026-03-29T05:55:19.397Z</time></trkpt><trkpt lat="41.9474313" lon="13.4726231"><ele>814.0</ele><time>2026-03-29T05:55:26.429Z</time></trkpt><trkpt lat="41.9474916" lon="13.4726629"><ele>814.0</ele><time>2026-03-29T05:55:34.303Z</time></trkpt><trkpt lat="41.947556" lon="13.4726773"><ele>814.0</ele><time>2026-03-29T05:55:42.419Z</time></trkpt><trkpt lat="41.9476067" lon="13.4727421"><ele>814.0000000000001</ele><time>2026-03-29T05:55:50.4Z</time></trkpt><trkpt lat="41.9476523" lon="13.4728125"><ele>814.0</ele><time>2026-03-29T05:55:58.409Z</time></trkpt><trkpt lat="41.9477082" lon="13.472875"><ele>813.2857142857143</ele><time>2026-03-29T05:56:05.395Z</time></trkpt><trkpt lat="41.9477689" lon="13.4729138"><ele>812.5714285714286</ele><time>2026-03-29T05:56:11.978Z</time></trkpt><trkpt lat="41.9478299" lon="13.4729441"><ele>811.8571428571429</ele><time>2026-03-29T05:56:18.419Z</time></trkpt><trkpt lat="41.9478837" lon="13.4730089"><ele>811.1428571428571</ele><time>2026-03-29T05:56:25.403Z</time></trkpt><trkpt lat="41.9479359" lon="13.4730581"><ele>810.4285714285714</ele><time>2026-03-29T05:56:31.337Z</time></trkpt><trkpt lat="41.9479882" lon="13.4731082"><ele>809.7142857142858</ele><time>2026-03-29T05:56:37.425Z</time></trkpt><trkpt lat="41.9480513" lon="13.4731209"><ele>809.0</ele><time>2026-03-29T05:56:43.397Z</time></trkpt><trkpt lat="41.9481165" lon="13.4731062"><ele>809.0</ele><time>2026-03-29T05:56:50.398Z</time></trkpt><trkpt lat="41.9481786" lon="13.4730843"><ele>809.0</ele><time>2026-03-29T05:56:57.452Z</time></trkpt><trkpt lat="41.9482413" lon="13.4730417"><ele>809.0</ele><time>2026-03-29T05:57:06.393Z</time></trkpt><trkpt lat="41.9482966" lon="13.4729984"><ele>809.0</ele><time>2026-03-29T05:57:15.437Z</time></trkpt><trkpt lat="41.9483438" lon="13.4729406"><ele>809.0</ele><time>2026-03-29T05:57:24.403Z</time></trkpt><trkpt lat="41.9484138" lon="13.4728868"><ele>809.0</ele><time>2026-03-29T05:58:18.395Z</time></trkpt><trkpt lat="41.9484731" lon="13.4728407"><ele>809.0</ele><time>2026-03-29T05:58:24.424Z</time></trkpt><trkpt lat="41.9484815" lon="13.4727559"><ele>812.1428571428571</ele><time>2026-03-29T05:59:06.393Z</time></trkpt><trkpt lat="41.9485175" lon="13.472678"><ele>815.2857142857143</ele><time>2026-03-29T05:59:13.398Z</time></trkpt><trkpt lat="41.9485702" lon="13.472612"><ele>818.4285714285713</ele><time>2026-03-29T05:59:23.394Z</time></trkpt><trkpt lat="41.9485869" lon="13.4725276"><ele>821.5714285714286</ele><time>2026-03-29T05:59:32.404Z</time></trkpt><trkpt lat="41.9486322" lon="13.4724581"><ele>824.7142857142857</ele><time>2026-03-29T05:59:40.398Z</time></trkpt><trkpt lat="41.9486437" lon="13.4723713"><ele>827.8571428571428</ele><time>2026-03-29T05:59:47.4Z</time></trkpt><trkpt lat="41.9486672" lon="13.4722923"><ele>831.0</ele><time>2026-03-29T05:59:54.393Z</time></trkpt><trkpt lat="41.9487181" lon="13.4722276"><ele>830.9999999999999</ele><time>2026-03-29T06:00:01.403Z</time></trkpt><trkpt lat="41.9487407" lon="13.4721474"><ele>831.0</ele><time>2026-03-29T06:00:09.376Z</time></trkpt><trkpt lat="41.9487935" lon="13.4720957"><ele>831.0</ele><time>2026-03-29T06:00:16.394Z</time></trkpt><trkpt lat="41.9488213" lon="13.4720115"><ele>831.0</ele><time>2026-03-29T06:00:24.389Z</time></trkpt><trkpt lat="41.9488467" lon="13.4719283"><ele>831.0</ele><time>2026-03-29T06:00:31.433Z</time></trkpt><trkpt lat="41.948876" lon="13.4718533"><ele>830.9999999999999</ele><time>2026-03-29T06:00:39.396Z</time></trkpt><trkpt lat="41.9488823" lon="13.4717624"><ele>831.0</ele><time>2026-03-29T06:00:47.397Z</time></trkpt><trkpt lat="41.9488708" lon="13.471671"><ele>832.9999999999999</ele><time>2026-03-29T06:00:56.394Z</time></trkpt><trkpt lat="41.9488594" lon="13.4715821"><ele>835.0</ele><time>2026-03-29T06:01:04.418Z</time></trkpt><trkpt lat="41.948836" lon="13.4714972"><ele>837.0</ele><time>2026-03-29T06:01:13.4Z</time></trkpt><trkpt lat="41.948843" lon="13.4713981"><ele>839.0</ele><time>2026-03-29T06:01:21.356Z</time></trkpt><trkpt lat="41.9488798" lon="13.4713207"><ele>841.0</ele><time>2026-03-29T06:01:27.344Z</time></trkpt><trkpt lat="41.948925" lon="13.4712474"><ele>842.9999999999999</ele><time>2026-03-29T06:01:32.397Z</time></trkpt><trkpt lat="41.9489866" lon="13.4711943"><ele>845.0</ele><time>2026-03-29T06:01:38.406Z</time></trkpt><trkpt lat="41.9490478" lon="13.4711617"><ele>846.2857142857142</ele><time>2026-03-29T06:01:43.434Z</time></trkpt><trkpt lat="41.9491152" lon="13.4711265"><ele>847.5714285714286</ele><time>2026-03-29T06:01:49.373Z</time></trkpt><trkpt lat="41.9491526" lon="13.4710546"><ele>848.8571428571429</ele><time>2026-03-29T06:01:57.412Z</time></trkpt><trkpt lat="41.9492078" lon="13.4710049"><ele>850.1428571428571</ele><time>2026-03-29T06:02:03.398Z</time></trkpt><trkpt lat="41.9492598" lon="13.4709563"><ele>851.4285714285714</ele><time>2026-03-29T06:02:08.373Z</time></trkpt><trkpt lat="41.9492953" lon="13.4708706"><ele>852.7142857142857</ele><time>2026-03-29T06:02:14.352Z</time></trkpt><trkpt lat="41.9493059" lon="13.4707838"><ele>854.0</ele><time>2026-03-29T06:02:21.396Z</time></trkpt><trkpt lat="41.9492989" lon="13.4706985"><ele>852.7142857142857</ele><time>2026-03-29T06:02:28.397Z</time></trkpt><trkpt lat="41.9492854" lon="13.4706107"><ele>851.4285714285714</ele><time>2026-03-29T06:02:35.423Z</time></trkpt><trkpt lat="41.9493036" lon="13.4705218"><ele>850.1428571428571</ele><time>2026-03-29T06:02:42.376Z</time></trkpt><trkpt lat="41.9493358" lon="13.4704423"><ele>848.8571428571429</ele><time>2026-03-29T06:02:48.37Z</time></trkpt><trkpt lat="41.9493349" lon="13.470357"><ele>847.5714285714286</ele><time>2026-03-29T06:02:54.394Z</time></trkpt><trkpt lat="41.9493084" lon="13.4702636"><ele>846.2857142857142</ele><time>2026-03-29T06:03:01.401Z</time></trkpt><trkpt lat="41.9492973" lon="13.4701754"><ele>845.0</ele><time>2026-03-29T06:03:07.458Z</time></trkpt><trkpt lat="41.9492966" lon="13.4700858"><ele>844.9999999999999</ele><time>2026-03-29T06:03:15.395Z</time></trkpt><trkpt lat="41.9493498" lon="13.470018"><ele>845.0</ele><time>2026-03-29T06:03:21.401Z</time></trkpt><trkpt lat="41.9494116" lon="13.4699664"><ele>845.0</ele><time>2026-03-29T06:03:27.413Z</time></trkpt><trkpt lat="41.9494689" lon="13.4699283"><ele>845.0</ele><time>2026-03-29T06:03:33.378Z</time></trkpt><trkpt lat="41.9495313" lon="13.4698809"><ele>845.0</ele><time>2026-03-29T06:03:39.355Z</time></trkpt><trkpt lat="41.9495888" lon="13.4698344"><ele>844.9999999999999</ele><time>2026-03-29T06:03:46.354Z</time></trkpt><trkpt lat="41.9496426" lon="13.46979"><ele>845.0</ele><time>2026-03-29T06:03:53.4Z</time></trkpt><trkpt lat="41.9496674" lon="13.469711"><ele>844.9999999999999</ele><time>2026-03-29T06:04:00.411Z</time></trkpt><trkpt lat="41.9497086" lon="13.4696373"><ele>845.0</ele><time>2026-03-29T06:04:23.42Z</time></trkpt><trkpt lat="41.9497019" lon="13.4695453"><ele>845.0</ele><time>2026-03-29T06:04:30.4Z</time></trkpt><trkpt lat="41.9496858" lon="13.4694575"><ele>845.0</ele><time>2026-03-29T06:04:37.402Z</time></trkpt><trkpt lat="41.94966" lon="13.4693772"><ele>845.0</ele><time>2026-03-29T06:04:44.44Z</time></trkpt><trkpt lat="41.949653" lon="13.4692806"><ele>844.9999999999999</ele><time>2026-03-29T06:04:52.43Z</time></trkpt><trkpt lat="41.9496986" lon="13.4692078"><ele>845.0</ele><time>2026-03-29T06:05:00.429Z</time></trkpt><trkpt lat="41.9497624" lon="13.4691732"><ele>845.8571428571428</ele><time>2026-03-29T06:05:06.458Z</time></trkpt><trkpt lat="41.949826" lon="13.4691377"><ele>846.7142857142857</ele><time>2026-03-29T06:05:11.42Z</time></trkpt><trkpt lat="41.9498904" lon="13.4691081"><ele>847.5714285714286</ele><time>2026-03-29T06:05:16.333Z</time></trkpt><trkpt lat="41.9499574" lon="13.4690984"><ele>848.4285714285713</ele><time>2026-03-29T06:05:21.401Z</time></trkpt><trkpt lat="41.950024" lon="13.4690745"><ele>849.2857142857143</ele><time>2026-03-29T06:05:26.403Z</time></trkpt><trkpt lat="41.9500916" lon="13.469036"><ele>850.1428571428571</ele><time>2026-03-29T06:05:32.407Z</time></trkpt><trkpt lat="41.950154" lon="13.4690167"><ele>851.0</ele><time>2026-03-29T06:05:37.436Z</time></trkpt><trkpt lat="41.9502166" lon="13.4689851"><ele>851.0</ele><time>2026-03-29T06:05:43.399Z</time></trkpt><trkpt lat="41.950281" lon="13.4689648"><ele>851.0</ele><time>2026-03-29T06:05:49.416Z</time></trkpt><trkpt lat="41.9503454" lon="13.4689424"><ele>851.0</ele><time>2026-03-29T06:05:55.369Z</time></trkpt><trkpt lat="41.9504088" lon="13.4689247"><ele>851.0</ele><time>2026-03-29T06:06:01.333Z</time></trkpt><trkpt lat="41.9504599" lon="13.4688745"><ele>851.0</ele><time>2026-03-29T06:06:07.357Z</time></trkpt><trkpt lat="41.9505277" lon="13.468839"><ele>851.0</ele><time>2026-03-29T06:06:14.44Z</time></trkpt><trkpt lat="41.9505944" lon="13.4687987"><ele>851.0</ele><time>2026-03-29T06:06:21.402Z</time></trkpt><trkpt lat="41.9506588" lon="13.4687528"><ele>851.2857142857143</ele><time>2026-03-29T06:06:28.418Z</time></trkpt><trkpt lat="41.9507304" lon="13.4687307"><ele>851.5714285714287</ele><time>2026-03-29T06:06:35.404Z</time></trkpt><trkpt lat="41.9507903" lon="13.4687035"><ele>851.8571428571429</ele><time>2026-03-29T06:06:41.4Z</time></trkpt><trkpt lat="41.9508542" lon="13.4686755"><ele>852.1428571428571</ele><time>2026-03-29T06:06:47.424Z</time></trkpt><trkpt lat="41.9509131" lon="13.4686206"><ele>852.4285714285714</ele><time>2026-03-29T06:06:54.463Z</time></trkpt><trkpt lat="41.9509484" lon="13.4685398"><ele>852.7142857142857</ele><time>2026-03-29T06:07:04.418Z</time></trkpt><trkpt lat="41.9510115" lon="13.4685269"><ele>853.0</ele><time>2026-03-29T06:07:08.4Z</time></trkpt><trkpt lat="41.9510772" lon="13.4685178"><ele>853.0</ele><time>2026-03-29T06:07:13.333Z</time></trkpt><trkpt lat="41.9511453" lon="13.468511"><ele>853.0</ele><time>2026-03-29T06:07:19.401Z</time></trkpt><trkpt lat="41.9512154" lon="13.4684839"><ele>853.0</ele><time>2026-03-29T06:07:25.435Z</time></trkpt><trkpt lat="41.9512643" lon="13.4684288"><ele>853.0</ele><time>2026-03-29T06:07:29.401Z</time></trkpt><trkpt lat="41.9513033" lon="13.4683615"><ele>853.0</ele><time>2026-03-29T06:07:34.402Z</time></trkpt><trkpt lat="41.951354" lon="13.4683069"><ele>853.0</ele><time>2026-03-29T06:07:39.412Z</time></trkpt><trkpt lat="41.9513961" lon="13.4682385"><ele>853.0</ele><time>2026-03-29T06:07:45.398Z</time></trkpt><trkpt lat="41.9514452" lon="13.468178"><ele>853.0</ele><time>2026-03-29T06:07:52.395Z</time></trkpt><trkpt lat="41.9514923" lon="13.4681059"><ele>853.0</ele><time>2026-03-29T06:08:00.43Z</time></trkpt><trkpt lat="41.9515495" lon="13.4680435"><ele>853.0</ele><time>2026-03-29T06:08:36.416Z</time></trkpt><trkpt lat="41.9515749" lon="13.4679658"><ele>853.0</ele><time>2026-03-29T06:08:41.402Z</time></trkpt><trkpt lat="41.9516035" lon="13.4678844"><ele>853.0</ele><time>2026-03-29T06:08:48.399Z</time></trkpt><trkpt lat="41.9516014" lon="13.4677988"><ele>853.0</ele><time>2026-03-29T06:08:55.412Z</time></trkpt><trkpt lat="41.9516113" lon="13.4677062"><ele>853.0</ele><time>2026-03-29T06:09:02.396Z</time></trkpt><trkpt lat="41.9515675" lon="13.4676424"><ele>853.7142857142857</ele><time>2026-03-29T06:09:11.426Z</time></trkpt><trkpt lat="41.9515491" lon="13.4675498"><ele>854.4285714285714</ele><time>2026-03-29T06:09:18.399Z</time></trkpt><trkpt lat="41.9515909" lon="13.467471"><ele>855.1428571428571</ele><time>2026-03-29T06:09:25.404Z</time></trkpt><trkpt lat="41.9516606" lon="13.4674831"><ele>855.8571428571429</ele><time>2026-03-29T06:09:29.372Z</time></trkpt><trkpt lat="41.9517323" lon="13.4675044"><ele>856.5714285714287</ele><time>2026-03-29T06:09:33.092Z</time></trkpt><trkpt lat="41.9517991" lon="13.4675373"><ele>857.2857142857143</ele><time>2026-03-29T06:09:37.336Z</time></trkpt><trkpt lat="41.9518707" lon="13.4675764"><ele>858.0</ele><time>2026-03-29T06:09:42.399Z</time></trkpt><trkpt lat="41.9519381" lon="13.4676064"><ele>858.0</ele><time>2026-03-29T06:09:47.393Z</time></trkpt><trkpt lat="41.9520098" lon="13.4676205"><ele>858.0</ele><time>2026-03-29T06:09:53.46Z</time></trkpt><trkpt lat="41.9520809" lon="13.4676268"><ele>858.0</ele><time>2026-03-29T06:09:59.404Z</time></trkpt><trkpt lat="41.952145" lon="13.4676344"><ele>858.0</ele><time>2026-03-29T06:10:05.428Z</time></trkpt><trkpt lat="41.9522093" lon="13.4676062"><ele>858.0</ele><time>2026-03-29T06:10:12.473Z</time></trkpt><trkpt lat="41.9522803" lon="13.4675898"><ele>858.0</ele><time>2026-03-29T06:10:19.406Z</time></trkpt><trkpt lat="41.9523205" lon="13.4675191"><ele>858.0</ele><time>2026-03-29T06:10:25.394Z</time></trkpt><trkpt lat="41.9523319" lon="13.4674309"><ele>858.0</ele><time>2026-03-29T06:10:31.397Z</time></trkpt><trkpt lat="41.952394" lon="13.467394"><ele>858.0</ele><time>2026-03-29T06:10:37.35Z</time></trkpt><trkpt lat="41.9524662" lon="13.4673909"><ele>858.0</ele><time>2026-03-29T06:10:43.44Z</time></trkpt><trkpt lat="41.9525327" lon="13.4674029"><ele>858.0</ele><time>2026-03-29T06:10:49.403Z</time></trkpt><trkpt lat="41.9526017" lon="13.4673931"><ele>858.0</ele><time>2026-03-29T06:10:55.406Z</time></trkpt><trkpt lat="41.9526638" lon="13.4673616"><ele>858.0</ele><time>2026-03-29T06:11:01.44Z</time></trkpt><trkpt lat="41.9527099" lon="13.4672993"><ele>858.0</ele><time>2026-03-29T06:11:07.4Z</time></trkpt><trkpt lat="41.9527189" lon="13.4672061"><ele>858.7142857142858</ele><time>2026-03-29T06:11:14.412Z</time></trkpt><trkpt lat="41.952717" lon="13.4671187"><ele>859.4285714285714</ele><time>2026-03-29T06:11:23.401Z</time></trkpt><trkpt lat="41.9527364" lon="13.467032"><ele>860.1428571428571</ele><time>2026-03-29T06:11:32.411Z</time></trkpt><trkpt lat="41.9527537" lon="13.4669449"><ele>860.8571428571429</ele><time>2026-03-29T06:11:40.433Z</time></trkpt><trkpt lat="41.9527656" lon="13.4668534"><ele>861.5714285714286</ele><time>2026-03-29T06:11:48.4Z</time></trkpt><trkpt lat="41.9527809" lon="13.4667686"><ele>862.2857142857143</ele><time>2026-03-29T06:11:56.309Z</time></trkpt><trkpt lat="41.9527941" lon="13.4666837"><ele>863.0</ele><time>2026-03-29T06:12:05.402Z</time></trkpt><trkpt lat="41.9527879" lon="13.4665918"><ele>863.0000000000001</ele><time>2026-03-29T06:12:15.399Z</time></trkpt><trkpt lat="41.9528208" lon="13.4665002"><ele>863.0</ele><time>2026-03-29T06:12:23.349Z</time></trkpt><trkpt lat="41.9528635" lon="13.4664329"><ele>863.0</ele><time>2026-03-29T06:12:31.439Z</time></trkpt><trkpt lat="41.9529285" lon="13.4663835"><ele>863.0</ele><time>2026-03-29T06:12:38.402Z</time></trkpt><trkpt lat="41.9529883" lon="13.4663377"><ele>863.0</ele><time>2026-03-29T06:12:44.411Z</time></trkpt><trkpt lat="41.9530432" lon="13.4662856"><ele>863.0000000000001</ele><time>2026-03-29T06:12:50.374Z</time></trkpt><trkpt lat="41.9531002" lon="13.466226"><ele>863.0</ele><time>2026-03-29T06:12:56.455Z</time></trkpt><trkpt lat="41.9531517" lon="13.4661651"><ele>862.4285714285714</ele><time>2026-03-29T06:13:02.376Z</time></trkpt><trkpt lat="41.9531957" lon="13.4660908"><ele>861.8571428571429</ele><time>2026-03-29T06:13:09.357Z</time></trkpt><trkpt lat="41.9532494" lon="13.4660411"><ele>861.2857142857142</ele><time>2026-03-29T06:13:15.403Z</time></trkpt><trkpt lat="41.9532821" lon="13.465953"><ele>860.7142857142858</ele><time>2026-03-29T06:13:22.423Z</time></trkpt><trkpt lat="41.9533423" lon="13.4658874"><ele>860.1428571428571</ele><time>2026-03-29T06:13:28.403Z</time></trkpt><trkpt lat="41.9534091" lon="13.4658568"><ele>859.5714285714286</ele><time>2026-03-29T06:13:35.39Z</time></trkpt><trkpt lat="41.9534852" lon="13.4658759"><ele>859.0</ele><time>2026-03-29T06:13:42.434Z</time></trkpt><trkpt lat="41.9535561" lon="13.4658783"><ele>858.9999999999999</ele><time>2026-03-29T06:13:48.4Z</time></trkpt><trkpt lat="41.9536277" lon="13.4658761"><ele>859.0</ele><time>2026-03-29T06:13:54.401Z</time></trkpt><trkpt lat="41.9536953" lon="13.4658812"><ele>859.0</ele><time>2026-03-29T06:14:00.434Z</time></trkpt><trkpt lat="41.953758" lon="13.4658931"><ele>859.0</ele><time>2026-03-29T06:14:06.395Z</time></trkpt><trkpt lat="41.9538234" lon="13.4658959"><ele>859.0</ele><time>2026-03-29T06:14:12.402Z</time></trkpt><trkpt lat="41.9538893" lon="13.4658683"><ele>858.9999999999999</ele><time>2026-03-29T06:14:19.4Z</time></trkpt><trkpt lat="41.9539427" lon="13.4657949"><ele>859.0</ele><time>2026-03-29T06:14:26.481Z</time></trkpt><trkpt lat="41.9539911" lon="13.465735"><ele>858.9999999999999</ele><time>2026-03-29T06:14:32.412Z</time></trkpt><trkpt lat="41.9540338" lon="13.4656665"><ele>859.0</ele><time>2026-03-29T06:14:38.398Z</time></trkpt><trkpt lat="41.954079" lon="13.4656005"><ele>859.0</ele><time>2026-03-29T06:14:44.478Z</time></trkpt><trkpt lat="41.9541115" lon="13.465526"><ele>859.0</ele><time>2026-03-29T06:14:50.412Z</time></trkpt><trkpt lat="41.954111" lon="13.4654306"><ele>859.0</ele><time>2026-03-29T06:14:57.451Z</time></trkpt><trkpt lat="41.9540979" lon="13.4653441"><ele>858.9999999999999</ele><time>2026-03-29T06:15:04.405Z</time></trkpt><trkpt lat="41.9540675" lon="13.4652661"><ele>859.0</ele><time>2026-03-29T06:15:12.434Z</time></trkpt><trkpt lat="41.954016" lon="13.465204"><ele>860.4285714285713</ele><time>2026-03-29T06:15:20.402Z</time></trkpt><trkpt lat="41.9539616" lon="13.4651576"><ele>861.8571428571429</ele><time>2026-03-29T06:15:27.418Z</time></trkpt><trkpt lat="41.953928" lon="13.4650742"><ele>863.2857142857142</ele><time>2026-03-29T06:15:35.419Z</time></trkpt><trkpt lat="41.9538769" lon="13.4650133"><ele>864.7142857142857</ele><time>2026-03-29T06:15:43.408Z</time></trkpt><trkpt lat="41.9538258" lon="13.4649482"><ele>866.1428571428571</ele><time>2026-03-29T06:15:52.407Z</time></trkpt><trkpt lat="41.9538071" lon="13.4648637"><ele>867.5714285714286</ele><time>2026-03-29T06:16:01.407Z</time></trkpt><trkpt lat="41.9537547" lon="13.4648164"><ele>869.0</ele><time>2026-03-29T06:16:10.312Z</time></trkpt><trkpt lat="41.953726" lon="13.4647379"><ele>869.0</ele><time>2026-03-29T06:16:20.413Z</time></trkpt><trkpt lat="41.9536767" lon="13.4646718"><ele>869.0</ele><time>2026-03-29T06:16:31.349Z</time></trkpt><trkpt lat="41.9536642" lon="13.4645861"><ele>869.0</ele><time>2026-03-29T06:16:38.378Z</time></trkpt><trkpt lat="41.9536262" lon="13.4645169"><ele>869.0</ele><time>2026-03-29T06:16:46.458Z</time></trkpt><trkpt lat="41.9535856" lon="13.4644427"><ele>869.0</ele><time>2026-03-29T06:16:55.408Z</time></trkpt><trkpt lat="41.9535384" lon="13.4643728"><ele>869.0</ele><time>2026-03-29T06:17:04.455Z</time></trkpt><trkpt lat="41.9535513" lon="13.4642774"><ele>869.0</ele><time>2026-03-29T06:17:10.403Z</time></trkpt><trkpt lat="41.9535458" lon="13.464188"><ele>869.8571428571429</ele><time>2026-03-29T06:17:19.4Z</time></trkpt><trkpt lat="41.9535263" lon="13.4641003"><ele>870.7142857142857</ele><time>2026-03-29T06:17:27.404Z</time></trkpt><trkpt lat="41.9534981" lon="13.4640201"><ele>871.5714285714286</ele><time>2026-03-29T06:17:35.43Z</time></trkpt><trkpt lat="41.9534642" lon="13.4639436"><ele>872.4285714285714</ele><time>2026-03-29T06:17:46.4Z</time></trkpt><trkpt lat="41.9534153" lon="13.4638825"><ele>873.2857142857142</ele><time>2026-03-29T06:17:54.437Z</time></trkpt><trkpt lat="41.9533559" lon="13.4638325"><ele>874.1428571428571</ele><time>2026-03-29T06:18:02.398Z</time></trkpt><trkpt lat="41.9533048" lon="13.4637739"><ele>875.0</ele><time>2026-03-29T06:18:10.359Z</time></trkpt><trkpt lat="41.9532882" lon="13.4636853"><ele>880.5714285714286</ele><time>2026-03-29T06:18:18.399Z</time></trkpt><trkpt lat="41.9532936" lon="13.4635965"><ele>886.1428571428571</ele><time>2026-03-29T06:18:25.41Z</time></trkpt><trkpt lat="41.9532671" lon="13.4635139"><ele>891.7142857142858</ele><time>2026-03-29T06:18:35.402Z</time></trkpt><trkpt lat="41.9532303" lon="13.4634357"><ele>897.2857142857143</ele><time>2026-03-29T06:18:43.409Z</time></trkpt><trkpt lat="41.9532179" lon="13.4633514"><ele>902.8571428571429</ele><time>2026-03-29T06:18:52.404Z</time></trkpt><trkpt lat="41.9532041" lon="13.463265"><ele>908.4285714285716</ele><time>2026-03-29T06:19:00.404Z</time></trkpt><trkpt lat="41.9531869" lon="13.4631708"><ele>914.0000000000001</ele><time>2026-03-29T06:19:08.448Z</time></trkpt><trkpt lat="41.9531706" lon="13.4630853"><ele>914.0000000000001</ele><time>2026-03-29T06:19:16.442Z</time></trkpt><trkpt lat="41.9531749" lon="13.4629975"><ele>914.0</ele><time>2026-03-29T06:19:22.426Z</time></trkpt><trkpt lat="41.9531778" lon="13.4628971"><ele>914.0000000000001</ele><time>2026-03-29T06:19:29.394Z</time></trkpt><trkpt lat="41.9531661" lon="13.4628133"><ele>914.0000000000001</ele><time>2026-03-29T06:19:37.444Z</time></trkpt><trkpt lat="41.9531305" lon="13.4627387"><ele>914.0</ele><time>2026-03-29T06:19:45.4Z</time></trkpt><trkpt lat="41.9530916" lon="13.4626586"><ele>914.0000000000001</ele><time>2026-03-29T06:19:53.407Z</time></trkpt><trkpt lat="41.9530768" lon="13.4625727"><ele>914.0000000000001</ele><time>2026-03-29T06:19:59.432Z</time></trkpt><trkpt lat="41.9530744" lon="13.4624773"><ele>914.857142857143</ele><time>2026-03-29T06:20:05.403Z</time></trkpt><trkpt lat="41.9530781" lon="13.4623899"><ele>915.7142857142858</ele><time>2026-03-29T06:20:10.402Z</time></trkpt><trkpt lat="41.953081" lon="13.4622931"><ele>916.5714285714286</ele><time>2026-03-29T06:20:16.426Z</time></trkpt><trkpt lat="41.9530751" lon="13.4621983"><ele>917.4285714285714</ele><time>2026-03-29T06:20:23.399Z</time></trkpt><trkpt lat="41.953085" lon="13.462103"><ele>918.2857142857142</ele><time>2026-03-29T06:20:30.451Z</time></trkpt><trkpt lat="41.953098" lon="13.4620126"><ele>919.142857142857</ele><time>2026-03-29T06:20:37.444Z</time></trkpt><trkpt lat="41.9530984" lon="13.4619211"><ele>919.9999999999999</ele><time>2026-03-29T06:20:44.399Z</time></trkpt><trkpt lat="41.9530866" lon="13.4618379"><ele>922.4285714285713</ele><time>2026-03-29T06:20:51.336Z</time></trkpt><trkpt lat="41.9530741" lon="13.4617462"><ele>924.8571428571429</ele><time>2026-03-29T06:21:00.437Z</time></trkpt><trkpt lat="41.9530596" lon="13.4616551"><ele>927.2857142857142</ele><time>2026-03-29T06:21:09.421Z</time></trkpt><trkpt lat="41.9531019" lon="13.4615899"><ele>929.7142857142857</ele><time>2026-03-29T06:21:15.349Z</time></trkpt><trkpt lat="41.9531612" lon="13.4615354"><ele>932.1428571428571</ele><time>2026-03-29T06:21:21.403Z</time></trkpt><trkpt lat="41.9532327" lon="13.4615318"><ele>934.5714285714286</ele><time>2026-03-29T06:21:28.428Z</time></trkpt><trkpt lat="41.9532998" lon="13.4615734"><ele>937.0</ele><time>2026-03-29T06:21:33.398Z</time></trkpt><trkpt lat="41.9533587" lon="13.4616044"><ele>938.7142857142857</ele><time>2026-03-29T06:21:49.444Z</time></trkpt><trkpt lat="41.9534181" lon="13.4616426"><ele>940.4285714285716</ele><time>2026-03-29T06:21:53.405Z</time></trkpt><trkpt lat="41.9534717" lon="13.4617052"><ele>942.1428571428572</ele><time>2026-03-29T06:21:59.399Z</time></trkpt><trkpt lat="41.9535262" lon="13.4617636"><ele>943.8571428571429</ele><time>2026-03-29T06:22:05.433Z</time></trkpt><trkpt lat="41.9535913" lon="13.4617889"><ele>945.5714285714287</ele><time>2026-03-29T06:22:12.419Z</time></trkpt><trkpt lat="41.9536548" lon="13.4618195"><ele>947.2857142857144</ele><time>2026-03-29T06:22:19.412Z</time></trkpt><trkpt lat="41.9537" lon="13.4618899"><ele>949.0000000000001</ele><time>2026-03-29T06:22:25.444Z</time></trkpt><trkpt lat="41.9537527" lon="13.4619427"><ele>949.0000000000001</ele><time>2026-03-29T06:22:32.404Z</time></trkpt><trkpt lat="41.9538157" lon="13.4619761"><ele>949.0</ele><time>2026-03-29T06:22:38.474Z</time></trkpt><trkpt lat="41.9538757" lon="13.4620076"><ele>949.0000000000001</ele><time>2026-03-29T06:22:45.371Z</time></trkpt><trkpt lat="41.9539386" lon="13.4620592"><ele>949.0000000000001</ele><time>2026-03-29T06:22:52.403Z</time></trkpt><trkpt lat="41.9539964" lon="13.4620957"><ele>949.0</ele><time>2026-03-29T06:22:57.423Z</time></trkpt><trkpt lat="41.9540513" lon="13.46215"><ele>949.0000000000001</ele><time>2026-03-29T06:23:03.432Z</time></trkpt><trkpt lat="41.9541192" lon="13.4621858"><ele>949.0000000000001</ele><time>2026-03-29T06:23:10.402Z</time></trkpt><trkpt lat="41.9541857" lon="13.4622089"><ele>946.857142857143</ele><time>2026-03-29T06:23:16.454Z</time></trkpt><trkpt lat="41.9542479" lon="13.4622416"><ele>944.7142857142858</ele><time>2026-03-29T06:23:22.318Z</time></trkpt><trkpt lat="41.9543179" lon="13.4622708"><ele>942.5714285714286</ele><time>2026-03-29T06:23:28.35Z</time></trkpt><trkpt lat="41.9543805" lon="13.4622992"><ele>940.4285714285714</ele><time>2026-03-29T06:23:34.429Z</time></trkpt><trkpt lat="41.9544461" lon="13.4623061"><ele>938.2857142857142</ele><time>2026-03-29T06:23:40.358Z</time></trkpt><trkpt lat="41.9545004" lon="13.462349"><ele>936.142857142857</ele><time>2026-03-29T06:23:46.403Z</time></trkpt><trkpt lat="41.9545664" lon="13.4623467"><ele>933.9999999999999</ele><time>2026-03-29T06:25:53.42Z</time></trkpt><trkpt lat="41.9546364" lon="13.462333"><ele>933.9999999999999</ele><time>2026-03-29T06:26:00.402Z</time></trkpt><trkpt lat="41.9547087" lon="13.4623562"><ele>934.0</ele><time>2026-03-29T06:26:06.397Z</time></trkpt><trkpt lat="41.9547717" lon="13.4623494"><ele>933.9999999999999</ele><time>2026-03-29T06:26:11.423Z</time></trkpt><trkpt lat="41.9548392" lon="13.4623424"><ele>933.9999999999999</ele><time>2026-03-29T06:26:17.393Z</time></trkpt><trkpt lat="41.9549087" lon="13.4623516"><ele>934.0</ele><time>2026-03-29T06:26:24.398Z</time></trkpt><trkpt lat="41.9549705" lon="13.4623681"><ele>933.9999999999999</ele><time>2026-03-29T06:26:30.356Z</time></trkpt><trkpt lat="41.9550223" lon="13.4624234"><ele>933.9999999999999</ele><time>2026-03-29T06:26:36.403Z</time></trkpt><trkpt lat="41.9550694" lon="13.4624954"><ele>935.9999999999999</ele><time>2026-03-29T06:26:44.317Z</time></trkpt><trkpt lat="41.9551313" lon="13.4625397"><ele>938.0</ele><time>2026-03-29T06:26:52.405Z</time></trkpt><trkpt lat="41.9552025" lon="13.4625386"><ele>939.9999999999999</ele><time>2026-03-29T06:27:01.407Z</time></trkpt><trkpt lat="41.9552664" lon="13.462561"><ele>941.9999999999999</ele><time>2026-03-29T06:27:08.374Z</time></trkpt><trkpt lat="41.9553314" lon="13.4625682"><ele>944.0</ele><time>2026-03-29T06:27:13.403Z</time></trkpt><trkpt lat="41.9553989" lon="13.462588"><ele>945.9999999999999</ele><time>2026-03-29T06:27:19.409Z</time></trkpt><trkpt lat="41.9554669" lon="13.4625838"><ele>947.9999999999999</ele><time>2026-03-29T06:27:25.403Z</time></trkpt><trkpt lat="41.9555316" lon="13.4626022"><ele>947.9999999999999</ele><time>2026-03-29T06:27:32.403Z</time></trkpt><trkpt lat="41.9555937" lon="13.4626303"><ele>948.0</ele><time>2026-03-29T06:27:40.402Z</time></trkpt><trkpt lat="41.9556523" lon="13.4626683"><ele>947.9999999999999</ele><time>2026-03-29T06:27:48.401Z</time></trkpt><trkpt lat="41.9557184" lon="13.462697"><ele>947.9999999999999</ele><time>2026-03-29T06:27:54.409Z</time></trkpt><trkpt lat="41.9557905" lon="13.4627007"><ele>948.0</ele><time>2026-03-29T06:28:00.399Z</time></trkpt><trkpt lat="41.9558546" lon="13.4627085"><ele>947.9999999999999</ele><time>2026-03-29T06:28:06.41Z</time></trkpt><trkpt lat="41.9559209" lon="13.4627284"><ele>947.9999999999999</ele><time>2026-03-29T06:28:12.41Z</time></trkpt><trkpt lat="41.9559935" lon="13.462746"><ele>949.142857142857</ele><time>2026-03-29T06:28:19.404Z</time></trkpt><trkpt lat="41.9560635" lon="13.4627458"><ele>950.2857142857142</ele><time>2026-03-29T06:28:25.403Z</time></trkpt><trkpt lat="41.9561208" lon="13.462705"><ele>951.4285714285714</ele><time>2026-03-29T06:28:31.417Z</time></trkpt><trkpt lat="41.9561007" lon="13.4626224"><ele>952.5714285714286</ele><time>2026-03-29T06:28:42.434Z</time></trkpt><trkpt lat="41.9560362" lon="13.4625945"><ele>953.7142857142858</ele><time>2026-03-29T06:28:51.402Z</time></trkpt><trkpt lat="41.9559967" lon="13.4625176"><ele>954.857142857143</ele><time>2026-03-29T06:28:58.401Z</time></trkpt><trkpt lat="41.9559495" lon="13.4624568"><ele>956.0000000000001</ele><time>2026-03-29T06:29:07.399Z</time></trkpt><trkpt lat="41.9559457" lon="13.4623644"><ele>956.0000000000001</ele><time>2026-03-29T06:29:16.417Z</time></trkpt><trkpt lat="41.9560153" lon="13.4623484"><ele>956.0</ele><time>2026-03-29T06:29:25.357Z</time></trkpt><trkpt lat="41.9560768" lon="13.4623916"><ele>956.0000000000001</ele><time>2026-03-29T06:29:32.403Z</time></trkpt><trkpt lat="41.9561351" lon="13.46243"><ele>956.0000000000001</ele><time>2026-03-29T06:29:38.4Z</time></trkpt><trkpt lat="41.9561923" lon="13.4623837"><ele>956.0</ele><time>2026-03-29T06:29:44.356Z</time></trkpt><trkpt lat="41.9562466" lon="13.4623218"><ele>956.0000000000001</ele><time>2026-03-29T06:29:51.402Z</time></trkpt><trkpt lat="41.9563051" lon="13.4622856"><ele>956.0000000000001</ele><time>2026-03-29T06:29:57.439Z</time></trkpt><trkpt lat="41.9563777" lon="13.4622748"><ele>956.0000000000001</ele><time>2026-03-29T06:30:04.443Z</time></trkpt><trkpt lat="41.9564492" lon="13.462284"><ele>956.0</ele><time>2026-03-29T06:30:10.401Z</time></trkpt><trkpt lat="41.9565124" lon="13.4623033"><ele>956.0000000000001</ele><time>2026-03-29T06:30:16.411Z</time></trkpt><trkpt lat="41.9565692" lon="13.4623403"><ele>956.0000000000001</ele><time>2026-03-29T06:30:22.445Z</time></trkpt><trkpt lat="41.9566335" lon="13.4623814"><ele>956.0</ele><time>2026-03-29T06:30:29.4Z</time></trkpt><trkpt lat="41.9566992" lon="13.4623952"><ele>956.0000000000001</ele><time>2026-03-29T06:30:35.418Z</time></trkpt><trkpt lat="41.9567649" lon="13.4624016"><ele>956.0000000000001</ele><time>2026-03-29T06:30:41.357Z</time></trkpt><trkpt lat="41.9568284" lon="13.462433"><ele>956.857142857143</ele><time>2026-03-29T06:30:50.404Z</time></trkpt><trkpt lat="41.9568885" lon="13.4624047"><ele>957.7142857142858</ele><time>2026-03-29T06:30:55.404Z</time></trkpt><trkpt lat="41.9569588" lon="13.4623963"><ele>958.5714285714286</ele><time>2026-03-29T06:31:02.4Z</time></trkpt><trkpt lat="41.9570253" lon="13.4623929"><ele>959.4285714285714</ele><time>2026-03-29T06:31:09.41Z</time></trkpt><trkpt lat="41.9570933" lon="13.4623774"><ele>960.2857142857142</ele><time>2026-03-29T06:31:17.4Z</time></trkpt><trkpt lat="41.9571613" lon="13.46235"><ele>961.142857142857</ele><time>2026-03-29T06:31:25.401Z</time></trkpt><trkpt lat="41.9572249" lon="13.4623198"><ele>961.9999999999999</ele><time>2026-03-29T06:31:32.441Z</time></trkpt><trkpt lat="41.9572872" lon="13.4622909"><ele>961.9999999999999</ele><time>2026-03-29T06:31:39.406Z</time></trkpt><trkpt lat="41.9573408" lon="13.4622405"><ele>962.0</ele><time>2026-03-29T06:31:46.419Z</time></trkpt><trkpt lat="41.9573911" lon="13.4621868"><ele>961.9999999999999</ele><time>2026-03-29T06:31:53.459Z</time></trkpt><trkpt lat="41.9574463" lon="13.4621287"><ele>961.9999999999999</ele><time>2026-03-29T06:32:01.405Z</time></trkpt><trkpt lat="41.9575153" lon="13.4621357"><ele>962.0</ele><time>2026-03-29T06:32:09.45Z</time></trkpt><trkpt lat="41.9575789" lon="13.4621097"><ele>961.9999999999999</ele><time>2026-03-29T06:32:17.403Z</time></trkpt><trkpt lat="41.957621" lon="13.4620409"><ele>961.9999999999999</ele><time>2026-03-29T06:32:24.434Z</time></trkpt><trkpt lat="41.9576167" lon="13.4619461"><ele>961.2857142857142</ele><time>2026-03-29T06:32:31.407Z</time></trkpt><trkpt lat="41.9575819" lon="13.4618718"><ele>960.5714285714286</ele><time>2026-03-29T06:32:38.467Z</time></trkpt><trkpt lat="41.9575522" lon="13.4617883"><ele>959.8571428571429</ele><time>2026-03-29T06:32:47.4Z</time></trkpt><trkpt lat="41.9575492" lon="13.4616969"><ele>959.1428571428571</ele><time>2026-03-29T06:32:54.403Z</time></trkpt><trkpt lat="41.9576038" lon="13.461651"><ele>958.4285714285716</ele><time>2026-03-29T06:32:58.424Z</time></trkpt><trkpt lat="41.9576695" lon="13.4616302"><ele>957.7142857142858</ele><time>2026-03-29T06:33:02.473Z</time></trkpt><trkpt lat="41.9577374" lon="13.4616313"><ele>957.0</ele><time>2026-03-29T06:33:07.37Z</time></trkpt><trkpt lat="41.957809" lon="13.4616492"><ele>957.0</ele><time>2026-03-29T06:33:12.359Z</time></trkpt><trkpt lat="41.9578806" lon="13.4616407"><ele>957.0000000000001</ele><time>2026-03-29T06:33:17.431Z</time></trkpt><trkpt lat="41.9579439" lon="13.4616046"><ele>957.0</ele><time>2026-03-29T06:33:23.402Z</time></trkpt><trkpt lat="41.9579815" lon="13.4615219"><ele>957.0</ele><time>2026-03-29T06:33:29.399Z</time></trkpt><trkpt lat="41.9579911" lon="13.4614304"><ele>957.0000000000001</ele><time>2026-03-29T06:33:35.433Z</time></trkpt><trkpt lat="41.9579613" lon="13.4613555"><ele>957.0</ele><time>2026-03-29T06:33:41.313Z</time></trkpt><trkpt lat="41.9579418" lon="13.4612735"><ele>957.0</ele><time>2026-03-29T06:33:48.407Z</time></trkpt><trkpt lat="41.957923" lon="13.4611809"><ele>957.4285714285714</ele><time>2026-03-29T06:33:56.451Z</time></trkpt><trkpt lat="41.957927" lon="13.4610911"><ele>957.8571428571429</ele><time>2026-03-29T06:34:03.4Z</time></trkpt><trkpt lat="41.9579236" lon="13.4610035"><ele>958.2857142857143</ele><time>2026-03-29T06:34:09.425Z</time></trkpt><trkpt lat="41.9579156" lon="13.4609061"><ele>958.7142857142858</ele><time>2026-03-29T06:34:15.404Z</time></trkpt><trkpt lat="41.9579172" lon="13.460815"><ele>959.1428571428571</ele><time>2026-03-29T06:34:20.401Z</time></trkpt><trkpt lat="41.9579274" lon="13.4607261"><ele>959.5714285714287</ele><time>2026-03-29T06:34:25.409Z</time></trkpt><trkpt lat="41.9579039" lon="13.4606432"><ele>960.0</ele><time>2026-03-29T06:34:31.377Z</time></trkpt><trkpt lat="41.9578656" lon="13.4605683"><ele>960.0</ele><time>2026-03-29T06:34:37.336Z</time></trkpt><trkpt lat="41.9578545" lon="13.4604836"><ele>960.0</ele><time>2026-03-29T06:34:42.454Z</time></trkpt><trkpt lat="41.9578673" lon="13.4603938"><ele>960.0</ele><time>2026-03-29T06:34:47.4Z</time></trkpt><trkpt lat="41.9578869" lon="13.4603124"><ele>960.0</ele><time>2026-03-29T06:34:52.409Z</time></trkpt><trkpt lat="41.9578459" lon="13.4602375"><ele>960.0</ele><time>2026-03-29T06:34:59.451Z</time></trkpt><trkpt lat="41.9577955" lon="13.4601804"><ele>960.0</ele><time>2026-03-29T06:35:06.369Z</time></trkpt><trkpt lat="41.9577473" lon="13.4601234"><ele>960.0</ele><time>2026-03-29T06:35:13.331Z</time></trkpt><trkpt lat="41.9577058" lon="13.4600505"><ele>960.8571428571429</ele><time>2026-03-29T06:35:19.418Z</time></trkpt><trkpt lat="41.957683" lon="13.459958"><ele>961.7142857142857</ele><time>2026-03-29T06:35:25.401Z</time></trkpt><trkpt lat="41.957647" lon="13.4598766"><ele>962.5714285714286</ele><time>2026-03-29T06:35:31.353Z</time></trkpt><trkpt lat="41.9576035" lon="13.4598048"><ele>963.4285714285714</ele><time>2026-03-29T06:35:37.375Z</time></trkpt><trkpt lat="41.9575816" lon="13.459715"><ele>964.2857142857142</ele><time>2026-03-29T06:35:44.459Z</time></trkpt><trkpt lat="41.9575437" lon="13.4596455"><ele>965.1428571428571</ele><time>2026-03-29T06:35:50.406Z</time></trkpt><trkpt lat="41.9575051" lon="13.4595664"><ele>966.0</ele><time>2026-03-29T06:35:56.427Z</time></trkpt><trkpt lat="41.9574855" lon="13.4594761"><ele>968.5714285714286</ele><time>2026-03-29T06:36:03.404Z</time></trkpt><trkpt lat="41.9574954" lon="13.4593773"><ele>971.1428571428571</ele><time>2026-03-29T06:36:10.37Z</time></trkpt><trkpt lat="41.9575484" lon="13.4593281"><ele>973.7142857142858</ele><time>2026-03-29T06:36:16.439Z</time></trkpt><trkpt lat="41.9576108" lon="13.4593096"><ele>976.2857142857143</ele><time>2026-03-29T06:36:23.403Z</time></trkpt><trkpt lat="41.9576755" lon="13.4593067"><ele>978.8571428571429</ele><time>2026-03-29T06:36:29.412Z</time></trkpt><trkpt lat="41.9577421" lon="13.4592988"><ele>981.4285714285716</ele><time>2026-03-29T06:36:35.446Z</time></trkpt><trkpt lat="41.9578056" lon="13.4592943"><ele>984.0000000000001</ele><time>2026-03-29T06:36:41.404Z</time></trkpt><trkpt lat="41.9578723" lon="13.4592739"><ele>984.0000000000001</ele><time>2026-03-29T06:36:48.394Z</time></trkpt><trkpt lat="41.9579423" lon="13.4592668"><ele>984.0</ele><time>2026-03-29T06:36:54.454Z</time></trkpt><trkpt lat="41.9580113" lon="13.4592519"><ele>984.0000000000001</ele><time>2026-03-29T06:37:00.407Z</time></trkpt><trkpt lat="41.9580749" lon="13.4592377"><ele>984.0000000000001</ele><time>2026-03-29T06:37:06.421Z</time></trkpt><trkpt lat="41.9581463" lon="13.4592563"><ele>984.0</ele><time>2026-03-29T06:37:12.389Z</time></trkpt><trkpt lat="41.9582207" lon="13.459249"><ele>984.0000000000001</ele><time>2026-03-29T06:37:19.404Z</time></trkpt><trkpt lat="41.9582853" lon="13.4592239"><ele>984.0000000000001</ele><time>2026-03-29T06:37:25.428Z</time></trkpt><trkpt lat="41.9583499" lon="13.4592152"><ele>982.1428571428573</ele><time>2026-03-29T06:37:31.463Z</time></trkpt><trkpt lat="41.958414" lon="13.4592321"><ele>980.2857142857143</ele><time>2026-03-29T06:37:38.406Z</time></trkpt><trkpt lat="41.9584811" lon="13.4592296"><ele>978.4285714285716</ele><time>2026-03-29T06:37:44.436Z</time></trkpt><trkpt lat="41.9585442" lon="13.4591932"><ele>976.5714285714287</ele><time>2026-03-29T06:37:50.335Z</time></trkpt><trkpt lat="41.9585887" lon="13.4591206"><ele>974.7142857142858</ele><time>2026-03-29T06:37:56.403Z</time></trkpt><trkpt lat="41.9585984" lon="13.4590287"><ele>972.8571428571429</ele><time>2026-03-29T06:38:03.443Z</time></trkpt><trkpt lat="41.9585337" lon="13.4590107"><ele>971.0</ele><time>2026-03-29T06:38:22.468Z</time></trkpt><trkpt lat="41.958498" lon="13.4589294"><ele>971.0</ele><time>2026-03-29T06:38:28.404Z</time></trkpt><trkpt lat="41.9584887" lon="13.458838"><ele>971.0000000000001</ele><time>2026-03-29T06:38:36.427Z</time></trkpt><trkpt lat="41.9584765" lon="13.4587511"><ele>971.0</ele><time>2026-03-29T06:38:46.383Z</time></trkpt><trkpt lat="41.9584596" lon="13.4586635"><ele>971.0</ele><time>2026-03-29T06:38:54.439Z</time></trkpt><trkpt lat="41.9584162" lon="13.4585901"><ele>971.0000000000001</ele><time>2026-03-29T06:39:03.406Z</time></trkpt><trkpt lat="41.9583719" lon="13.458517"><ele>971.0</ele><time>2026-03-29T06:39:10.418Z</time></trkpt><trkpt lat="41.958378" lon="13.4584074"><ele>971.0</ele><time>2026-03-29T06:39:15.401Z</time></trkpt><trkpt lat="41.9583753" lon="13.4583072"><ele>971.2857142857143</ele><time>2026-03-29T06:39:21.404Z</time></trkpt><trkpt lat="41.9584028" lon="13.4582245"><ele>971.5714285714287</ele><time>2026-03-29T06:39:27.429Z</time></trkpt><trkpt lat="41.9584279" lon="13.458133"><ele>971.8571428571429</ele><time>2026-03-29T06:39:32.407Z</time></trkpt><trkpt lat="41.9584743" lon="13.4580711"><ele>972.1428571428571</ele><time>2026-03-29T06:39:45.415Z</time></trkpt><trkpt lat="41.9585412" lon="13.458055"><ele>972.4285714285714</ele><time>2026-03-29T06:39:51.404Z</time></trkpt><trkpt lat="41.9586035" lon="13.4580367"><ele>972.7142857142858</ele><time>2026-03-29T06:39:57.397Z</time></trkpt><trkpt lat="41.9586667" lon="13.4580026"><ele>973.0</ele><time>2026-03-29T06:40:04.422Z</time></trkpt><trkpt lat="41.9587283" lon="13.4579696"><ele>973.8571428571429</ele><time>2026-03-29T06:40:11.437Z</time></trkpt><trkpt lat="41.9587532" lon="13.4578912"><ele>974.7142857142858</ele><time>2026-03-29T06:40:17.405Z</time></trkpt><trkpt lat="41.9587937" lon="13.4578176"><ele>975.5714285714286</ele><time>2026-03-29T06:40:23.435Z</time></trkpt><trkpt lat="41.9588329" lon="13.4577481"><ele>976.4285714285714</ele><time>2026-03-29T06:40:43.401Z</time></trkpt><trkpt lat="41.9588796" lon="13.4576768"><ele>977.2857142857143</ele><time>2026-03-29T06:40:47.4Z</time></trkpt><trkpt lat="41.9589214" lon="13.4576126"><ele>978.1428571428571</ele><time>2026-03-29T06:40:52.406Z</time></trkpt><trkpt lat="41.9589455" lon="13.4575243"><ele>979.0</ele><time>2026-03-29T06:40:58.433Z</time></trkpt><trkpt lat="41.9589433" lon="13.4574222"><ele>979.0</ele><time>2026-03-29T06:41:04.405Z</time></trkpt><trkpt lat="41.9589178" lon="13.4573311"><ele>979.0</ele><time>2026-03-29T06:41:11.406Z</time></trkpt><trkpt lat="41.9588837" lon="13.4572553"><ele>979.0</ele><time>2026-03-29T06:41:18.441Z</time></trkpt><trkpt lat="41.9588585" lon="13.457177"><ele>979.0</ele><time>2026-03-29T06:41:24.429Z</time></trkpt><trkpt lat="41.9588272" lon="13.457099"><ele>979.0</ele><time>2026-03-29T06:41:30.313Z</time></trkpt><trkpt lat="41.9587802" lon="13.4570222"><ele>979.0</ele><time>2026-03-29T06:41:38.469Z</time></trkpt><trkpt lat="41.9587801" lon="13.4569306"><ele>979.0</ele><time>2026-03-29T06:41:44.402Z</time></trkpt><trkpt lat="41.9588127" lon="13.4568472"><ele>980.0</ele><time>2026-03-29T06:41:49.39Z</time></trkpt><trkpt lat="41.9588731" lon="13.4567922"><ele>981.0</ele><time>2026-03-29T06:41:55.402Z</time></trkpt><trkpt lat="41.9589361" lon="13.456778"><ele>982.0</ele><time>2026-03-29T06:42:02.407Z</time></trkpt><trkpt lat="41.9590022" lon="13.4567662"><ele>983.0</ele><time>2026-03-29T06:42:09.428Z</time></trkpt><trkpt lat="41.9590664" lon="13.4567211"><ele>984.0</ele><time>2026-03-29T06:42:16.403Z</time></trkpt><trkpt lat="41.9591236" lon="13.4566765"><ele>985.0</ele><time>2026-03-29T06:42:22.404Z</time></trkpt><trkpt lat="41.9591865" lon="13.4566373"><ele>986.0</ele><time>2026-03-29T06:42:28.435Z</time></trkpt><trkpt lat="41.9592504" lon="13.4566154"><ele>984.2857142857142</ele><time>2026-03-29T06:42:34.405Z</time></trkpt><trkpt lat="41.9593144" lon="13.456601"><ele>982.5714285714287</ele><time>2026-03-29T06:42:40.407Z</time></trkpt><trkpt lat="41.9593737" lon="13.456555"><ele>980.8571428571429</ele><time>2026-03-29T06:42:46.436Z</time></trkpt><trkpt lat="41.9594184" lon="13.4564829"><ele>979.1428571428571</ele><time>2026-03-29T06:42:53.403Z</time></trkpt><trkpt lat="41.9594379" lon="13.4563963"><ele>977.4285714285713</ele><time>2026-03-29T06:42:59.409Z</time></trkpt><trkpt lat="41.9594571" lon="13.4563133"><ele>975.7142857142858</ele><time>2026-03-29T06:43:05.444Z</time></trkpt><trkpt lat="41.9594949" lon="13.4562319"><ele>974.0</ele><time>2026-03-29T06:43:12.4Z</time></trkpt><trkpt lat="41.9595414" lon="13.4561581"><ele>974.0</ele><time>2026-03-29T06:43:19.416Z</time></trkpt><trkpt lat="41.9595891" lon="13.456095"><ele>974.0</ele><time>2026-03-29T06:43:26.403Z</time></trkpt><trkpt lat="41.9596262" lon="13.4560242"><ele>974.0</ele><time>2026-03-29T06:43:34.407Z</time></trkpt><trkpt lat="41.9596885" lon="13.4559679"><ele>974.0</ele><time>2026-03-29T06:43:41.446Z</time></trkpt><trkpt lat="41.9597541" lon="13.4559783"><ele>974.0</ele><time>2026-03-29T06:43:45.407Z</time></trkpt><trkpt lat="41.9598246" lon="13.4559844"><ele>974.0</ele><time>2026-03-29T06:43:49.356Z</time></trkpt><trkpt lat="41.9598978" lon="13.4559588"><ele>974.0</ele><time>2026-03-29T06:43:54.419Z</time></trkpt><trkpt lat="41.9599519" lon="13.4558954"><ele>974.0</ele><time>2026-03-29T06:44:00.403Z</time></trkpt><trkpt lat="41.9599912" lon="13.4558175"><ele>974.0</ele><time>2026-03-29T06:44:06.471Z</time></trkpt><trkpt lat="41.9600317" lon="13.4557463"><ele>974.0</ele><time>2026-03-29T06:44:12.394Z</time></trkpt><trkpt lat="41.9600825" lon="13.455694"><ele>974.0</ele><time>2026-03-29T06:44:17.404Z</time></trkpt><trkpt lat="41.960139" lon="13.4556256"><ele>974.0</ele><time>2026-03-29T06:44:23.404Z</time></trkpt><trkpt lat="41.9601819" lon="13.4555546"><ele>974.0</ele><time>2026-03-29T06:44:29.43Z</time></trkpt><trkpt lat="41.9601866" lon="13.4554692"><ele>974.0</ele><time>2026-03-29T06:44:35.403Z</time></trkpt><trkpt lat="41.9601728" lon="13.4553752"><ele>973.0</ele><time>2026-03-29T06:44:43.402Z</time></trkpt><trkpt lat="41.9601134" lon="13.4553204"><ele>972.0</ele><time>2026-03-29T06:44:50.435Z</time></trkpt><trkpt lat="41.9600694" lon="13.4552419"><ele>971.0</ele><time>2026-03-29T06:44:57.407Z</time></trkpt><trkpt lat="41.9600412" lon="13.4551566"><ele>970.0</ele><time>2026-03-29T06:45:03.352Z</time></trkpt><trkpt lat="41.9600139" lon="13.4550697"><ele>969.0</ele><time>2026-03-29T06:45:09.403Z</time></trkpt><trkpt lat="41.9599894" lon="13.4549844"><ele>968.0</ele><time>2026-03-29T06:45:15.406Z</time></trkpt><trkpt lat="41.9599769" lon="13.4548966"><ele>967.0</ele><time>2026-03-29T06:45:21.397Z</time></trkpt><trkpt lat="41.9599661" lon="13.4548018"><ele>968.0</ele><time>2026-03-29T06:45:28.378Z</time></trkpt><trkpt lat="41.959988" lon="13.4547177"><ele>969.0</ele><time>2026-03-29T06:45:35.403Z</time></trkpt><trkpt lat="41.9599947" lon="13.454627"><ele>970.0</ele><time>2026-03-29T06:45:43.435Z</time></trkpt><trkpt lat="41.9600294" lon="13.4545489"><ele>971.0</ele><time>2026-03-29T06:45:51.354Z</time></trkpt><trkpt lat="41.9600886" lon="13.4545173"><ele>972.0</ele><time>2026-03-29T06:45:56.408Z</time></trkpt><trkpt lat="41.9601485" lon="13.4544697"><ele>973.0</ele><time>2026-03-29T06:46:02.441Z</time></trkpt><trkpt lat="41.9602154" lon="13.4544336"><ele>974.0</ele><time>2026-03-29T06:46:08.405Z</time></trkpt><trkpt lat="41.9602739" lon="13.4543851"><ele>974.0</ele><time>2026-03-29T06:46:17.425Z</time></trkpt><trkpt lat="41.9603346" lon="13.4543562"><ele>974.0</ele><time>2026-03-29T06:46:24.406Z</time></trkpt><trkpt lat="41.9603661" lon="13.4542789"><ele>974.0</ele><time>2026-03-29T06:46:31.404Z</time></trkpt><trkpt lat="41.9603685" lon="13.4541913"><ele>974.0</ele><time>2026-03-29T06:46:38.443Z</time></trkpt><trkpt lat="41.9603464" lon="13.4541113"><ele>974.0</ele><time>2026-03-29T06:46:46.404Z</time></trkpt><trkpt lat="41.9603119" lon="13.4540402"><ele>974.0</ele><time>2026-03-29T06:46:55.402Z</time></trkpt><trkpt lat="41.9602663" lon="13.4539725"><ele>974.0</ele><time>2026-03-29T06:47:02.402Z</time></trkpt><trkpt lat="41.9602174" lon="13.4539187"><ele>974.0</ele><time>2026-03-29T06:47:08.413Z</time></trkpt><trkpt lat="41.9601604" lon="13.4538743"><ele>974.0</ele><time>2026-03-29T06:47:14.446Z</time></trkpt><trkpt lat="41.9601151" lon="13.4538114"><ele>974.0</ele><time>2026-03-29T06:47:20.395Z</time></trkpt><trkpt lat="41.9600721" lon="13.4537482"><ele>974.0</ele><time>2026-03-29T06:47:26.414Z</time></trkpt><trkpt lat="41.9600508" lon="13.4536615"><ele>974.0</ele><time>2026-03-29T06:47:33.453Z</time></trkpt><trkpt lat="41.9600115" lon="13.4535893"><ele>974.0</ele><time>2026-03-29T06:47:40.406Z</time></trkpt><trkpt lat="41.9599812" lon="13.4535049"><ele>974.0</ele><time>2026-03-29T06:47:46.426Z</time></trkpt><trkpt lat="41.9599841" lon="13.4534065"><ele>973.7142857142858</ele><time>2026-03-29T06:47:52.478Z</time></trkpt><trkpt lat="41.9600066" lon="13.4533182"><ele>973.4285714285713</ele><time>2026-03-29T06:47:57.402Z</time></trkpt><trkpt lat="41.960033" lon="13.4532176"><ele>973.1428571428571</ele><time>2026-03-29T06:48:02.431Z</time></trkpt><trkpt lat="41.9600607" lon="13.4531323"><ele>972.8571428571429</ele><time>2026-03-29T06:48:06.439Z</time></trkpt><trkpt lat="41.9601082" lon="13.4530593"><ele>972.5714285714287</ele><time>2026-03-29T06:48:11.401Z</time></trkpt><trkpt lat="41.9601708" lon="13.4530114"><ele>972.2857142857142</ele><time>2026-03-29T06:48:17.417Z</time></trkpt><trkpt lat="41.9602359" lon="13.4529769"><ele>972.0</ele><time>2026-03-29T06:48:24.44Z</time></trkpt><trkpt lat="41.9603043" lon="13.4529597"><ele>972.0</ele><time>2026-03-29T06:48:31.402Z</time></trkpt><trkpt lat="41.9603702" lon="13.4529583"><ele>972.0</ele><time>2026-03-29T06:48:38.393Z</time></trkpt><trkpt lat="41.9604346" lon="13.4529655"><ele>972.0</ele><time>2026-03-29T06:48:45.405Z</time></trkpt><trkpt lat="41.960503" lon="13.452994"><ele>972.0</ele><time>2026-03-29T06:48:53.439Z</time></trkpt><trkpt lat="41.9605679" lon="13.452975"><ele>972.0</ele><time>2026-03-29T06:49:02.402Z</time></trkpt><trkpt lat="41.9606342" lon="13.4529577"><ele>972.0</ele><time>2026-03-29T06:49:10.407Z</time></trkpt><trkpt lat="41.9606985" lon="13.4529234"><ele>972.0</ele><time>2026-03-29T06:49:18.404Z</time></trkpt><trkpt lat="41.9607605" lon="13.4529037"><ele>971.2857142857142</ele><time>2026-03-29T06:49:24.407Z</time></trkpt><trkpt lat="41.9608275" lon="13.4528694"><ele>970.5714285714287</ele><time>2026-03-29T06:49:29.349Z</time></trkpt><trkpt lat="41.9608761" lon="13.4528022"><ele>969.8571428571429</ele><time>2026-03-29T06:49:35.44Z</time></trkpt><trkpt lat="41.960935" lon="13.4527578"><ele>969.1428571428571</ele><time>2026-03-29T06:49:40.405Z</time></trkpt><trkpt lat="41.9610055" lon="13.4527418"><ele>968.4285714285713</ele><time>2026-03-29T06:49:44.402Z</time></trkpt><trkpt lat="41.9610618" lon="13.4526864"><ele>967.7142857142858</ele><time>2026-03-29T06:49:49.417Z</time></trkpt><trkpt lat="41.9610415" lon="13.4526037"><ele>967.0</ele><time>2026-03-29T06:49:53.44Z</time></trkpt><trkpt lat="41.9609961" lon="13.4525271"><ele>967.0</ele><time>2026-03-29T06:49:58.406Z</time></trkpt><trkpt lat="41.960964" lon="13.4524379"><ele>967.0</ele><time>2026-03-29T06:50:04.336Z</time></trkpt><trkpt lat="41.9609681" lon="13.4523416"><ele>967.0</ele><time>2026-03-29T06:50:10.435Z</time></trkpt><trkpt lat="41.9610105" lon="13.452274"><ele>967.0</ele><time>2026-03-29T06:50:15.408Z</time></trkpt><trkpt lat="41.9610623" lon="13.4522125"><ele>967.0</ele><time>2026-03-29T06:50:21.394Z</time></trkpt><trkpt lat="41.9611276" lon="13.4521838"><ele>967.0</ele><time>2026-03-29T06:50:26.405Z</time></trkpt><trkpt lat="41.9611949" lon="13.452149"><ele>967.0</ele><time>2026-03-29T06:50:32.406Z</time></trkpt><trkpt lat="41.9612586" lon="13.4521283"><ele>967.4285714285714</ele><time>2026-03-29T06:50:39.404Z</time></trkpt><trkpt lat="41.9613185" lon="13.4520919"><ele>967.8571428571429</ele><time>2026-03-29T06:50:46.404Z</time></trkpt><trkpt lat="41.9613366" lon="13.4520084"><ele>968.2857142857143</ele><time>2026-03-29T06:50:52.406Z</time></trkpt><trkpt lat="41.961358" lon="13.4519192"><ele>968.7142857142858</ele><time>2026-03-29T06:51:00.417Z</time></trkpt><trkpt lat="41.9613185" lon="13.4518417"><ele>969.1428571428571</ele><time>2026-03-29T06:51:08.462Z</time></trkpt><trkpt lat="41.9612853" lon="13.4517684"><ele>969.5714285714287</ele><time>2026-03-29T06:51:15.407Z</time></trkpt><trkpt lat="41.9612256" lon="13.4517292"><ele>970.0000000000001</ele><time>2026-03-29T06:51:22.441Z</time></trkpt><trkpt lat="41.9611692" lon="13.4516754"><ele>970.0000000000001</ele><time>2026-03-29T06:51:30.371Z</time></trkpt><trkpt lat="41.9611215" lon="13.451613"><ele>970.0</ele><time>2026-03-29T06:51:36.42Z</time></trkpt><trkpt lat="41.9610795" lon="13.4515393"><ele>970.0000000000001</ele><time>2026-03-29T06:51:42.408Z</time></trkpt><trkpt lat="41.9610427" lon="13.451455"><ele>970.0000000000001</ele><time>2026-03-29T06:51:48.406Z</time></trkpt><trkpt lat="41.96103" lon="13.4513613"><ele>970.0</ele><time>2026-03-29T06:51:54.421Z</time></trkpt><trkpt lat="41.9610045" lon="13.451276"><ele>970.0000000000001</ele><time>2026-03-29T06:52:00.369Z</time></trkpt><trkpt lat="41.9609947" lon="13.4511774"><ele>970.0000000000001</ele><time>2026-03-29T06:52:06.404Z</time></trkpt><trkpt lat="41.9610239" lon="13.4510837"><ele>971.7142857142858</ele><time>2026-03-29T06:52:12.417Z</time></trkpt><trkpt lat="41.9610763" lon="13.4510297"><ele>973.4285714285714</ele><time>2026-03-29T06:52:17.405Z</time></trkpt><trkpt lat="41.9611454" lon="13.4510108"><ele>975.1428571428571</ele><time>2026-03-29T06:52:23.406Z</time></trkpt><trkpt lat="41.9612159" lon="13.4510137"><ele>976.8571428571429</ele><time>2026-03-29T06:52:29.417Z</time></trkpt><trkpt lat="41.961286" lon="13.4510222"><ele>978.5714285714284</ele><time>2026-03-29T06:52:35.38Z</time></trkpt><trkpt lat="41.9613547" lon="13.4510554"><ele>980.2857142857142</ele><time>2026-03-29T06:52:41.405Z</time></trkpt><trkpt lat="41.9614259" lon="13.4510674"><ele>982.0</ele><time>2026-03-29T06:52:47.413Z</time></trkpt><trkpt lat="41.961495" lon="13.4510646"><ele>982.0</ele><time>2026-03-29T06:52:53.453Z</time></trkpt><trkpt lat="41.9615549" lon="13.451034"><ele>981.9999999999999</ele><time>2026-03-29T06:52:59.436Z</time></trkpt><trkpt lat="41.9616055" lon="13.4509771"><ele>982.0</ele><time>2026-03-29T06:53:05.374Z</time></trkpt><trkpt lat="41.9616699" lon="13.4509996"><ele>982.0</ele><time>2026-03-29T06:53:10.447Z</time></trkpt><trkpt lat="41.9617325" lon="13.4509532"><ele>981.9999999999999</ele><time>2026-03-29T06:53:16.404Z</time></trkpt><trkpt lat="41.9617861" lon="13.4509015"><ele>982.0</ele><time>2026-03-29T06:53:23.355Z</time></trkpt><trkpt lat="41.9618496" lon="13.4508773"><ele>982.0</ele><time>2026-03-29T06:53:28.405Z</time></trkpt><trkpt lat="41.9619123" lon="13.4508495"><ele>981.2857142857142</ele><time>2026-03-29T06:53:43.401Z</time></trkpt><trkpt lat="41.9619839" lon="13.4508077"><ele>980.5714285714284</ele><time>2026-03-29T06:53:48.437Z</time></trkpt><trkpt lat="41.9620483" lon="13.4507994"><ele>979.8571428571429</ele><time>2026-03-29T06:53:51.402Z</time></trkpt><trkpt lat="41.9621127" lon="13.4507874"><ele>979.1428571428571</ele><time>2026-03-29T06:53:56.409Z</time></trkpt><trkpt lat="41.9621388" lon="13.4507084"><ele>978.4285714285714</ele><time>2026-03-29T06:54:00.467Z</time></trkpt><trkpt lat="41.9621207" lon="13.4506177"><ele>977.7142857142858</ele><time>2026-03-29T06:54:05.404Z</time></trkpt><trkpt lat="41.9620796" lon="13.4505448"><ele>977.0000000000001</ele><time>2026-03-29T06:54:15.416Z</time></trkpt><trkpt lat="41.9620962" lon="13.450441"><ele>977.0000000000001</ele><time>2026-03-29T06:54:20.469Z</time></trkpt><trkpt lat="41.9621633" lon="13.450368"><ele>977.0</ele><time>2026-03-29T06:54:23.402Z</time></trkpt><trkpt lat="41.9622291" lon="13.4503135"><ele>977.0000000000001</ele><time>2026-03-29T06:54:27.408Z</time></trkpt><trkpt lat="41.9622719" lon="13.4502454"><ele>977.0000000000001</ele><time>2026-03-29T06:54:33.352Z</time></trkpt><trkpt lat="41.9622729" lon="13.4501561"><ele>977.0</ele><time>2026-03-29T06:54:40.406Z</time></trkpt><trkpt lat="41.9622706" lon="13.4500679"><ele>977.0000000000001</ele><time>2026-03-29T06:54:45.471Z</time></trkpt><trkpt lat="41.9622674" lon="13.4499792"><ele>977.0000000000001</ele><time>2026-03-29T06:54:53.476Z</time></trkpt><trkpt lat="41.9623226" lon="13.4499031"><ele>977.0000000000001</ele><time>2026-03-29T06:54:59.404Z</time></trkpt><trkpt lat="41.962381" lon="13.4498466"><ele>977.0</ele><time>2026-03-29T06:55:04.404Z</time></trkpt><trkpt lat="41.9624454" lon="13.449799"><ele>977.0000000000001</ele><time>2026-03-29T06:55:09.436Z</time></trkpt><trkpt lat="41.962511" lon="13.4497584"><ele>977.0000000000001</ele><time>2026-03-29T06:55:14.448Z</time></trkpt><trkpt lat="41.9625747" lon="13.4497261"><ele>977.0</ele><time>2026-03-29T06:55:19.391Z</time></trkpt><trkpt lat="41.9626145" lon="13.4496585"><ele>977.0000000000001</ele><time>2026-03-29T06:55:24.429Z</time></trkpt><trkpt lat="41.9626384" lon="13.4495799"><ele>977.0000000000001</ele><time>2026-03-29T06:55:29.406Z</time></trkpt><trkpt lat="41.9626716" lon="13.4495068"><ele>977.2857142857144</ele><time>2026-03-29T06:55:34.404Z</time></trkpt><trkpt lat="41.9627201" lon="13.4494429"><ele>977.5714285714287</ele><time>2026-03-29T06:55:40.402Z</time></trkpt><trkpt lat="41.9627621" lon="13.4493719"><ele>977.8571428571429</ele><time>2026-03-29T06:55:47.433Z</time></trkpt><trkpt lat="41.9628145" lon="13.4493008"><ele>978.1428571428572</ele><time>2026-03-29T06:55:52.678Z</time></trkpt><trkpt lat="41.9628879" lon="13.4492622"><ele>978.4285714285716</ele><time>2026-03-29T06:55:58.454Z</time></trkpt><trkpt lat="41.9629513" lon="13.4492244"><ele>978.7142857142857</ele><time>2026-03-29T06:56:05.41Z</time></trkpt><trkpt lat="41.9630168" lon="13.4492078"><ele>979.0</ele><time>2026-03-29T06:56:10.406Z</time></trkpt><trkpt lat="41.9630924" lon="13.4492176"><ele>979.0</ele><time>2026-03-29T06:56:15.404Z</time></trkpt><trkpt lat="41.9631581" lon="13.4492471"><ele>979.0</ele><time>2026-03-29T06:56:20.42Z</time></trkpt><trkpt lat="41.9632284" lon="13.4492683"><ele>979.0</ele><time>2026-03-29T06:56:26.459Z</time></trkpt><trkpt lat="41.9632963" lon="13.4492825"><ele>979.0</ele><time>2026-03-29T06:56:33.403Z</time></trkpt><trkpt lat="41.9633634" lon="13.4492978"><ele>979.0</ele><time>2026-03-29T06:56:40.432Z</time></trkpt><trkpt lat="41.9634165" lon="13.4493476"><ele>979.0</ele><time>2026-03-29T06:56:46.331Z</time></trkpt><trkpt lat="41.9634478" lon="13.4494351"><ele>979.0</ele><time>2026-03-29T06:56:50.402Z</time></trkpt><trkpt lat="41.9635019" lon="13.4494871"><ele>977.7142857142857</ele><time>2026-03-29T06:56:54.411Z</time></trkpt><trkpt lat="41.9635622" lon="13.4495208"><ele>976.4285714285716</ele><time>2026-03-29T06:56:59.438Z</time></trkpt><trkpt lat="41.9636253" lon="13.4495094"><ele>975.1428571428572</ele><time>2026-03-29T06:57:05.406Z</time></trkpt><trkpt lat="41.9636849" lon="13.4494473"><ele>973.8571428571429</ele><time>2026-03-29T06:57:12.418Z</time></trkpt><trkpt lat="41.9637323" lon="13.4493694"><ele>972.5714285714287</ele><time>2026-03-29T06:57:19.452Z</time></trkpt><trkpt lat="41.9637793" lon="13.449311"><ele>971.2857142857144</ele><time>2026-03-29T06:57:25.406Z</time></trkpt><trkpt lat="41.9638256" lon="13.4492518"><ele>970.0000000000001</ele><time>2026-03-29T06:57:31.418Z</time></trkpt><trkpt lat="41.963872" lon="13.4491711"><ele>970.0000000000001</ele><time>2026-03-29T06:57:38.457Z</time></trkpt><trkpt lat="41.9639139" lon="13.4490756"><ele>970.0</ele><time>2026-03-29T06:57:44.404Z</time></trkpt><trkpt lat="41.963952" lon="13.4489825"><ele>970.0000000000001</ele><time>2026-03-29T06:57:48.413Z</time></trkpt><trkpt lat="41.9639536" lon="13.4488938"><ele>970.0000000000001</ele><time>2026-03-29T06:57:53.337Z</time></trkpt><trkpt lat="41.9639245" lon="13.4488101"><ele>970.0</ele><time>2026-03-29T06:58:00.404Z</time></trkpt><trkpt lat="41.9638901" lon="13.4487312"><ele>970.0000000000001</ele><time>2026-03-29T06:58:07.421Z</time></trkpt><trkpt lat="41.9638572" lon="13.4486495"><ele>970.0000000000001</ele><time>2026-03-29T06:58:13.454Z</time></trkpt><trkpt lat="41.9638326" lon="13.4485589"><ele>969.4285714285716</ele><time>2026-03-29T06:58:19.393Z</time></trkpt><trkpt lat="41.9638035" lon="13.4484733"><ele>968.8571428571429</ele><time>2026-03-29T06:58:26.414Z</time></trkpt><trkpt lat="41.9637714" lon="13.4483917"><ele>968.2857142857143</ele><time>2026-03-29T06:58:33.404Z</time></trkpt><trkpt lat="41.9637428" lon="13.4483011"><ele>967.7142857142858</ele><time>2026-03-29T06:58:40.406Z</time></trkpt><trkpt lat="41.9637261" lon="13.4482144"><ele>967.1428571428571</ele><time>2026-03-29T06:58:47.369Z</time></trkpt><trkpt lat="41.9637338" lon="13.4481193"><ele>966.5714285714286</ele><time>2026-03-29T06:58:53.407Z</time></trkpt><trkpt lat="41.9637121" lon="13.4480388"><ele>966.0</ele><time>2026-03-29T06:58:57.396Z</time></trkpt><trkpt lat="41.9636769" lon="13.4479484"><ele>966.0</ele><time>2026-03-29T06:59:02.429Z</time></trkpt><trkpt lat="41.9636605" lon="13.4478591"><ele>966.0</ele><time>2026-03-29T06:59:07.403Z</time></trkpt><trkpt lat="41.9636486" lon="13.4477699"><ele>966.0</ele><time>2026-03-29T06:59:12.408Z</time></trkpt><trkpt lat="41.963645" lon="13.447674"><ele>966.0</ele><time>2026-03-29T06:59:18.393Z</time></trkpt><trkpt lat="41.9636302" lon="13.4475826"><ele>966.0</ele><time>2026-03-29T06:59:23.447Z</time></trkpt><trkpt lat="41.9636315" lon="13.4474936"><ele>966.0</ele><time>2026-03-29T06:59:29.416Z</time></trkpt><trkpt lat="41.9636971" lon="13.4474966"><ele>966.0</ele><time>2026-03-29T06:59:40.442Z</time></trkpt><trkpt lat="41.9637671" lon="13.447495"><ele>966.0</ele><time>2026-03-29T06:59:46.31Z</time></trkpt><trkpt lat="41.9638326" lon="13.4474872"><ele>966.0</ele><time>2026-03-29T06:59:52.416Z</time></trkpt><trkpt lat="41.9639044" lon="13.4474769"><ele>966.0</ele><time>2026-03-29T06:59:59.449Z</time></trkpt><trkpt lat="41.9639727" lon="13.447465"><ele>966.0</ele><time>2026-03-29T07:00:05.41Z</time></trkpt><trkpt lat="41.9640398" lon="13.4474479"><ele>966.0</ele><time>2026-03-29T07:00:11.412Z</time></trkpt><trkpt lat="41.9641125" lon="13.4474309"><ele>966.0</ele><time>2026-03-29T07:00:18.407Z</time></trkpt><trkpt lat="41.9641772" lon="13.4474138"><ele>966.0</ele><time>2026-03-29T07:00:24.407Z</time></trkpt><trkpt lat="41.9642417" lon="13.4474143"><ele>964.1428571428571</ele><time>2026-03-29T07:00:30.397Z</time></trkpt><trkpt lat="41.9643104" lon="13.4474208"><ele>962.2857142857142</ele><time>2026-03-29T07:00:37.402Z</time></trkpt><trkpt lat="41.9643726" lon="13.4473805"><ele>960.4285714285714</ele><time>2026-03-29T07:00:44.408Z</time></trkpt><trkpt lat="41.964436" lon="13.4473443"><ele>958.5714285714286</ele><time>2026-03-29T07:00:50.39Z</time></trkpt><trkpt lat="41.9645071" lon="13.4473196"><ele>956.7142857142857</ele><time>2026-03-29T07:00:56.404Z</time></trkpt><trkpt lat="41.9645672" lon="13.4472778"><ele>954.8571428571429</ele><time>2026-03-29T07:01:02.405Z</time></trkpt><trkpt lat="41.964632" lon="13.4472449"><ele>953.0</ele><time>2026-03-29T07:01:08.37Z</time></trkpt><trkpt lat="41.9647011" lon="13.4472078"><ele>953.0</ele><time>2026-03-29T07:01:14.404Z</time></trkpt><trkpt lat="41.964758" lon="13.4471563"><ele>953.0</ele><time>2026-03-29T07:01:20.405Z</time></trkpt><trkpt lat="41.9648052" lon="13.4470866"><ele>953.0</ele><time>2026-03-29T07:01:26.392Z</time></trkpt><trkpt lat="41.9648705" lon="13.4470578"><ele>953.0</ele><time>2026-03-29T07:01:33.404Z</time></trkpt><trkpt lat="41.9649275" lon="13.4470111"><ele>953.0</ele><time>2026-03-29T07:01:40.415Z</time></trkpt><trkpt lat="41.9649905" lon="13.4469664"><ele>953.0</ele><time>2026-03-29T07:01:46.334Z</time></trkpt><trkpt lat="41.965056" lon="13.4469279"><ele>953.0</ele><time>2026-03-29T07:01:52.405Z</time></trkpt><trkpt lat="41.9651101" lon="13.4468829"><ele>951.4285714285714</ele><time>2026-03-29T07:01:57.411Z</time></trkpt><trkpt lat="41.9651691" lon="13.4468407"><ele>949.8571428571429</ele><time>2026-03-29T07:02:02.438Z</time></trkpt><trkpt lat="41.9652241" lon="13.4467994"><ele>948.2857142857143</ele><time>2026-03-29T07:02:07.372Z</time></trkpt><trkpt lat="41.9652784" lon="13.4467441"><ele>946.7142857142858</ele><time>2026-03-29T07:02:13.415Z</time></trkpt><trkpt lat="41.9653267" lon="13.4466838"><ele>945.1428571428571</ele><time>2026-03-29T07:02:19.435Z</time></trkpt><trkpt lat="41.96536" lon="13.4466056"><ele>943.5714285714287</ele><time>2026-03-29T07:02:25.405Z</time></trkpt><trkpt lat="41.9653924" lon="13.4465178"><ele>942.0000000000001</ele><time>2026-03-29T07:02:31.408Z</time></trkpt><trkpt lat="41.9654073" lon="13.4464241"><ele>942.0000000000001</ele><time>2026-03-29T07:02:37.309Z</time></trkpt><trkpt lat="41.9654199" lon="13.446325"><ele>942.0</ele><time>2026-03-29T07:02:43.333Z</time></trkpt><trkpt lat="41.9654275" lon="13.4462316"><ele>942.0000000000001</ele><time>2026-03-29T07:02:49.377Z</time></trkpt><trkpt lat="41.9654643" lon="13.446162"><ele>942.0000000000001</ele><time>2026-03-29T07:02:54.359Z</time></trkpt><trkpt lat="41.9655282" lon="13.4461329"><ele>942.0</ele><time>2026-03-29T07:03:01.406Z</time></trkpt><trkpt lat="41.9655905" lon="13.4460973"><ele>942.0000000000001</ele><time>2026-03-29T07:03:10.42Z</time></trkpt><trkpt lat="41.9656339" lon="13.4460275"><ele>942.0000000000001</ele><time>2026-03-29T07:03:27.416Z</time></trkpt><trkpt lat="41.9656581" lon="13.4459349"><ele>942.0000000000001</ele><time>2026-03-29T07:03:34.406Z</time></trkpt><trkpt lat="41.9656898" lon="13.4458546"><ele>942.0</ele><time>2026-03-29T07:03:42.356Z</time></trkpt><trkpt lat="41.9657599" lon="13.4458348"><ele>942.0000000000001</ele><time>2026-03-29T07:03:53.317Z</time></trkpt><trkpt lat="41.9658085" lon="13.4459054"><ele>942.0000000000001</ele><time>2026-03-29T07:04:06.434Z</time></trkpt><trkpt lat="41.9657993" lon="13.4459979"><ele>942.0</ele><time>2026-03-29T07:04:13.409Z</time></trkpt><trkpt lat="41.9657777" lon="13.4460909"><ele>942.0000000000001</ele><time>2026-03-29T07:04:20.358Z</time></trkpt><trkpt lat="41.9657838" lon="13.4461754"><ele>942.0000000000001</ele><time>2026-03-29T07:04:26.447Z</time></trkpt><trkpt lat="41.9658438" lon="13.4462213"><ele>940.857142857143</ele><time>2026-03-29T07:04:32.417Z</time></trkpt><trkpt lat="41.9658987" lon="13.4462649"><ele>939.7142857142858</ele><time>2026-03-29T07:04:38.414Z</time></trkpt><trkpt lat="41.9659558" lon="13.4463068"><ele>938.5714285714286</ele><time>2026-03-29T07:04:44.448Z</time></trkpt><trkpt lat="41.9660146" lon="13.4463398"><ele>937.4285714285714</ele><time>2026-03-29T07:04:51.409Z</time></trkpt><trkpt lat="41.9660847" lon="13.4463217"><ele>936.2857142857142</ele><time>2026-03-29T07:04:58.473Z</time></trkpt><trkpt lat="41.9661564" lon="13.4463496"><ele>935.142857142857</ele><time>2026-03-29T07:05:05.405Z</time></trkpt><trkpt lat="41.9662262" lon="13.4463376"><ele>933.9999999999999</ele><time>2026-03-29T07:05:11.404Z</time></trkpt><trkpt lat="41.9662962" lon="13.4463351"><ele>933.9999999999999</ele><time>2026-03-29T07:05:18.373Z</time></trkpt><trkpt lat="41.9663627" lon="13.446355"><ele>934.0</ele><time>2026-03-29T07:05:24.404Z</time></trkpt><trkpt lat="41.9664353" lon="13.4463444"><ele>933.9999999999999</ele><time>2026-03-29T07:05:30.406Z</time></trkpt><trkpt lat="41.9664928" lon="13.446277"><ele>933.9999999999999</ele><time>2026-03-29T07:05:35.434Z</time></trkpt><trkpt lat="41.966543" lon="13.4462259"><ele>934.0</ele><time>2026-03-29T07:05:39.406Z</time></trkpt><trkpt lat="41.9666058" lon="13.4461764"><ele>933.9999999999999</ele><time>2026-03-29T07:05:44.408Z</time></trkpt><trkpt lat="41.9666604" lon="13.4461069"><ele>933.9999999999999</ele><time>2026-03-29T07:05:50.418Z</time></trkpt><trkpt lat="41.9666377" lon="13.4460179"><ele>933.9999999999999</ele><time>2026-03-29T07:05:55.446Z</time></trkpt><trkpt lat="41.9665911" lon="13.4459484"><ele>934.0</ele><time>2026-03-29T07:06:00.406Z</time></trkpt><trkpt lat="41.9665894" lon="13.4458476"><ele>933.9999999999999</ele><time>2026-03-29T07:06:07.419Z</time></trkpt><trkpt lat="41.9666022" lon="13.4457635"><ele>933.9999999999999</ele><time>2026-03-29T07:06:12.442Z</time></trkpt><trkpt lat="41.9666282" lon="13.4456707"><ele>934.0</ele><time>2026-03-29T07:06:18.407Z</time></trkpt><trkpt lat="41.9666143" lon="13.4455757"><ele>933.9999999999999</ele><time>2026-03-29T07:06:25.39Z</time></trkpt><trkpt lat="41.9665654" lon="13.4455062"><ele>933.9999999999999</ele><time>2026-03-29T07:06:32.349Z</time></trkpt><trkpt lat="41.9665453" lon="13.4454199"><ele>934.9999999999999</ele><time>2026-03-29T07:06:40.395Z</time></trkpt><trkpt lat="41.9665872" lon="13.4453387"><ele>936.0</ele><time>2026-03-29T07:06:46.433Z</time></trkpt><trkpt lat="41.9666429" lon="13.4452927"><ele>936.9999999999999</ele><time>2026-03-29T07:06:51.404Z</time></trkpt><trkpt lat="41.9667027" lon="13.4452509"><ele>937.9999999999999</ele><time>2026-03-29T07:06:58.41Z</time></trkpt><trkpt lat="41.9667642" lon="13.445226"><ele>939.0</ele><time>2026-03-29T07:07:05.44Z</time></trkpt><trkpt lat="41.966794" lon="13.4451369"><ele>939.9999999999999</ele><time>2026-03-29T07:07:13.406Z</time></trkpt><trkpt lat="41.9668164" lon="13.4450427"><ele>940.9999999999999</ele><time>2026-03-29T07:07:19.418Z</time></trkpt><trkpt lat="41.96683" lon="13.444953"><ele>941.142857142857</ele><time>2026-03-29T07:07:25.408Z</time></trkpt><trkpt lat="41.9668368" lon="13.4448519"><ele>941.2857142857142</ele><time>2026-03-29T07:07:32.408Z</time></trkpt><trkpt lat="41.9668506" lon="13.4447587"><ele>941.4285714285714</ele><time>2026-03-29T07:07:38.424Z</time></trkpt><trkpt lat="41.9668608" lon="13.4446623"><ele>941.5714285714286</ele><time>2026-03-29T07:07:44.407Z</time></trkpt><trkpt lat="41.9668535" lon="13.4445716"><ele>941.7142857142858</ele><time>2026-03-29T07:07:50.438Z</time></trkpt><trkpt lat="41.9668973" lon="13.4444966"><ele>941.857142857143</ele><time>2026-03-29T07:07:56.426Z</time></trkpt><trkpt lat="41.96695" lon="13.4444478"><ele>942.0000000000001</ele><time>2026-03-29T07:08:01.386Z</time></trkpt><trkpt lat="41.9670072" lon="13.4443825"><ele>942.0000000000001</ele><time>2026-03-29T07:08:07.312Z</time></trkpt><trkpt lat="41.967059" lon="13.4443336"><ele>942.0</ele><time>2026-03-29T07:08:13.436Z</time></trkpt><trkpt lat="41.9671085" lon="13.4442656"><ele>942.0000000000001</ele><time>2026-03-29T07:08:19.455Z</time></trkpt><trkpt lat="41.9671494" lon="13.4441861"><ele>942.0000000000001</ele><time>2026-03-29T07:08:25.406Z</time></trkpt><trkpt lat="41.9671803" lon="13.4441003"><ele>942.0</ele><time>2026-03-29T07:08:31.422Z</time></trkpt><trkpt lat="41.9672289" lon="13.4440319"><ele>942.0000000000001</ele><time>2026-03-29T07:08:37.452Z</time></trkpt><trkpt lat="41.9672786" lon="13.4439641"><ele>942.0000000000001</ele><time>2026-03-29T07:08:42.405Z</time></trkpt><trkpt lat="41.967318" lon="13.4438821"><ele>942.0000000000001</ele><time>2026-03-29T07:08:48.418Z</time></trkpt><trkpt lat="41.9673645" lon="13.4438212"><ele>942.0</ele><time>2026-03-29T07:08:53.408Z</time></trkpt><trkpt lat="41.9673927" lon="13.4437422"><ele>942.0000000000001</ele><time>2026-03-29T07:08:58.444Z</time></trkpt><trkpt lat="41.9674098" lon="13.4436534"><ele>942.0000000000001</ele><time>2026-03-29T07:09:03.407Z</time></trkpt><trkpt lat="41.9674171" lon="13.4435597"><ele>942.0</ele><time>2026-03-29T07:09:09.436Z</time></trkpt><trkpt lat="41.9674349" lon="13.4434747"><ele>942.0000000000001</ele><time>2026-03-29T07:09:14.407Z</time></trkpt><trkpt lat="41.9674641" lon="13.4433826"><ele>942.0000000000001</ele><time>2026-03-29T07:09:20.332Z</time></trkpt><trkpt lat="41.9675038" lon="13.4433156"><ele>943.0000000000001</ele><time>2026-03-29T07:09:25.425Z</time></trkpt><trkpt lat="41.9675674" lon="13.4432646"><ele>944.0</ele><time>2026-03-29T07:09:31.459Z</time></trkpt><trkpt lat="41.9676303" lon="13.4432192"><ele>945.0000000000001</ele><time>2026-03-29T07:09:38.414Z</time></trkpt><trkpt lat="41.9676868" lon="13.4431713"><ele>946.0000000000001</ele><time>2026-03-29T07:09:44.397Z</time></trkpt><trkpt lat="41.9677525" lon="13.4431307"><ele>947.0</ele><time>2026-03-29T07:09:50.403Z</time></trkpt><trkpt lat="41.9678064" lon="13.4430713"><ele>948.0000000000001</ele><time>2026-03-29T07:09:56.408Z</time></trkpt><trkpt lat="41.9678556" lon="13.4429974"><ele>949.0000000000001</ele><time>2026-03-29T07:10:02.381Z</time></trkpt><trkpt lat="41.96791" lon="13.4429406"><ele>947.0000000000001</ele><time>2026-03-29T07:10:08.408Z</time></trkpt><trkpt lat="41.9679621" lon="13.4428846"><ele>945.0</ele><time>2026-03-29T07:10:14.409Z</time></trkpt><trkpt lat="41.9680104" lon="13.4428288"><ele>943.0000000000001</ele><time>2026-03-29T07:10:20.333Z</time></trkpt><trkpt lat="41.9680638" lon="13.4427681"><ele>941.0000000000001</ele><time>2026-03-29T07:10:26.407Z</time></trkpt><trkpt lat="41.9681155" lon="13.4427011"><ele>939.0</ele><time>2026-03-29T07:10:32.408Z</time></trkpt><trkpt lat="41.9681558" lon="13.4426209"><ele>937.0000000000001</ele><time>2026-03-29T07:10:38.329Z</time></trkpt><trkpt lat="41.9681897" lon="13.4425384"><ele>935.0000000000001</ele><time>2026-03-29T07:10:44.41Z</time></trkpt><trkpt lat="41.9681924" lon="13.4424418"><ele>935.0000000000001</ele><time>2026-03-29T07:10:50.406Z</time></trkpt><trkpt lat="41.9681669" lon="13.4423521"><ele>935.0</ele><time>2026-03-29T07:10:56.432Z</time></trkpt><trkpt lat="41.9681338" lon="13.4422778"><ele>935.0000000000001</ele><time>2026-03-29T07:11:01.45Z</time></trkpt><trkpt lat="41.9681328" lon="13.4421804"><ele>935.0000000000001</ele><time>2026-03-29T07:11:07.408Z</time></trkpt><trkpt lat="41.9681699" lon="13.4420963"><ele>935.0</ele><time>2026-03-29T07:11:13.431Z</time></trkpt><trkpt lat="41.968226" lon="13.4420475"><ele>935.0000000000001</ele><time>2026-03-29T07:11:19.407Z</time></trkpt><trkpt lat="41.9682887" lon="13.4420392"><ele>935.0000000000001</ele><time>2026-03-29T07:11:25.411Z</time></trkpt><trkpt lat="41.9683575" lon="13.4420225"><ele>934.1428571428573</ele><time>2026-03-29T07:11:31.278Z</time></trkpt><trkpt lat="41.9684172" lon="13.4419836"><ele>933.2857142857143</ele><time>2026-03-29T07:11:37.406Z</time></trkpt><trkpt lat="41.9684781" lon="13.4419456"><ele>932.4285714285716</ele><time>2026-03-29T07:11:43.407Z</time></trkpt><trkpt lat="41.968543" lon="13.4419053"><ele>931.5714285714287</ele><time>2026-03-29T07:11:49.433Z</time></trkpt><trkpt lat="41.9686062" lon="13.4418592"><ele>930.7142857142858</ele><time>2026-03-29T07:11:55.407Z</time></trkpt><trkpt lat="41.9686735" lon="13.441815"><ele>929.8571428571429</ele><time>2026-03-29T07:12:01.409Z</time></trkpt><trkpt lat="41.968737" lon="13.4417983"><ele>929.0</ele><time>2026-03-29T07:12:06.429Z</time></trkpt><trkpt lat="41.9688028" lon="13.4417634"><ele>929.0</ele><time>2026-03-29T07:12:12.457Z</time></trkpt><trkpt lat="41.9688536" lon="13.4416883"><ele>929.0000000000001</ele><time>2026-03-29T07:12:18.406Z</time></trkpt><trkpt lat="41.9689207" lon="13.4416382"><ele>929.0</ele><time>2026-03-29T07:12:36.375Z</time></trkpt><trkpt lat="41.9689826" lon="13.4415998"><ele>929.0</ele><time>2026-03-29T07:12:41.392Z</time></trkpt><trkpt lat="41.9690504" lon="13.4415798"><ele>929.0000000000001</ele><time>2026-03-29T07:12:47.41Z</time></trkpt><trkpt lat="41.9691127" lon="13.4415365"><ele>929.0</ele><time>2026-03-29T07:12:53.404Z</time></trkpt><trkpt lat="41.9691771" lon="13.4415231"><ele>929.0</ele><time>2026-03-29T07:12:58.425Z</time></trkpt><trkpt lat="41.9692463" lon="13.4415009"><ele>928.0</ele><time>2026-03-29T07:13:04.408Z</time></trkpt><trkpt lat="41.969309" lon="13.4414615"><ele>927.0000000000001</ele><time>2026-03-29T07:13:10.408Z</time></trkpt><trkpt lat="41.9693696" lon="13.4414345"><ele>926.0</ele><time>2026-03-29T07:13:15.421Z</time></trkpt><trkpt lat="41.9694352" lon="13.441416"><ele>925.0</ele><time>2026-03-29T07:13:20.449Z</time></trkpt><trkpt lat="41.969506" lon="13.4414142"><ele>924.0000000000001</ele><time>2026-03-29T07:13:26.47Z</time></trkpt><trkpt lat="41.9695721" lon="13.441441"><ele>923.0</ele><time>2026-03-29T07:13:33.422Z</time></trkpt><trkpt lat="41.9696213" lon="13.4415057"><ele>922.0</ele><time>2026-03-29T07:13:38.411Z</time></trkpt><trkpt lat="41.9696759" lon="13.4415482"><ele>922.0</ele><time>2026-03-29T07:13:43.407Z</time></trkpt><trkpt lat="41.96974" lon="13.4415877"><ele>922.0000000000001</ele><time>2026-03-29T07:13:49.412Z</time></trkpt><trkpt lat="41.9698031" lon="13.4416029"><ele>922.0</ele><time>2026-03-29T07:13:55.446Z</time></trkpt><trkpt lat="41.9698639" lon="13.4416471"><ele>922.0</ele><time>2026-03-29T07:14:02.406Z</time></trkpt><trkpt lat="41.9699121" lon="13.441711"><ele>922.0000000000001</ele><time>2026-03-29T07:14:10.431Z</time></trkpt><trkpt lat="41.9699439" lon="13.4417969"><ele>922.0</ele><time>2026-03-29T07:14:17.404Z</time></trkpt><trkpt lat="41.9700011" lon="13.4418344"><ele>922.0</ele><time>2026-03-29T07:14:58.432Z</time></trkpt><trkpt lat="41.9700233" lon="13.4419142"><ele>922.1428571428572</ele><time>2026-03-29T07:15:02.47Z</time></trkpt><trkpt lat="41.97008" lon="13.4419526"><ele>922.2857142857144</ele><time>2026-03-29T07:15:08.403Z</time></trkpt><trkpt lat="41.9701273" lon="13.4420127"><ele>922.4285714285714</ele><time>2026-03-29T07:15:14.432Z</time></trkpt><trkpt lat="41.9701829" lon="13.442053"><ele>922.5714285714287</ele><time>2026-03-29T07:15:19.405Z</time></trkpt><trkpt lat="41.9702382" lon="13.4420996"><ele>922.7142857142858</ele><time>2026-03-29T07:15:24.403Z</time></trkpt><trkpt lat="41.9702955" lon="13.4421391"><ele>922.8571428571429</ele><time>2026-03-29T07:15:29.407Z</time></trkpt><trkpt lat="41.9703614" lon="13.4421771"><ele>923.0</ele><time>2026-03-29T07:15:35.419Z</time></trkpt><trkpt lat="41.9704318" lon="13.4421929"><ele>924.4285714285713</ele><time>2026-03-29T07:15:41.405Z</time></trkpt><trkpt lat="41.9704948" lon="13.4422037"><ele>925.8571428571429</ele><time>2026-03-29T07:15:47.407Z</time></trkpt><trkpt lat="41.9705639" lon="13.4422063"><ele>927.2857142857142</ele><time>2026-03-29T07:15:55.419Z</time></trkpt><trkpt lat="41.970626" lon="13.4422262"><ele>928.7142857142857</ele><time>2026-03-29T07:16:03.405Z</time></trkpt><trkpt lat="41.9706826" lon="13.4422668"><ele>930.1428571428571</ele><time>2026-03-29T07:16:11.324Z</time></trkpt><trkpt lat="41.9707237" lon="13.4423351"><ele>931.5714285714286</ele><time>2026-03-29T07:16:19.407Z</time></trkpt><trkpt lat="41.9707653" lon="13.4424058"><ele>933.0</ele><time>2026-03-29T07:16:26.411Z</time></trkpt><trkpt lat="41.9708261" lon="13.4424677"><ele>933.7142857142857</ele><time>2026-03-29T07:16:33.45Z</time></trkpt><trkpt lat="41.9708838" lon="13.4425303"><ele>934.4285714285713</ele><time>2026-03-29T07:16:40.406Z</time></trkpt><trkpt lat="41.9709424" lon="13.4425843"><ele>935.1428571428571</ele><time>2026-03-29T07:16:47.429Z</time></trkpt><trkpt lat="41.9709883" lon="13.4425239"><ele>935.8571428571429</ele><time>2026-03-29T07:16:54.455Z</time></trkpt><trkpt lat="41.9710555" lon="13.4425003"><ele>936.5714285714286</ele><time>2026-03-29T07:17:01.374Z</time></trkpt><trkpt lat="41.9711285" lon="13.4424906"><ele>937.2857142857142</ele><time>2026-03-29T07:17:08.414Z</time></trkpt><trkpt lat="41.9711929" lon="13.4425289"><ele>938.0</ele><time>2026-03-29T07:17:29.412Z</time></trkpt><trkpt lat="41.9712576" lon="13.4425437"><ele>938.0</ele><time>2026-03-29T07:17:34.406Z</time></trkpt><trkpt lat="41.9713016" lon="13.4424764"><ele>938.0</ele><time>2026-03-29T07:17:40.431Z</time></trkpt><trkpt lat="41.9712868" lon="13.4423859"><ele>938.0</ele><time>2026-03-29T07:17:46.409Z</time></trkpt><trkpt lat="41.9713547" lon="13.4423732"><ele>938.0</ele><time>2026-03-29T07:17:53.413Z</time></trkpt><trkpt lat="41.9714267" lon="13.4423538"><ele>938.0</ele><time>2026-03-29T07:18:39.409Z</time></trkpt><trkpt lat="41.9714893" lon="13.4423087"><ele>938.0</ele><time>2026-03-29T07:18:45.405Z</time></trkpt><trkpt lat="41.9715375" lon="13.4422438"><ele>938.0</ele><time>2026-03-29T07:18:51.436Z</time></trkpt><trkpt lat="41.9716089" lon="13.442244"><ele>938.0</ele><time>2026-03-29T07:18:58.407Z</time></trkpt><trkpt lat="41.9716721" lon="13.4422131"><ele>938.0</ele><time>2026-03-29T07:19:04.396Z</time></trkpt><trkpt lat="41.9717368" lon="13.4422047"><ele>938.0</ele><time>2026-03-29T07:19:10.445Z</time></trkpt><trkpt lat="41.9717967" lon="13.4421608"><ele>938.0</ele><time>2026-03-29T07:19:16.406Z</time></trkpt><trkpt lat="41.9718614" lon="13.4421312"><ele>938.0</ele><time>2026-03-29T07:19:22.412Z</time></trkpt><trkpt lat="41.9719278" lon="13.4421136"><ele>938.0</ele><time>2026-03-29T07:19:28.447Z</time></trkpt><trkpt lat="41.9719927" lon="13.4421015"><ele>938.0</ele><time>2026-03-29T07:19:34.405Z</time></trkpt><trkpt lat="41.9720515" lon="13.4420668"><ele>937.0</ele><time>2026-03-29T07:19:40.409Z</time></trkpt><trkpt lat="41.9720964" lon="13.4420073"><ele>936.0</ele><time>2026-03-29T07:19:45.413Z</time></trkpt><trkpt lat="41.9721612" lon="13.441968"><ele>935.0</ele><time>2026-03-29T07:19:51.332Z</time></trkpt><trkpt lat="41.9722233" lon="13.4419876"><ele>934.0</ele><time>2026-03-29T07:19:56.31Z</time></trkpt><trkpt lat="41.9722926" lon="13.4419987"><ele>933.0</ele><time>2026-03-29T07:20:03.446Z</time></trkpt><trkpt lat="41.9723576" lon="13.4419768"><ele>932.0</ele><time>2026-03-29T07:20:10.392Z</time></trkpt><trkpt lat="41.9724252" lon="13.4419876"><ele>931.0</ele><time>2026-03-29T07:20:17.425Z</time></trkpt><trkpt lat="41.972358" lon="13.4419857"><ele>931.0</ele><time>2026-03-29T07:20:57.407Z</time></trkpt><trkpt lat="41.9723097" lon="13.4420452"><ele>931.0</ele><time>2026-03-29T07:21:03.316Z</time></trkpt><trkpt lat="41.9722502" lon="13.4420911"><ele>931.0</ele><time>2026-03-29T07:21:09.426Z</time></trkpt><trkpt lat="41.9722104" lon="13.4421767"><ele>931.0</ele><time>2026-03-29T07:21:36.406Z</time></trkpt><trkpt lat="41.9722628" lon="13.4422426"><ele>931.0</ele><time>2026-03-29T07:22:46.411Z</time></trkpt><trkpt lat="41.9722992" lon="13.4423263"><ele>931.0</ele><time>2026-03-29T07:22:51.453Z</time></trkpt><trkpt lat="41.9723115" lon="13.4424214"><ele>931.0</ele><time>2026-03-29T07:22:57.406Z</time></trkpt><trkpt lat="41.9723097" lon="13.4425203"><ele>931.0</ele><time>2026-03-29T07:23:03.292Z</time></trkpt><trkpt lat="41.972301" lon="13.4426081"><ele>931.0</ele><time>2026-03-29T07:23:08.391Z</time></trkpt><trkpt lat="41.9722933" lon="13.442697"><ele>931.0</ele><time>2026-03-29T07:23:13.33Z</time></trkpt><trkpt lat="41.972281" lon="13.4427801"><ele>931.0</ele><time>2026-03-29T07:23:18.406Z</time></trkpt><trkpt lat="41.9722659" lon="13.4428739"><ele>931.0</ele><time>2026-03-29T07:23:24.418Z</time></trkpt><trkpt lat="41.9722254" lon="13.4429556"><ele>931.0</ele><time>2026-03-29T07:23:30.452Z</time></trkpt><trkpt lat="41.9722107" lon="13.4430398"><ele>931.0</ele><time>2026-03-29T07:23:35.411Z</time></trkpt><trkpt lat="41.9722206" lon="13.4431294"><ele>931.0</ele><time>2026-03-29T07:23:40.354Z</time></trkpt><trkpt lat="41.9722588" lon="13.4432081"><ele>931.0</ele><time>2026-03-29T07:23:45.408Z</time></trkpt><trkpt lat="41.9722948" lon="13.4432849"><ele>931.0</ele><time>2026-03-29T07:23:50.408Z</time></trkpt><trkpt lat="41.9722924" lon="13.4433777"><ele>931.0</ele><time>2026-03-29T07:23:55.409Z</time></trkpt><trkpt lat="41.9722748" lon="13.4434783"><ele>931.0</ele><time>2026-03-29T07:24:01.43Z</time></trkpt><trkpt lat="41.9722623" lon="13.4435768"><ele>931.0</ele><time>2026-03-29T07:24:07.409Z</time></trkpt><trkpt lat="41.9722576" lon="13.4436739"><ele>931.0</ele><time>2026-03-29T07:24:13.408Z</time></trkpt><trkpt lat="41.9722399" lon="13.4437593"><ele>929.5714285714286</ele><time>2026-03-29T07:24:18.454Z</time></trkpt><trkpt lat="41.972214" lon="13.4438489"><ele>928.1428571428571</ele><time>2026-03-29T07:24:24.408Z</time></trkpt><trkpt lat="41.9721829" lon="13.4439244"><ele>926.7142857142858</ele><time>2026-03-29T07:24:29.408Z</time></trkpt><trkpt lat="41.9721474" lon="13.4440107"><ele>925.2857142857143</ele><time>2026-03-29T07:24:35.425Z</time></trkpt><trkpt lat="41.972126" lon="13.4440909"><ele>923.8571428571429</ele><time>2026-03-29T07:24:40.453Z</time></trkpt><trkpt lat="41.9720935" lon="13.44418"><ele>922.4285714285716</ele><time>2026-03-29T07:24:46.408Z</time></trkpt><trkpt lat="41.9720719" lon="13.4442705"><ele>921.0000000000001</ele><time>2026-03-29T07:24:52.423Z</time></trkpt><trkpt lat="41.9720481" lon="13.4443542"><ele>921.0000000000001</ele><time>2026-03-29T07:24:57.451Z</time></trkpt><trkpt lat="41.9719809" lon="13.4443945"><ele>921.0</ele><time>2026-03-29T07:25:03.408Z</time></trkpt><trkpt lat="41.971917" lon="13.4444393"><ele>921.0000000000001</ele><time>2026-03-29T07:25:09.373Z</time></trkpt><trkpt lat="41.971868" lon="13.4445099"><ele>921.0000000000001</ele><time>2026-03-29T07:25:15.453Z</time></trkpt><trkpt lat="41.9718402" lon="13.4446007"><ele>921.0</ele><time>2026-03-29T07:25:21.407Z</time></trkpt><trkpt lat="41.9718" lon="13.4446778"><ele>921.0000000000001</ele><time>2026-03-29T07:25:27.421Z</time></trkpt><trkpt lat="41.9717883" lon="13.4447749"><ele>921.0000000000001</ele><time>2026-03-29T07:25:34.395Z</time></trkpt><trkpt lat="41.971782" lon="13.4448634"><ele>921.5714285714287</ele><time>2026-03-29T07:25:40.408Z</time></trkpt><trkpt lat="41.9717628" lon="13.4449581"><ele>922.1428571428571</ele><time>2026-03-29T07:25:46.467Z</time></trkpt><trkpt lat="41.9717104" lon="13.4450165"><ele>922.7142857142858</ele><time>2026-03-29T07:25:52.46Z</time></trkpt><trkpt lat="41.9716428" lon="13.445043"><ele>923.2857142857143</ele><time>2026-03-29T07:25:58.373Z</time></trkpt><trkpt lat="41.9715758" lon="13.4450572"><ele>923.8571428571429</ele><time>2026-03-29T07:26:04.467Z</time></trkpt><trkpt lat="41.9715199" lon="13.445001"><ele>924.4285714285714</ele><time>2026-03-29T07:26:11.41Z</time></trkpt><trkpt lat="41.9714683" lon="13.4449377"><ele>925.0</ele><time>2026-03-29T07:26:18.411Z</time></trkpt><trkpt lat="41.9714061" lon="13.4449042"><ele>925.0</ele><time>2026-03-29T07:26:25.409Z</time></trkpt><trkpt lat="41.9713424" lon="13.4448951"><ele>925.0</ele><time>2026-03-29T07:26:33.408Z</time></trkpt><trkpt lat="41.971289" lon="13.444846"><ele>925.0</ele><time>2026-03-29T07:26:39.437Z</time></trkpt><trkpt lat="41.9712426" lon="13.4447794"><ele>925.0</ele><time>2026-03-29T07:26:45.465Z</time></trkpt><trkpt lat="41.9712342" lon="13.4446909"><ele>925.0</ele><time>2026-03-29T07:26:51.313Z</time></trkpt><trkpt lat="41.9712399" lon="13.4446016"><ele>925.0</ele><time>2026-03-29T07:26:57.483Z</time></trkpt><trkpt lat="41.9712751" lon="13.4445153"><ele>925.0</ele><time>2026-03-29T07:27:04.317Z</time></trkpt><trkpt lat="41.9713038" lon="13.4444273"><ele>926.7142857142858</ele><time>2026-03-29T07:27:10.412Z</time></trkpt><trkpt lat="41.9712832" lon="13.4443459"><ele>928.4285714285713</ele><time>2026-03-29T07:27:16.441Z</time></trkpt><trkpt lat="41.9712356" lon="13.4442785"><ele>930.1428571428571</ele><time>2026-03-29T07:27:24.412Z</time></trkpt><trkpt lat="41.9711984" lon="13.4442077"><ele>931.8571428571429</ele><time>2026-03-29T07:27:32.296Z</time></trkpt><trkpt lat="41.9711533" lon="13.444137"><ele>933.5714285714287</ele><time>2026-03-29T07:27:39.408Z</time></trkpt><trkpt lat="41.9710951" lon="13.4440743"><ele>935.2857142857142</ele><time>2026-03-29T07:27:46.411Z</time></trkpt><trkpt lat="41.9710416" lon="13.4440267"><ele>937.0</ele><time>2026-03-29T07:27:52.346Z</time></trkpt><trkpt lat="41.9709765" lon="13.4439861"><ele>937.0</ele><time>2026-03-29T07:27:58.398Z</time></trkpt><trkpt lat="41.9709121" lon="13.4439539"><ele>937.0</ele><time>2026-03-29T07:28:04.413Z</time></trkpt><trkpt lat="41.9708472" lon="13.4439116"><ele>937.0</ele><time>2026-03-29T07:28:10.352Z</time></trkpt><trkpt lat="41.9707875" lon="13.4438723"><ele>937.0</ele><time>2026-03-29T07:28:15.409Z</time></trkpt><trkpt lat="41.9707177" lon="13.4438285"><ele>937.0</ele><time>2026-03-29T07:28:21.411Z</time></trkpt><trkpt lat="41.9706492" lon="13.4437895"><ele>937.0</ele><time>2026-03-29T07:28:27.444Z</time></trkpt><trkpt lat="41.9705893" lon="13.4437361"><ele>937.0</ele><time>2026-03-29T07:28:33.406Z</time></trkpt><trkpt lat="41.9705415" lon="13.443679"><ele>937.4285714285713</ele><time>2026-03-29T07:28:38.411Z</time></trkpt><trkpt lat="41.9705098" lon="13.4436027"><ele>937.8571428571429</ele><time>2026-03-29T07:28:43.436Z</time></trkpt><trkpt lat="41.9704606" lon="13.4435297"><ele>938.2857142857142</ele><time>2026-03-29T07:28:49.334Z</time></trkpt><trkpt lat="41.9704143" lon="13.4434632"><ele>938.7142857142857</ele><time>2026-03-29T07:28:55.406Z</time></trkpt><trkpt lat="41.9703621" lon="13.4434098"><ele>939.1428571428571</ele><time>2026-03-29T07:29:01.407Z</time></trkpt><trkpt lat="41.9703112" lon="13.4433537"><ele>939.5714285714286</ele><time>2026-03-29T07:29:07.412Z</time></trkpt><trkpt lat="41.9702537" lon="13.4433086"><ele>940.0</ele><time>2026-03-29T07:29:13.269Z</time></trkpt><trkpt lat="41.9701887" lon="13.4432708"><ele>940.0</ele><time>2026-03-29T07:29:19.454Z</time></trkpt><trkpt lat="41.9701241" lon="13.4432293"><ele>939.9999999999999</ele><time>2026-03-29T07:29:26.408Z</time></trkpt><trkpt lat="41.9700624" lon="13.4431857"><ele>940.0</ele><time>2026-03-29T07:29:32.414Z</time></trkpt><trkpt lat="41.9700052" lon="13.4431395"><ele>940.0</ele><time>2026-03-29T07:29:38.447Z</time></trkpt><trkpt lat="41.9700124" lon="13.4430537"><ele>939.9999999999999</ele><time>2026-03-29T07:29:43.406Z</time></trkpt><trkpt lat="41.9700246" lon="13.4429543"><ele>940.0</ele><time>2026-03-29T07:29:49.409Z</time></trkpt><trkpt lat="41.9700728" lon="13.4428786"><ele>940.0</ele><time>2026-03-29T07:29:55.443Z</time></trkpt><trkpt lat="41.9701243" lon="13.4428133"><ele>939.0</ele><time>2026-03-29T07:30:01.411Z</time></trkpt><trkpt lat="41.9701931" lon="13.4427819"><ele>937.9999999999999</ele><time>2026-03-29T07:30:09.425Z</time></trkpt><trkpt lat="41.970235" lon="13.4427036"><ele>937.0</ele><time>2026-03-29T07:30:14.405Z</time></trkpt><trkpt lat="41.9702624" lon="13.4426185"><ele>936.0</ele><time>2026-03-29T07:30:21.407Z</time></trkpt><trkpt lat="41.9702601" lon="13.4425237"><ele>934.9999999999999</ele><time>2026-03-29T07:30:28.434Z</time></trkpt><trkpt lat="41.9702528" lon="13.4424243"><ele>934.0</ele><time>2026-03-29T07:30:34.457Z</time></trkpt><trkpt lat="41.9702466" lon="13.4423348"><ele>933.0</ele><time>2026-03-29T07:30:40.405Z</time></trkpt><trkpt lat="41.9702548" lon="13.4422397"><ele>933.0</ele><time>2026-03-29T07:30:46.41Z</time></trkpt><trkpt lat="41.9702388" lon="13.442157"><ele>932.9999999999999</ele><time>2026-03-29T07:30:51.372Z</time></trkpt><trkpt lat="41.9701914" lon="13.4420995"><ele>933.0</ele><time>2026-03-29T07:30:56.412Z</time></trkpt><trkpt lat="41.9701381" lon="13.4420459"><ele>933.0</ele><time>2026-03-29T07:31:01.423Z</time></trkpt><trkpt lat="41.9700965" lon="13.4419714"><ele>932.9999999999999</ele><time>2026-03-29T07:31:06.451Z</time></trkpt><trkpt lat="41.970044" lon="13.4419032"><ele>933.0</ele><time>2026-03-29T07:31:12.407Z</time></trkpt><trkpt lat="41.9699937" lon="13.4418412"><ele>933.0</ele><time>2026-03-29T07:31:18.419Z</time></trkpt><trkpt lat="41.9699485" lon="13.441771"><ele>931.4285714285713</ele><time>2026-03-29T07:31:24.454Z</time></trkpt><trkpt lat="41.9698898" lon="13.441719"><ele>929.8571428571428</ele><time>2026-03-29T07:31:31.41Z</time></trkpt><trkpt lat="41.9698197" lon="13.4416851"><ele>928.2857142857142</ele><time>2026-03-29T07:31:41.317Z</time></trkpt><trkpt lat="41.9697663" lon="13.4416239"><ele>926.7142857142858</ele><time>2026-03-29T07:31:48.413Z</time></trkpt><trkpt lat="41.9697074" lon="13.4415839"><ele>925.1428571428572</ele><time>2026-03-29T07:31:54.472Z</time></trkpt><trkpt lat="41.9696426" lon="13.4415452"><ele>923.5714285714287</ele><time>2026-03-29T07:32:01.411Z</time></trkpt><trkpt lat="41.969576" lon="13.4415158"><ele>922.0</ele><time>2026-03-29T07:32:07.354Z</time></trkpt><trkpt lat="41.9695075" lon="13.4415374"><ele>922.0</ele><time>2026-03-29T07:32:13.41Z</time></trkpt><trkpt lat="41.9694844" lon="13.4416171"><ele>922.0000000000001</ele><time>2026-03-29T07:32:18.406Z</time></trkpt><trkpt lat="41.9694215" lon="13.4416498"><ele>922.0</ele><time>2026-03-29T07:32:24.408Z</time></trkpt><trkpt lat="41.9693641" lon="13.4415993"><ele>922.0</ele><time>2026-03-29T07:32:31.436Z</time></trkpt><trkpt lat="41.9692965" lon="13.4416196"><ele>922.0000000000001</ele><time>2026-03-29T07:32:38.412Z</time></trkpt><trkpt lat="41.9692337" lon="13.4416072"><ele>922.0</ele><time>2026-03-29T07:32:44.41Z</time></trkpt><trkpt lat="41.96917" lon="13.4416492"><ele>922.0</ele><time>2026-03-29T07:32:50.318Z</time></trkpt><trkpt lat="41.9691042" lon="13.4416913"><ele>923.0</ele><time>2026-03-29T07:32:56.408Z</time></trkpt><trkpt lat="41.9690388" lon="13.4417082"><ele>924.0000000000001</ele><time>2026-03-29T07:33:01.353Z</time></trkpt><trkpt lat="41.9689687" lon="13.4417013"><ele>925.0</ele><time>2026-03-29T07:33:07.442Z</time></trkpt><trkpt lat="41.9689057" lon="13.441718"><ele>926.0</ele><time>2026-03-29T07:33:12.356Z</time></trkpt><trkpt lat="41.9688364" lon="13.4417184"><ele>927.0000000000001</ele><time>2026-03-29T07:33:18.407Z</time></trkpt><trkpt lat="41.9687691" lon="13.4417586"><ele>928.0</ele><time>2026-03-29T07:33:24.332Z</time></trkpt><trkpt lat="41.9687114" lon="13.441802"><ele>929.0</ele><time>2026-03-29T07:33:30.414Z</time></trkpt><trkpt lat="41.9686515" lon="13.4418527"><ele>929.0</ele><time>2026-03-29T07:33:36.412Z</time></trkpt><trkpt lat="41.9685921" lon="13.4418908"><ele>929.0000000000001</ele><time>2026-03-29T07:33:41.434Z</time></trkpt><trkpt lat="41.9685221" lon="13.4418847"><ele>929.0</ele><time>2026-03-29T07:33:47.409Z</time></trkpt><trkpt lat="41.9684597" lon="13.4419391"><ele>929.0</ele><time>2026-03-29T07:33:53.409Z</time></trkpt><trkpt lat="41.9683992" lon="13.4419644"><ele>929.0000000000001</ele><time>2026-03-29T07:33:58.431Z</time></trkpt><trkpt lat="41.9683362" lon="13.4420055"><ele>929.0</ele><time>2026-03-29T07:34:04.414Z</time></trkpt><trkpt lat="41.9682695" lon="13.4420307"><ele>929.0</ele><time>2026-03-29T07:34:10.41Z</time></trkpt><trkpt lat="41.9681968" lon="13.4420529"><ele>929.8571428571429</ele><time>2026-03-29T07:34:16.468Z</time></trkpt><trkpt lat="41.9681387" lon="13.4421039"><ele>930.7142857142858</ele><time>2026-03-29T07:34:23.489Z</time></trkpt><trkpt lat="41.9681161" lon="13.4421895"><ele>931.5714285714287</ele><time>2026-03-29T07:34:30.413Z</time></trkpt><trkpt lat="41.9681241" lon="13.4422813"><ele>932.4285714285716</ele><time>2026-03-29T07:34:36.447Z</time></trkpt><trkpt lat="41.9681442" lon="13.4423699"><ele>933.2857142857143</ele><time>2026-03-29T07:34:42.41Z</time></trkpt><trkpt lat="41.9681574" lon="13.4424561"><ele>934.1428571428573</ele><time>2026-03-29T07:34:47.413Z</time></trkpt><trkpt lat="41.9681428" lon="13.442541"><ele>935.0000000000001</ele><time>2026-03-29T07:34:52.412Z</time></trkpt><trkpt lat="41.9681214" lon="13.4426234"><ele>935.0000000000001</ele><time>2026-03-29T07:34:57.409Z</time></trkpt><trkpt lat="41.9680773" lon="13.4426868"><ele>935.0</ele><time>2026-03-29T07:35:02.408Z</time></trkpt><trkpt lat="41.9680218" lon="13.4427504"><ele>935.0000000000001</ele><time>2026-03-29T07:35:08.429Z</time></trkpt><trkpt lat="41.9679672" lon="13.4428072"><ele>935.0000000000001</ele><time>2026-03-29T07:35:14.443Z</time></trkpt><trkpt lat="41.9679057" lon="13.4428447"><ele>935.0</ele><time>2026-03-29T07:35:20.411Z</time></trkpt><trkpt lat="41.9678521" lon="13.4429074"><ele>935.0000000000001</ele><time>2026-03-29T07:35:26.338Z</time></trkpt><trkpt lat="41.9677917" lon="13.4429631"><ele>935.0000000000001</ele><time>2026-03-29T07:35:32.409Z</time></trkpt><trkpt lat="41.9677402" lon="13.4430174"><ele>935.857142857143</ele><time>2026-03-29T07:35:38.409Z</time></trkpt><trkpt lat="41.9676896" lon="13.4430832"><ele>936.7142857142858</ele><time>2026-03-29T07:35:44.434Z</time></trkpt><trkpt lat="41.9676335" lon="13.4431371"><ele>937.5714285714286</ele><time>2026-03-29T07:35:50.374Z</time></trkpt><trkpt lat="41.9675826" lon="13.4431946"><ele>938.4285714285714</ele><time>2026-03-29T07:35:56.409Z</time></trkpt><trkpt lat="41.967525" lon="13.4432358"><ele>939.2857142857142</ele><time>2026-03-29T07:36:02.436Z</time></trkpt><trkpt lat="41.9674733" lon="13.4432906"><ele>940.142857142857</ele><time>2026-03-29T07:36:08.412Z</time></trkpt><trkpt lat="41.9674333" lon="13.4433639"><ele>940.9999999999999</ele><time>2026-03-29T07:36:14.41Z</time></trkpt><trkpt lat="41.9674127" lon="13.4434475"><ele>940.9999999999999</ele><time>2026-03-29T07:36:20.439Z</time></trkpt><trkpt lat="41.9673908" lon="13.4435366"><ele>941.0</ele><time>2026-03-29T07:36:26.41Z</time></trkpt><trkpt lat="41.9673783" lon="13.4436317"><ele>940.9999999999999</ele><time>2026-03-29T07:36:32.409Z</time></trkpt><trkpt lat="41.9673666" lon="13.4437218"><ele>940.9999999999999</ele><time>2026-03-29T07:36:38.44Z</time></trkpt><trkpt lat="41.9673494" lon="13.4438051"><ele>941.0</ele><time>2026-03-29T07:36:44.389Z</time></trkpt><trkpt lat="41.9673138" lon="13.4438856"><ele>940.9999999999999</ele><time>2026-03-29T07:36:50.475Z</time></trkpt><trkpt lat="41.9672639" lon="13.4439491"><ele>940.9999999999999</ele><time>2026-03-29T07:36:56.443Z</time></trkpt><trkpt lat="41.96722" lon="13.4440196"><ele>941.142857142857</ele><time>2026-03-29T07:37:02.405Z</time></trkpt><trkpt lat="41.967183" lon="13.4440997"><ele>941.2857142857142</ele><time>2026-03-29T07:37:08.412Z</time></trkpt><trkpt lat="41.967144" lon="13.4441731"><ele>941.4285714285714</ele><time>2026-03-29T07:37:14.445Z</time></trkpt><trkpt lat="41.9671047" lon="13.4442525"><ele>941.5714285714286</ele><time>2026-03-29T07:37:20.434Z</time></trkpt><trkpt lat="41.9670511" lon="13.4443119"><ele>941.7142857142858</ele><time>2026-03-29T07:37:26.413Z</time></trkpt><trkpt lat="41.9669879" lon="13.4443486"><ele>941.857142857143</ele><time>2026-03-29T07:37:32.447Z</time></trkpt><trkpt lat="41.9669257" lon="13.4443979"><ele>942.0000000000001</ele><time>2026-03-29T07:37:38.438Z</time></trkpt><trkpt lat="41.9668683" lon="13.4444512"><ele>942.0000000000001</ele><time>2026-03-29T07:37:44.415Z</time></trkpt><trkpt lat="41.9668319" lon="13.4445208"><ele>942.0</ele><time>2026-03-29T07:37:49.444Z</time></trkpt><trkpt lat="41.9668329" lon="13.4446146"><ele>942.0000000000001</ele><time>2026-03-29T07:37:55.408Z</time></trkpt><trkpt lat="41.9668354" lon="13.444713"><ele>942.0000000000001</ele><time>2026-03-29T07:38:02.332Z</time></trkpt><trkpt lat="41.9668247" lon="13.4448101"><ele>942.0</ele><time>2026-03-29T07:38:09.411Z</time></trkpt><trkpt lat="41.9668086" lon="13.4449004"><ele>942.0000000000001</ele><time>2026-03-29T07:38:15.338Z</time></trkpt><trkpt lat="41.9668006" lon="13.4449856"><ele>942.0000000000001</ele><time>2026-03-29T07:38:20.437Z</time></trkpt><trkpt lat="41.9667625" lon="13.4450606"><ele>941.857142857143</ele><time>2026-03-29T07:38:26.454Z</time></trkpt><trkpt lat="41.9667191" lon="13.4451225"><ele>941.7142857142858</ele><time>2026-03-29T07:38:32.408Z</time></trkpt><trkpt lat="41.9666692" lon="13.4451757"><ele>941.5714285714286</ele><time>2026-03-29T07:38:38.418Z</time></trkpt><trkpt lat="41.9666081" lon="13.4452128"><ele>941.4285714285714</ele><time>2026-03-29T07:38:45.411Z</time></trkpt><trkpt lat="41.9665688" lon="13.4452836"><ele>941.2857142857142</ele><time>2026-03-29T07:38:54.359Z</time></trkpt><trkpt lat="41.9665495" lon="13.4453768"><ele>941.142857142857</ele><time>2026-03-29T07:39:02.374Z</time></trkpt><trkpt lat="41.9665648" lon="13.4454618"><ele>940.9999999999999</ele><time>2026-03-29T07:39:08.406Z</time></trkpt><trkpt lat="41.9665966" lon="13.4455366"><ele>939.9999999999999</ele><time>2026-03-29T07:39:14.372Z</time></trkpt><trkpt lat="41.9666135" lon="13.4456227"><ele>939.0</ele><time>2026-03-29T07:39:21.412Z</time></trkpt><trkpt lat="41.9666098" lon="13.4457134"><ele>937.9999999999999</ele><time>2026-03-29T07:39:28.409Z</time></trkpt><trkpt lat="41.9666108" lon="13.4458012"><ele>936.9999999999999</ele><time>2026-03-29T07:39:34.442Z</time></trkpt><trkpt lat="41.9666087" lon="13.4458903"><ele>936.0</ele><time>2026-03-29T07:39:40.467Z</time></trkpt><trkpt lat="41.9666035" lon="13.4459812"><ele>934.9999999999999</ele><time>2026-03-29T07:39:49.371Z</time></trkpt><trkpt lat="41.9666351" lon="13.4460599"><ele>933.9999999999999</ele><time>2026-03-29T07:39:55.41Z</time></trkpt><trkpt lat="41.9665976" lon="13.4461322"><ele>933.9999999999999</ele><time>2026-03-29T07:40:06.424Z</time></trkpt><trkpt lat="41.9665292" lon="13.446178"><ele>934.0</ele><time>2026-03-29T07:40:12.411Z</time></trkpt><trkpt lat="41.9664669" lon="13.4462344"><ele>933.9999999999999</ele><time>2026-03-29T07:40:18.437Z</time></trkpt><trkpt lat="41.9664149" lon="13.4462829"><ele>933.9999999999999</ele><time>2026-03-29T07:40:25.432Z</time></trkpt><trkpt lat="41.9663479" lon="13.4462855"><ele>934.0</ele><time>2026-03-29T07:40:30.411Z</time></trkpt><trkpt lat="41.9662855" lon="13.4462723"><ele>933.9999999999999</ele><time>2026-03-29T07:40:36.439Z</time></trkpt><trkpt lat="41.966223" lon="13.4462574"><ele>933.9999999999999</ele><time>2026-03-29T07:40:41.422Z</time></trkpt><trkpt lat="41.9661604" lon="13.4462794"><ele>933.7142857142856</ele><time>2026-03-29T07:40:47.409Z</time></trkpt><trkpt lat="41.9660952" lon="13.4463189"><ele>933.4285714285713</ele><time>2026-03-29T07:40:54.409Z</time></trkpt><trkpt lat="41.9660259" lon="13.4463705"><ele>933.1428571428571</ele><time>2026-03-29T07:41:02.441Z</time></trkpt><trkpt lat="41.9659579" lon="13.4463381"><ele>932.8571428571428</ele><time>2026-03-29T07:41:08.431Z</time></trkpt><trkpt lat="41.9658928" lon="13.4463163"><ele>932.5714285714284</ele><time>2026-03-29T07:41:14.337Z</time></trkpt><trkpt lat="41.9658345" lon="13.4462751"><ele>932.2857142857143</ele><time>2026-03-29T07:41:21.408Z</time></trkpt><trkpt lat="41.9657976" lon="13.4462057"><ele>932.0</ele><time>2026-03-29T07:41:28.409Z</time></trkpt><trkpt lat="41.9657956" lon="13.4461106"><ele>933.4285714285714</ele><time>2026-03-29T07:41:35.433Z</time></trkpt><trkpt lat="41.965799" lon="13.4460151"><ele>934.8571428571429</ele><time>2026-03-29T07:41:42.335Z</time></trkpt><trkpt lat="41.9657758" lon="13.4459343"><ele>936.2857142857143</ele><time>2026-03-29T07:41:49.333Z</time></trkpt><trkpt lat="41.9657288" lon="13.4458717"><ele>937.7142857142858</ele><time>2026-03-29T07:41:56.409Z</time></trkpt><trkpt lat="41.9656839" lon="13.445947"><ele>939.1428571428571</ele><time>2026-03-29T07:42:05.415Z</time></trkpt><trkpt lat="41.965667" lon="13.4460312"><ele>940.5714285714287</ele><time>2026-03-29T07:42:15.331Z</time></trkpt><trkpt lat="41.9656277" lon="13.4461009"><ele>942.0000000000001</ele><time>2026-03-29T07:42:28.43Z</time></trkpt><trkpt lat="41.9655969" lon="13.44618"><ele>942.0000000000001</ele><time>2026-03-29T07:42:38.409Z</time></trkpt><trkpt lat="41.9656157" lon="13.4460984"><ele>942.0</ele><time>2026-03-29T07:43:08.457Z</time></trkpt><trkpt lat="41.9655953" lon="13.4460148"><ele>942.0000000000001</ele><time>2026-03-29T07:43:18.414Z</time></trkpt><trkpt lat="41.9655267" lon="13.446023"><ele>942.0000000000001</ele><time>2026-03-29T07:43:29.414Z</time></trkpt><trkpt lat="41.9654771" lon="13.4460906"><ele>942.0</ele><time>2026-03-29T07:43:36.416Z</time></trkpt><trkpt lat="41.965432" lon="13.4461551"><ele>942.0000000000001</ele><time>2026-03-29T07:43:44.358Z</time></trkpt><trkpt lat="41.9654049" lon="13.4462452"><ele>942.0000000000001</ele><time>2026-03-29T07:43:52.432Z</time></trkpt><trkpt lat="41.9653993" lon="13.4463383"><ele>942.0000000000001</ele><time>2026-03-29T07:43:57.351Z</time></trkpt><trkpt lat="41.9653784" lon="13.4464309"><ele>942.0</ele><time>2026-03-29T07:44:03.456Z</time></trkpt><trkpt lat="41.9653492" lon="13.4465165"><ele>942.0000000000001</ele><time>2026-03-29T07:44:09.41Z</time></trkpt><trkpt lat="41.9653119" lon="13.446597"><ele>942.0000000000001</ele><time>2026-03-29T07:44:16.444Z</time></trkpt><trkpt lat="41.9652768" lon="13.446681"><ele>942.0</ele><time>2026-03-29T07:44:23.408Z</time></trkpt><trkpt lat="41.965232" lon="13.4467527"><ele>942.0000000000001</ele><time>2026-03-29T07:44:30.423Z</time></trkpt><trkpt lat="41.9651878" lon="13.4468221"><ele>942.0000000000001</ele><time>2026-03-29T07:44:37.437Z</time></trkpt><trkpt lat="41.9651396" lon="13.4468944"><ele>942.0000000000001</ele><time>2026-03-29T07:44:45.454Z</time></trkpt><trkpt lat="41.9650788" lon="13.4469437"><ele>942.0</ele><time>2026-03-29T07:44:55.415Z</time></trkpt><trkpt lat="41.9650089" lon="13.4469606"><ele>942.0000000000001</ele><time>2026-03-29T07:45:02.409Z</time></trkpt><trkpt lat="41.9649626" lon="13.4470329"><ele>942.0000000000001</ele><time>2026-03-29T07:45:10.416Z</time></trkpt><trkpt lat="41.9649033" lon="13.447082"><ele>942.0</ele><time>2026-03-29T07:45:19.336Z</time></trkpt><trkpt lat="41.9648385" lon="13.4471162"><ele>942.0000000000001</ele><time>2026-03-29T07:45:26.375Z</time></trkpt><trkpt lat="41.9647802" lon="13.4471562"><ele>942.0000000000001</ele><time>2026-03-29T07:45:33.413Z</time></trkpt><trkpt lat="41.9647173" lon="13.4471795"><ele>943.5714285714287</ele><time>2026-03-29T07:45:40.421Z</time></trkpt><trkpt lat="41.964652" lon="13.4472012"><ele>945.1428571428571</ele><time>2026-03-29T07:45:49.411Z</time></trkpt><trkpt lat="41.9645774" lon="13.4472096"><ele>946.7142857142858</ele><time>2026-03-29T07:45:55.351Z</time></trkpt><trkpt lat="41.9645095" lon="13.447235"><ele>948.2857142857143</ele><time>2026-03-29T07:46:00.435Z</time></trkpt><trkpt lat="41.9644489" lon="13.4472621"><ele>949.8571428571429</ele><time>2026-03-29T07:46:06.413Z</time></trkpt><trkpt lat="41.9643833" lon="13.4472822"><ele>951.4285714285714</ele><time>2026-03-29T07:46:11.472Z</time></trkpt><trkpt lat="41.9643247" lon="13.4473247"><ele>953.0</ele><time>2026-03-29T07:46:19.336Z</time></trkpt><trkpt lat="41.9642521" lon="13.4473075"><ele>954.8571428571429</ele><time>2026-03-29T07:46:27.316Z</time></trkpt><trkpt lat="41.9641833" lon="13.4473298"><ele>956.7142857142857</ele><time>2026-03-29T07:46:33.422Z</time></trkpt><trkpt lat="41.9641214" lon="13.4473786"><ele>958.5714285714286</ele><time>2026-03-29T07:46:40.41Z</time></trkpt><trkpt lat="41.9640603" lon="13.4474061"><ele>960.4285714285714</ele><time>2026-03-29T07:46:49.413Z</time></trkpt><trkpt lat="41.963997" lon="13.4474227"><ele>962.2857142857142</ele><time>2026-03-29T07:46:55.446Z</time></trkpt><trkpt lat="41.9639257" lon="13.4474293"><ele>964.1428571428571</ele><time>2026-03-29T07:47:03.478Z</time></trkpt><trkpt lat="41.9638604" lon="13.4474168"><ele>966.0</ele><time>2026-03-29T07:47:20.152Z</time></trkpt><trkpt lat="41.9637897" lon="13.4474367"><ele>966.0</ele><time>2026-03-29T07:47:26.437Z</time></trkpt><trkpt lat="41.9637245" lon="13.4474243"><ele>966.0</ele><time>2026-03-29T07:47:32.409Z</time></trkpt><trkpt lat="41.9636664" lon="13.447471"><ele>966.0</ele><time>2026-03-29T07:47:39.41Z</time></trkpt><trkpt lat="41.963666" lon="13.4475645"><ele>966.0</ele><time>2026-03-29T07:47:46.437Z</time></trkpt><trkpt lat="41.9636396" lon="13.4476543"><ele>966.0</ele><time>2026-03-29T07:47:52.412Z</time></trkpt><trkpt lat="41.9636105" lon="13.4477412"><ele>966.0</ele><time>2026-03-29T07:47:57.468Z</time></trkpt><trkpt lat="41.9636239" lon="13.4478279"><ele>966.0</ele><time>2026-03-29T07:48:03.433Z</time></trkpt><trkpt lat="41.9636704" lon="13.4478915"><ele>965.8571428571429</ele><time>2026-03-29T07:48:09.409Z</time></trkpt><trkpt lat="41.9637245" lon="13.4479745"><ele>965.7142857142858</ele><time>2026-03-29T07:48:26.39Z</time></trkpt><trkpt lat="41.9637557" lon="13.4480632"><ele>965.5714285714286</ele><time>2026-03-29T07:48:32.413Z</time></trkpt><trkpt lat="41.9637753" lon="13.4481482"><ele>965.4285714285714</ele><time>2026-03-29T07:48:39.454Z</time></trkpt><trkpt lat="41.9637992" lon="13.448228"><ele>965.2857142857143</ele><time>2026-03-29T07:48:46.411Z</time></trkpt><trkpt lat="41.9638167" lon="13.4483208"><ele>965.1428571428571</ele><time>2026-03-29T07:48:53.421Z</time></trkpt><trkpt lat="41.9638388" lon="13.4484267"><ele>965.0</ele><time>2026-03-29T07:49:11.409Z</time></trkpt><trkpt lat="41.9638561" lon="13.448514"><ele>965.0</ele><time>2026-03-29T07:49:16.38Z</time></trkpt><trkpt lat="41.9638528" lon="13.4486003"><ele>965.0</ele><time>2026-03-29T07:49:21.316Z</time></trkpt><trkpt lat="41.9638696" lon="13.4486871"><ele>965.0</ele><time>2026-03-29T07:49:26.411Z</time></trkpt><trkpt lat="41.9639123" lon="13.4487638"><ele>965.0</ele><time>2026-03-29T07:49:32.445Z</time></trkpt><trkpt lat="41.9639473" lon="13.44884"><ele>965.0</ele><time>2026-03-29T07:49:38.409Z</time></trkpt><trkpt lat="41.9639666" lon="13.4489346"><ele>965.0</ele><time>2026-03-29T07:49:44.342Z</time></trkpt><trkpt lat="41.9639614" lon="13.4490191"><ele>965.0</ele><time>2026-03-29T07:49:50.449Z</time></trkpt><trkpt lat="41.9639288" lon="13.4490925"><ele>965.7142857142857</ele><time>2026-03-29T07:49:55.311Z</time></trkpt><trkpt lat="41.9638803" lon="13.4491646"><ele>966.4285714285716</ele><time>2026-03-29T07:50:01.467Z</time></trkpt><trkpt lat="41.9638418" lon="13.4492374"><ele>967.1428571428572</ele><time>2026-03-29T07:50:08.451Z</time></trkpt><trkpt lat="41.9637974" lon="13.4493193"><ele>967.8571428571429</ele><time>2026-03-29T07:50:15.412Z</time></trkpt><trkpt lat="41.9637467" lon="13.4493994"><ele>968.5714285714287</ele><time>2026-03-29T07:50:22.43Z</time></trkpt><trkpt lat="41.9636713" lon="13.4494395"><ele>969.2857142857144</ele><time>2026-03-29T07:50:28.408Z</time></trkpt><trkpt lat="41.9636023" lon="13.4494574"><ele>970.0000000000001</ele><time>2026-03-29T07:50:33.397Z</time></trkpt><trkpt lat="41.9635486" lon="13.4493975"><ele>970.0000000000001</ele><time>2026-03-29T07:50:39.428Z</time></trkpt><trkpt lat="41.9634954" lon="13.4493422"><ele>970.0</ele><time>2026-03-29T07:50:45.456Z</time></trkpt><trkpt lat="41.9634339" lon="13.4493197"><ele>970.0000000000001</ele><time>2026-03-29T07:50:51.416Z</time></trkpt><trkpt lat="41.9633723" lon="13.4492905"><ele>970.0000000000001</ele><time>2026-03-29T07:50:57.335Z</time></trkpt><trkpt lat="41.9632987" lon="13.4493071"><ele>970.0</ele><time>2026-03-29T07:51:04.476Z</time></trkpt><trkpt lat="41.9632284" lon="13.4493102"><ele>970.0000000000001</ele><time>2026-03-29T07:51:10.337Z</time></trkpt><trkpt lat="41.9631809" lon="13.4492508"><ele>970.0000000000001</ele><time>2026-03-29T07:51:14.426Z</time></trkpt><trkpt lat="41.9631448" lon="13.4491759"><ele>971.2857142857144</ele><time>2026-03-29T07:51:19.348Z</time></trkpt><trkpt lat="41.9630885" lon="13.4491369"><ele>972.5714285714287</ele><time>2026-03-29T07:51:25.411Z</time></trkpt><trkpt lat="41.9630182" lon="13.4491168"><ele>973.8571428571429</ele><time>2026-03-29T07:51:31.318Z</time></trkpt><trkpt lat="41.9629523" lon="13.4491419"><ele>975.1428571428572</ele><time>2026-03-29T07:51:37.417Z</time></trkpt><trkpt lat="41.9628969" lon="13.4491892"><ele>976.4285714285716</ele><time>2026-03-29T07:51:42.416Z</time></trkpt><trkpt lat="41.9628431" lon="13.4492425"><ele>977.7142857142857</ele><time>2026-03-29T07:51:47.298Z</time></trkpt><trkpt lat="41.9628066" lon="13.4493131"><ele>979.0</ele><time>2026-03-29T07:51:52.413Z</time></trkpt><trkpt lat="41.9627767" lon="13.4493973"><ele>979.0</ele><time>2026-03-29T07:51:58.391Z</time></trkpt><trkpt lat="41.9627516" lon="13.4494757"><ele>979.0</ele><time>2026-03-29T07:52:05.411Z</time></trkpt><trkpt lat="41.9627015" lon="13.4495403"><ele>979.0</ele><time>2026-03-29T07:52:10.445Z</time></trkpt><trkpt lat="41.962651" lon="13.4495986"><ele>979.0</ele><time>2026-03-29T07:52:16.409Z</time></trkpt><trkpt lat="41.9626047" lon="13.4496628"><ele>979.0</ele><time>2026-03-29T07:52:21.411Z</time></trkpt><trkpt lat="41.9625434" lon="13.4496988"><ele>979.0</ele><time>2026-03-29T07:52:27.441Z</time></trkpt><trkpt lat="41.9624918" lon="13.4497546"><ele>979.0</ele><time>2026-03-29T07:52:33.41Z</time></trkpt><trkpt lat="41.9624325" lon="13.4498046"><ele>978.7142857142857</ele><time>2026-03-29T07:52:39.415Z</time></trkpt><trkpt lat="41.9623867" lon="13.4498817"><ele>978.4285714285716</ele><time>2026-03-29T07:52:45.417Z</time></trkpt><trkpt lat="41.9623488" lon="13.4499572"><ele>978.1428571428572</ele><time>2026-03-29T07:52:51.415Z</time></trkpt><trkpt lat="41.962306" lon="13.450028"><ele>977.8571428571429</ele><time>2026-03-29T07:52:58.391Z</time></trkpt><trkpt lat="41.9622628" lon="13.4501017"><ele>977.5714285714287</ele><time>2026-03-29T07:53:04.45Z</time></trkpt><trkpt lat="41.9622293" lon="13.4501872"><ele>977.2857142857144</ele><time>2026-03-29T07:53:10.412Z</time></trkpt><trkpt lat="41.9621966" lon="13.45026"><ele>977.0000000000001</ele><time>2026-03-29T07:53:15.297Z</time></trkpt><trkpt lat="41.962165" lon="13.4503446"><ele>977.0000000000001</ele><time>2026-03-29T07:53:20.409Z</time></trkpt><trkpt lat="41.9621606" lon="13.4504345"><ele>977.0</ele><time>2026-03-29T07:53:25.413Z</time></trkpt><trkpt lat="41.9621386" lon="13.4505176"><ele>977.0000000000001</ele><time>2026-03-29T07:53:31.412Z</time></trkpt><trkpt lat="41.9621213" lon="13.450605"><ele>977.0000000000001</ele><time>2026-03-29T07:53:37.438Z</time></trkpt><trkpt lat="41.9620768" lon="13.4506727"><ele>977.0</ele><time>2026-03-29T07:53:43.355Z</time></trkpt><trkpt lat="41.9620214" lon="13.4507168"><ele>977.0000000000001</ele><time>2026-03-29T07:53:48.475Z</time></trkpt><trkpt lat="41.9619682" lon="13.4507673"><ele>977.0000000000001</ele><time>2026-03-29T07:53:53.453Z</time></trkpt><trkpt lat="41.9619002" lon="13.4507919"><ele>977.7142857142858</ele><time>2026-03-29T07:53:58.456Z</time></trkpt><trkpt lat="41.9618285" lon="13.4508074"><ele>978.4285714285714</ele><time>2026-03-29T07:54:04.409Z</time></trkpt><trkpt lat="41.9617707" lon="13.4508428"><ele>979.1428571428571</ele><time>2026-03-29T07:54:10.378Z</time></trkpt><trkpt lat="41.9617069" lon="13.4508574"><ele>979.8571428571429</ele><time>2026-03-29T07:54:17.413Z</time></trkpt><trkpt lat="41.9616375" lon="13.4508797"><ele>980.5714285714284</ele><time>2026-03-29T07:54:24.398Z</time></trkpt><trkpt lat="41.9616364" lon="13.4509748"><ele>981.2857142857142</ele><time>2026-03-29T07:54:30.454Z</time></trkpt><trkpt lat="41.9615704" lon="13.4509972"><ele>982.0</ele><time>2026-03-29T07:54:35.411Z</time></trkpt><trkpt lat="41.9614999" lon="13.4509795"><ele>982.0</ele><time>2026-03-29T07:54:40.318Z</time></trkpt><trkpt lat="41.9614324" lon="13.4509907"><ele>981.9999999999999</ele><time>2026-03-29T07:54:46.428Z</time></trkpt><trkpt lat="41.9613696" lon="13.4509827"><ele>982.0</ele><time>2026-03-29T07:54:52.461Z</time></trkpt><trkpt lat="41.9613043" lon="13.450961"><ele>982.0</ele><time>2026-03-29T07:54:59.413Z</time></trkpt><trkpt lat="41.9612371" lon="13.4509409"><ele>981.9999999999999</ele><time>2026-03-29T07:55:05.435Z</time></trkpt><trkpt lat="41.9611828" lon="13.4509897"><ele>982.0</ele><time>2026-03-29T07:55:11.408Z</time></trkpt><trkpt lat="41.9611306" lon="13.4510504"><ele>982.0</ele><time>2026-03-29T07:55:17.414Z</time></trkpt><trkpt lat="41.9610675" lon="13.4510689"><ele>982.0</ele><time>2026-03-29T07:55:23.353Z</time></trkpt><trkpt lat="41.9610279" lon="13.451141"><ele>981.9999999999999</ele><time>2026-03-29T07:55:28.414Z</time></trkpt><trkpt lat="41.9610357" lon="13.4512274"><ele>982.0</ele><time>2026-03-29T07:55:33.41Z</time></trkpt><trkpt lat="41.9610272" lon="13.4513158"><ele>982.0</ele><time>2026-03-29T07:55:39.413Z</time></trkpt><trkpt lat="41.9610523" lon="13.4513995"><ele>981.9999999999999</ele><time>2026-03-29T07:55:45.358Z</time></trkpt><trkpt lat="41.961099" lon="13.4514724"><ele>982.0</ele><time>2026-03-29T07:55:51.33Z</time></trkpt><trkpt lat="41.9611621" lon="13.4515183"><ele>982.0</ele><time>2026-03-29T07:55:57.416Z</time></trkpt><trkpt lat="41.9612265" lon="13.451559"><ele>980.2857142857142</ele><time>2026-03-29T07:56:04.469Z</time></trkpt><trkpt lat="41.9612716" lon="13.4516293"><ele>978.5714285714284</ele><time>2026-03-29T07:56:11.415Z</time></trkpt><trkpt lat="41.9613118" lon="13.4517011"><ele>976.8571428571429</ele><time>2026-03-29T07:56:17.443Z</time></trkpt><trkpt lat="41.9613395" lon="13.4517906"><ele>975.1428571428571</ele><time>2026-03-29T07:56:23.472Z</time></trkpt><trkpt lat="41.961363" lon="13.451878"><ele>973.4285714285714</ele><time>2026-03-29T07:56:30.352Z</time></trkpt><trkpt lat="41.9613241" lon="13.4519563"><ele>971.7142857142858</ele><time>2026-03-29T07:56:36.411Z</time></trkpt><trkpt lat="41.9612545" lon="13.4519457"><ele>970.0000000000001</ele><time>2026-03-29T07:56:42.41Z</time></trkpt><trkpt lat="41.9611836" lon="13.4519614"><ele>970.0000000000001</ele><time>2026-03-29T07:56:50.429Z</time></trkpt><trkpt lat="41.9611229" lon="13.4519868"><ele>970.0</ele><time>2026-03-29T07:56:57.475Z</time></trkpt><trkpt lat="41.9610659" lon="13.4520514"><ele>970.0000000000001</ele><time>2026-03-29T07:57:05.414Z</time></trkpt><trkpt lat="41.9610328" lon="13.4521443"><ele>970.0000000000001</ele><time>2026-03-29T07:57:12.381Z</time></trkpt><trkpt lat="41.9609847" lon="13.4522224"><ele>970.0</ele><time>2026-03-29T07:57:18.432Z</time></trkpt><trkpt lat="41.9609394" lon="13.4522952"><ele>970.0000000000001</ele><time>2026-03-29T07:57:24.421Z</time></trkpt><trkpt lat="41.960947" lon="13.4523885"><ele>970.0000000000001</ele><time>2026-03-29T07:57:30.456Z</time></trkpt><trkpt lat="41.9609668" lon="13.4524714"><ele>969.5714285714287</ele><time>2026-03-29T07:57:35.298Z</time></trkpt><trkpt lat="41.9609783" lon="13.4525597"><ele>969.1428571428571</ele><time>2026-03-29T07:57:41.418Z</time></trkpt><trkpt lat="41.9609424" lon="13.4526504"><ele>968.7142857142858</ele><time>2026-03-29T07:57:53.411Z</time></trkpt><trkpt lat="41.9608798" lon="13.4526909"><ele>968.2857142857143</ele><time>2026-03-29T07:57:58.414Z</time></trkpt><trkpt lat="41.9608238" lon="13.4527403"><ele>967.8571428571429</ele><time>2026-03-29T07:58:04.448Z</time></trkpt><trkpt lat="41.9607705" lon="13.4527961"><ele>967.4285714285714</ele><time>2026-03-29T07:58:10.411Z</time></trkpt><trkpt lat="41.9607052" lon="13.4528302"><ele>967.0</ele><time>2026-03-29T07:58:15.46Z</time></trkpt><trkpt lat="41.9606484" lon="13.4528853"><ele>969.8571428571429</ele><time>2026-03-29T07:58:22.45Z</time></trkpt><trkpt lat="41.9605924" lon="13.4529242"><ele>972.7142857142857</ele><time>2026-03-29T07:58:31.411Z</time></trkpt><trkpt lat="41.9605237" lon="13.4529353"><ele>975.5714285714286</ele><time>2026-03-29T07:58:39.446Z</time></trkpt><trkpt lat="41.9604578" lon="13.4529305"><ele>978.4285714285714</ele><time>2026-03-29T07:58:47.412Z</time></trkpt><trkpt lat="41.9603973" lon="13.4528942"><ele>981.2857142857142</ele><time>2026-03-29T07:58:55.411Z</time></trkpt><trkpt lat="41.9603303" lon="13.4528742"><ele>984.1428571428571</ele><time>2026-03-29T07:59:01.411Z</time></trkpt><trkpt lat="41.9602661" lon="13.4528915"><ele>987.0</ele><time>2026-03-29T07:59:08.418Z</time></trkpt><trkpt lat="41.9602092" lon="13.4529292"><ele>987.0</ele><time>2026-03-29T07:59:14.391Z</time></trkpt><trkpt lat="41.9601378" lon="13.452955"><ele>987.0</ele><time>2026-03-29T07:59:20.412Z</time></trkpt><trkpt lat="41.9600751" lon="13.4529671"><ele>987.0</ele><time>2026-03-29T07:59:26.413Z</time></trkpt><trkpt lat="41.9600305" lon="13.4530355"><ele>987.0</ele><time>2026-03-29T07:59:33.453Z</time></trkpt><trkpt lat="41.9600066" lon="13.4531175"><ele>987.0</ele><time>2026-03-29T07:59:40.411Z</time></trkpt><trkpt lat="41.9599837" lon="13.4532032"><ele>987.0</ele><time>2026-03-29T07:59:46.372Z</time></trkpt><trkpt lat="41.9599816" lon="13.4533002"><ele>987.0</ele><time>2026-03-29T07:59:51.409Z</time></trkpt><trkpt lat="41.9599866" lon="13.4533856"><ele>988.2857142857142</ele><time>2026-03-29T07:59:56.398Z</time></trkpt><trkpt lat="41.9600189" lon="13.4534585"><ele>989.5714285714286</ele><time>2026-03-29T08:00:02.417Z</time></trkpt><trkpt lat="41.9600437" lon="13.4535377"><ele>990.8571428571429</ele><time>2026-03-29T08:00:09.433Z</time></trkpt><trkpt lat="41.9600771" lon="13.4536241"><ele>992.1428571428571</ele><time>2026-03-29T08:00:18.414Z</time></trkpt><trkpt lat="41.9601235" lon="13.4536945"><ele>993.4285714285713</ele><time>2026-03-29T08:00:25.353Z</time></trkpt><trkpt lat="41.960172" lon="13.453756"><ele>994.7142857142857</ele><time>2026-03-29T08:00:31.414Z</time></trkpt><trkpt lat="41.9602121" lon="13.4538312"><ele>996.0</ele><time>2026-03-29T08:00:37.331Z</time></trkpt><trkpt lat="41.9602481" lon="13.4539089"><ele>992.8571428571428</ele><time>2026-03-29T08:00:43.45Z</time></trkpt><trkpt lat="41.9602935" lon="13.4539724"><ele>989.7142857142856</ele><time>2026-03-29T08:00:49.413Z</time></trkpt><trkpt lat="41.9603434" lon="13.4540362"><ele>986.5714285714286</ele><time>2026-03-29T08:00:55.417Z</time></trkpt><trkpt lat="41.9604001" lon="13.4541005"><ele>983.4285714285713</ele><time>2026-03-29T08:01:02.353Z</time></trkpt><trkpt lat="41.9604237" lon="13.4541893"><ele>980.2857142857142</ele><time>2026-03-29T08:01:09.417Z</time></trkpt><trkpt lat="41.9604032" lon="13.4542811"><ele>977.1428571428571</ele><time>2026-03-29T08:01:15.435Z</time></trkpt><trkpt lat="41.9603533" lon="13.4543336"><ele>974.0</ele><time>2026-03-29T08:01:21.41Z</time></trkpt><trkpt lat="41.9602802" lon="13.4543375"><ele>974.0</ele><time>2026-03-29T08:01:37.413Z</time></trkpt><trkpt lat="41.9602088" lon="13.4543758"><ele>974.0</ele><time>2026-03-29T08:01:42.388Z</time></trkpt><trkpt lat="41.9601607" lon="13.4544333"><ele>974.0</ele><time>2026-03-29T08:01:48.418Z</time></trkpt><trkpt lat="41.9601025" lon="13.4544698"><ele>974.0</ele><time>2026-03-29T08:01:56.412Z</time></trkpt><trkpt lat="41.9600401" lon="13.4545114"><ele>974.0</ele><time>2026-03-29T08:02:02.473Z</time></trkpt><trkpt lat="41.9599864" lon="13.4545633"><ele>974.0</ele><time>2026-03-29T08:02:08.431Z</time></trkpt><trkpt lat="41.9599591" lon="13.4546477"><ele>974.0</ele><time>2026-03-29T08:02:14.414Z</time></trkpt><trkpt lat="41.959966" lon="13.4547422"><ele>973.0</ele><time>2026-03-29T08:02:20.415Z</time></trkpt><trkpt lat="41.9599833" lon="13.454833"><ele>972.0</ele><time>2026-03-29T08:02:26.472Z</time></trkpt><trkpt lat="41.9600091" lon="13.4549183"><ele>971.0</ele><time>2026-03-29T08:02:33.385Z</time></trkpt><trkpt lat="41.9600337" lon="13.4550021"><ele>970.0</ele><time>2026-03-29T08:02:40.412Z</time></trkpt><trkpt lat="41.9600646" lon="13.4550771"><ele>969.0</ele><time>2026-03-29T08:02:46.446Z</time></trkpt><trkpt lat="41.9601088" lon="13.4551439"><ele>968.0</ele><time>2026-03-29T08:02:53.411Z</time></trkpt><trkpt lat="41.9601535" lon="13.4552061"><ele>967.0</ele><time>2026-03-29T08:02:59.42Z</time></trkpt><trkpt lat="41.9601772" lon="13.4552846"><ele>967.0</ele><time>2026-03-29T08:03:05.455Z</time></trkpt><trkpt lat="41.9601778" lon="13.4553827"><ele>967.0</ele><time>2026-03-29T08:03:11.412Z</time></trkpt><trkpt lat="41.9601481" lon="13.455475"><ele>967.0</ele><time>2026-03-29T08:03:17.423Z</time></trkpt><trkpt lat="41.9601174" lon="13.4555542"><ele>967.0</ele><time>2026-03-29T08:03:23.392Z</time></trkpt><trkpt lat="41.960069" lon="13.4556234"><ele>967.0</ele><time>2026-03-29T08:03:30.413Z</time></trkpt><trkpt lat="41.9600144" lon="13.4556858"><ele>967.0</ele><time>2026-03-29T08:03:36.436Z</time></trkpt><trkpt lat="41.9599676" lon="13.4557614"><ele>967.0</ele><time>2026-03-29T08:03:43.333Z</time></trkpt><trkpt lat="41.9599297" lon="13.4558326"><ele>968.0</ele><time>2026-03-29T08:03:50.412Z</time></trkpt><trkpt lat="41.9598595" lon="13.4558682"><ele>969.0</ele><time>2026-03-29T08:03:57.449Z</time></trkpt><trkpt lat="41.9597935" lon="13.4558835"><ele>970.0</ele><time>2026-03-29T08:04:03.41Z</time></trkpt><trkpt lat="41.9597365" lon="13.455926"><ele>971.0</ele><time>2026-03-29T08:04:11.428Z</time></trkpt><trkpt lat="41.959676" lon="13.4559519"><ele>972.0</ele><time>2026-03-29T08:04:17.41Z</time></trkpt><trkpt lat="41.9596155" lon="13.4560096"><ele>973.0</ele><time>2026-03-29T08:04:23.41Z</time></trkpt><trkpt lat="41.9595677" lon="13.4560811"><ele>974.0</ele><time>2026-03-29T08:04:29.429Z</time></trkpt><trkpt lat="41.9595204" lon="13.4561458"><ele>974.0</ele><time>2026-03-29T08:04:35.463Z</time></trkpt><trkpt lat="41.9594708" lon="13.4562055"><ele>974.0</ele><time>2026-03-29T08:04:42.411Z</time></trkpt><trkpt lat="41.9594229" lon="13.4562727"><ele>974.0</ele><time>2026-03-29T08:04:49.357Z</time></trkpt><trkpt lat="41.9593717" lon="13.4563371"><ele>974.0</ele><time>2026-03-29T08:04:56.413Z</time></trkpt><trkpt lat="41.9593185" lon="13.4563896"><ele>974.0</ele><time>2026-03-29T08:05:03.397Z</time></trkpt><trkpt lat="41.9592749" lon="13.4564557"><ele>974.0</ele><time>2026-03-29T08:05:10.461Z</time></trkpt><trkpt lat="41.9592131" lon="13.4565041"><ele>974.0</ele><time>2026-03-29T08:05:18.412Z</time></trkpt><trkpt lat="41.9591588" lon="13.4565504"><ele>975.7142857142858</ele><time>2026-03-29T08:05:24.416Z</time></trkpt><trkpt lat="41.9591002" lon="13.4565915"><ele>977.4285714285713</ele><time>2026-03-29T08:05:30.416Z</time></trkpt><trkpt lat="41.9590276" lon="13.4566107"><ele>979.1428571428571</ele><time>2026-03-29T08:05:36.376Z</time></trkpt><trkpt lat="41.9589673" lon="13.4566393"><ele>980.8571428571429</ele><time>2026-03-29T08:05:42.442Z</time></trkpt><trkpt lat="41.9589057" lon="13.4566752"><ele>982.5714285714287</ele><time>2026-03-29T08:05:47.411Z</time></trkpt><trkpt lat="41.9588391" lon="13.4567029"><ele>984.2857142857142</ele><time>2026-03-29T08:05:52.414Z</time></trkpt><trkpt lat="41.958787" lon="13.4567553"><ele>986.0</ele><time>2026-03-29T08:05:58.433Z</time></trkpt><trkpt lat="41.9587692" lon="13.4568486"><ele>986.0</ele><time>2026-03-29T08:06:06.416Z</time></trkpt><trkpt lat="41.9587957" lon="13.456937"><ele>986.0</ele><time>2026-03-29T08:06:12.413Z</time></trkpt><trkpt lat="41.9588314" lon="13.4570168"><ele>986.0</ele><time>2026-03-29T08:06:18.446Z</time></trkpt><trkpt lat="41.9588713" lon="13.4570998"><ele>986.0</ele><time>2026-03-29T08:06:25.461Z</time></trkpt><trkpt lat="41.9588919" lon="13.457191"><ele>986.0</ele><time>2026-03-29T08:06:31.416Z</time></trkpt><trkpt lat="41.9589116" lon="13.4572827"><ele>986.0</ele><time>2026-03-29T08:06:37.454Z</time></trkpt><trkpt lat="41.9589342" lon="13.4573741"><ele>986.0</ele><time>2026-03-29T08:06:43.373Z</time></trkpt><trkpt lat="41.9589452" lon="13.4574688"><ele>985.0</ele><time>2026-03-29T08:06:50.432Z</time></trkpt><trkpt lat="41.9589109" lon="13.4575461"><ele>984.0</ele><time>2026-03-29T08:06:55.351Z</time></trkpt><trkpt lat="41.9588599" lon="13.4576025"><ele>983.0</ele><time>2026-03-29T08:07:00.416Z</time></trkpt><trkpt lat="41.9588171" lon="13.4576753"><ele>982.0</ele><time>2026-03-29T08:07:06.418Z</time></trkpt><trkpt lat="41.9587677" lon="13.4577351"><ele>981.0</ele><time>2026-03-29T08:07:12.416Z</time></trkpt><trkpt lat="41.9587244" lon="13.4578005"><ele>980.0</ele><time>2026-03-29T08:07:18.414Z</time></trkpt><trkpt lat="41.9586651" lon="13.4578506"><ele>979.0</ele><time>2026-03-29T08:07:26.357Z</time></trkpt><trkpt lat="41.9586013" lon="13.4578871"><ele>979.0</ele><time>2026-03-29T08:07:34.351Z</time></trkpt><trkpt lat="41.9585376" lon="13.4579363"><ele>979.0</ele><time>2026-03-29T08:07:41.467Z</time></trkpt><trkpt lat="41.9584814" lon="13.4579782"><ele>979.0</ele><time>2026-03-29T08:07:47.45Z</time></trkpt><trkpt lat="41.9584195" lon="13.4580214"><ele>979.0</ele><time>2026-03-29T08:07:54.413Z</time></trkpt><trkpt lat="41.9584049" lon="13.4581083"><ele>979.0</ele><time>2026-03-29T08:10:43.417Z</time></trkpt><trkpt lat="41.9583603" lon="13.4581686"><ele>979.0</ele><time>2026-03-29T08:10:50.418Z</time></trkpt><trkpt lat="41.9583314" lon="13.4582473"><ele>979.0</ele><time>2026-03-29T08:10:58.412Z</time></trkpt><trkpt lat="41.9583045" lon="13.4583245"><ele>981.4285714285713</ele><time>2026-03-29T08:11:04.416Z</time></trkpt><trkpt lat="41.9582538" lon="13.4583927"><ele>983.8571428571429</ele><time>2026-03-29T08:11:12.464Z</time></trkpt><trkpt lat="41.9581977" lon="13.4584479"><ele>986.2857142857142</ele><time>2026-03-29T08:11:20.446Z</time></trkpt><trkpt lat="41.9581264" lon="13.4584678"><ele>988.7142857142857</ele><time>2026-03-29T08:11:27.431Z</time></trkpt><trkpt lat="41.9580689" lon="13.4585077"><ele>991.1428571428571</ele><time>2026-03-29T08:11:33.414Z</time></trkpt><trkpt lat="41.9580012" lon="13.4584913"><ele>993.5714285714286</ele><time>2026-03-29T08:11:43.437Z</time></trkpt><trkpt lat="41.9579469" lon="13.4584329"><ele>996.0</ele><time>2026-03-29T08:11:51.365Z</time></trkpt><trkpt lat="41.9578985" lon="13.4583714"><ele>996.0</ele><time>2026-03-29T08:11:59.416Z</time></trkpt><trkpt lat="41.9578538" lon="13.4583069"><ele>995.9999999999999</ele><time>2026-03-29T08:12:07.461Z</time></trkpt><trkpt lat="41.9578011" lon="13.458246"><ele>996.0</ele><time>2026-03-29T08:12:15.413Z</time></trkpt><trkpt lat="41.9577451" lon="13.4581928"><ele>996.0</ele><time>2026-03-29T08:12:23.46Z</time></trkpt><trkpt lat="41.9576796" lon="13.4581723"><ele>995.9999999999999</ele><time>2026-03-29T08:12:32.44Z</time></trkpt><trkpt lat="41.9576129" lon="13.4581823"><ele>996.0</ele><time>2026-03-29T08:12:40.346Z</time></trkpt><trkpt lat="41.9575483" lon="13.4581883"><ele>996.0</ele><time>2026-03-29T08:12:48.413Z</time></trkpt><trkpt lat="41.957492" lon="13.4582306"><ele>998.5714285714286</ele><time>2026-03-29T08:12:54.431Z</time></trkpt><trkpt lat="41.9574641" lon="13.4583074"><ele>1001.1428571428571</ele><time>2026-03-29T08:18:18.437Z</time></trkpt><trkpt lat="41.9573915" lon="13.4583387"><ele>1003.7142857142857</ele><time>2026-03-29T08:18:23.441Z</time></trkpt><trkpt lat="41.9573308" lon="13.4583792"><ele>1006.2857142857142</ele><time>2026-03-29T08:18:29.415Z</time></trkpt><trkpt lat="41.9572629" lon="13.4583886"><ele>1008.8571428571429</ele><time>2026-03-29T08:18:37.449Z</time></trkpt><trkpt lat="41.9572032" lon="13.4584264"><ele>1011.4285714285713</ele><time>2026-03-29T08:18:44.411Z</time></trkpt><trkpt lat="41.9571417" lon="13.4584737"><ele>1014.0</ele><time>2026-03-29T08:18:50.427Z</time></trkpt><trkpt lat="41.9570811" lon="13.4585172"><ele>1014.0</ele><time>2026-03-29T08:18:56.414Z</time></trkpt><trkpt lat="41.9570158" lon="13.4585264"><ele>1014.0</ele><time>2026-03-29T08:19:02.43Z</time></trkpt><trkpt lat="41.95695" lon="13.4585258"><ele>1014.0</ele><time>2026-03-29T08:19:09.44Z</time></trkpt><trkpt lat="41.9568882" lon="13.4585073"><ele>1014.0</ele><time>2026-03-29T08:19:14.403Z</time></trkpt><trkpt lat="41.9568207" lon="13.4584834"><ele>1014.0</ele><time>2026-03-29T08:19:22.471Z</time></trkpt><trkpt lat="41.9567517" lon="13.4584825"><ele>1014.0</ele><time>2026-03-29T08:19:34.414Z</time></trkpt><trkpt lat="41.9566903" lon="13.4585057"><ele>1014.0</ele><time>2026-03-29T08:19:42.436Z</time></trkpt><trkpt lat="41.9566308" lon="13.4585354"><ele>1017.7142857142857</ele><time>2026-03-29T08:19:53.415Z</time></trkpt><trkpt lat="41.9565622" lon="13.4585428"><ele>1021.4285714285716</ele><time>2026-03-29T08:20:04.466Z</time></trkpt><trkpt lat="41.9564968" lon="13.4585383"><ele>1025.1428571428573</ele><time>2026-03-29T08:20:15.431Z</time></trkpt><trkpt lat="41.9564399" lon="13.4584923"><ele>1028.857142857143</ele><time>2026-03-29T08:20:22.367Z</time></trkpt><trkpt lat="41.9563764" lon="13.4584749"><ele>1032.5714285714287</ele><time>2026-03-29T08:20:32.432Z</time></trkpt><trkpt lat="41.9563121" lon="13.4584855"><ele>1036.2857142857144</ele><time>2026-03-29T08:20:45.412Z</time></trkpt><trkpt lat="41.956254" lon="13.4585247"><ele>1040.0</ele><time>2026-03-29T08:20:53.456Z</time></trkpt><trkpt lat="41.9561904" lon="13.4585183"><ele>1040.0000000000002</ele><time>2026-03-29T08:21:04.421Z</time></trkpt><trkpt lat="41.9561268" lon="13.4585279"><ele>1040.0</ele><time>2026-03-29T08:21:17.416Z</time></trkpt><trkpt lat="41.9560624" lon="13.4585016"><ele>1040.0</ele><time>2026-03-29T08:21:26.451Z</time></trkpt><trkpt lat="41.9559995" lon="13.4584918"><ele>1040.0</ele><time>2026-03-29T08:21:33.413Z</time></trkpt><trkpt lat="41.9559457" lon="13.458545"><ele>1040.0</ele><time>2026-03-29T08:21:42.446Z</time></trkpt><trkpt lat="41.9558801" lon="13.4585633"><ele>1040.0000000000002</ele><time>2026-03-29T08:21:55.422Z</time></trkpt><trkpt lat="41.9558161" lon="13.4585438"><ele>1040.0</ele><time>2026-03-29T08:22:03.364Z</time></trkpt><trkpt lat="41.9557505" lon="13.4585679"><ele>1043.2857142857144</ele><time>2026-03-29T08:22:11.445Z</time></trkpt><trkpt lat="41.9556971" lon="13.4585214"><ele>1046.5714285714287</ele><time>2026-03-29T08:22:19.534Z</time></trkpt><trkpt lat="41.9556299" lon="13.4585154"><ele>1049.857142857143</ele><time>2026-03-29T08:22:28.416Z</time></trkpt><trkpt lat="41.9555676" lon="13.4585459"><ele>1053.1428571428573</ele><time>2026-03-29T08:22:34.467Z</time></trkpt><trkpt lat="41.9554987" lon="13.4585364"><ele>1056.4285714285716</ele><time>2026-03-29T08:22:42.414Z</time></trkpt><trkpt lat="41.9554309" lon="13.4585052"><ele>1059.7142857142858</ele><time>2026-03-29T08:22:51.452Z</time></trkpt><trkpt lat="41.9553598" lon="13.4585086"><ele>1063.0</ele><time>2026-03-29T08:22:58.48Z</time></trkpt><trkpt lat="41.9552916" lon="13.458492"><ele>1063.0</ele><time>2026-03-29T08:23:05.381Z</time></trkpt><trkpt lat="41.9552294" lon="13.4585181"><ele>1063.0</ele><time>2026-03-29T08:23:12.413Z</time></trkpt><trkpt lat="41.9551688" lon="13.4585692"><ele>1063.0</ele><time>2026-03-29T08:23:17.421Z</time></trkpt><trkpt lat="41.9551638" lon="13.4586587"><ele>1063.0</ele><time>2026-03-29T08:23:24.462Z</time></trkpt><trkpt lat="41.9551724" lon="13.4587435"><ele>1063.0</ele><time>2026-03-29T08:23:31.415Z</time></trkpt><trkpt lat="41.9551447" lon="13.4588231"><ele>1063.0</ele><time>2026-03-29T08:23:37.423Z</time></trkpt><trkpt lat="41.9550832" lon="13.4588679"><ele>1063.0</ele><time>2026-03-29T08:23:43.458Z</time></trkpt><trkpt lat="41.9550141" lon="13.4588552"><ele>1063.7142857142858</ele><time>2026-03-29T08:23:50.414Z</time></trkpt><trkpt lat="41.9549463" lon="13.4588165"><ele>1064.4285714285716</ele><time>2026-03-29T08:23:59.454Z</time></trkpt><trkpt lat="41.954899" lon="13.4587494"><ele>1065.1428571428573</ele><time>2026-03-29T08:24:07.411Z</time></trkpt><trkpt lat="41.9548476" lon="13.4586852"><ele>1065.857142857143</ele><time>2026-03-29T08:24:15.447Z</time></trkpt><trkpt lat="41.9547989" lon="13.4586267"><ele>1066.5714285714287</ele><time>2026-03-29T08:24:22.451Z</time></trkpt><trkpt lat="41.9547546" lon="13.458558"><ele>1067.2857142857144</ele><time>2026-03-29T08:24:30.436Z</time></trkpt><trkpt lat="41.9547105" lon="13.4584904"><ele>1068.0</ele><time>2026-03-29T08:24:38.422Z</time></trkpt><trkpt lat="41.9546537" lon="13.4584484"><ele>1068.0000000000002</ele><time>2026-03-29T08:24:47.435Z</time></trkpt><trkpt lat="41.9546058" lon="13.4583928"><ele>1068.0</ele><time>2026-03-29T08:24:55.416Z</time></trkpt><trkpt lat="41.9545547" lon="13.4583321"><ele>1068.0</ele><time>2026-03-29T08:25:03.324Z</time></trkpt><trkpt lat="41.954498" lon="13.4582749"><ele>1068.0</ele><time>2026-03-29T08:25:12.414Z</time></trkpt><trkpt lat="41.9544445" lon="13.458226"><ele>1068.0</ele><time>2026-03-29T08:25:19.423Z</time></trkpt><trkpt lat="41.9543793" lon="13.4581856"><ele>1068.0000000000002</ele><time>2026-03-29T08:25:26.379Z</time></trkpt><trkpt lat="41.9543239" lon="13.4581443"><ele>1068.0</ele><time>2026-03-29T08:25:31.413Z</time></trkpt><trkpt lat="41.9542645" lon="13.4581015"><ele>1068.0000000000002</ele><time>2026-03-29T08:25:37.468Z</time></trkpt><trkpt lat="41.9542091" lon="13.4580516"><ele>1068.0</ele><time>2026-03-29T08:25:45.414Z</time></trkpt><trkpt lat="41.9541495" lon="13.4580141"><ele>1068.0</ele><time>2026-03-29T08:25:53.398Z</time></trkpt><trkpt lat="41.9540794" lon="13.4579992"><ele>1068.0</ele><time>2026-03-29T08:26:02.321Z</time></trkpt><trkpt lat="41.9540187" lon="13.4579619"><ele>1068.0</ele><time>2026-03-29T08:26:10.423Z</time></trkpt><trkpt lat="41.9539583" lon="13.4579263"><ele>1068.0000000000002</ele><time>2026-03-29T08:26:17.359Z</time></trkpt><trkpt lat="41.9539017" lon="13.4578772"><ele>1068.0</ele><time>2026-03-29T08:26:24.414Z</time></trkpt><trkpt lat="41.9538443" lon="13.4578242"><ele>1072.4285714285716</ele><time>2026-03-29T08:26:30.442Z</time></trkpt><trkpt lat="41.9537913" lon="13.4577722"><ele>1076.857142857143</ele><time>2026-03-29T08:26:37.328Z</time></trkpt><trkpt lat="41.9537371" lon="13.4577205"><ele>1081.2857142857142</ele><time>2026-03-29T08:26:45.405Z</time></trkpt><trkpt lat="41.9536833" lon="13.4576748"><ele>1085.7142857142858</ele><time>2026-03-29T08:26:51.487Z</time></trkpt><trkpt lat="41.953626" lon="13.4576331"><ele>1090.142857142857</ele><time>2026-03-29T08:26:59.429Z</time></trkpt><trkpt lat="41.9535572" lon="13.4576288"><ele>1094.5714285714287</ele><time>2026-03-29T08:27:07.444Z</time></trkpt><trkpt lat="41.9535121" lon="13.4575562"><ele>1099.0</ele><time>2026-03-29T08:27:28.413Z</time></trkpt><trkpt lat="41.9534477" lon="13.4575209"><ele>1099.0</ele><time>2026-03-29T08:27:34.417Z</time></trkpt><trkpt lat="41.9533846" lon="13.4574745"><ele>1099.0</ele><time>2026-03-29T08:27:41.414Z</time></trkpt><trkpt lat="41.9533286" lon="13.4574186"><ele>1099.0</ele><time>2026-03-29T08:27:47.413Z</time></trkpt><trkpt lat="41.9532705" lon="13.457371"><ele>1099.0</ele><time>2026-03-29T08:27:53.429Z</time></trkpt><trkpt lat="41.9532131" lon="13.4573318"><ele>1099.0</ele><time>2026-03-29T08:27:59.465Z</time></trkpt><trkpt lat="41.953153" lon="13.4572956"><ele>1099.0</ele><time>2026-03-29T08:28:05.417Z</time></trkpt><trkpt lat="41.9530938" lon="13.4572519"><ele>1099.0</ele><time>2026-03-29T08:28:12.441Z</time></trkpt><trkpt lat="41.9530325" lon="13.4572318"><ele>1097.857142857143</ele><time>2026-03-29T08:28:20.414Z</time></trkpt><trkpt lat="41.9529677" lon="13.4571893"><ele>1096.7142857142858</ele><time>2026-03-29T08:28:28.435Z</time></trkpt><trkpt lat="41.9528973" lon="13.4571739"><ele>1095.5714285714284</ele><time>2026-03-29T08:28:35.413Z</time></trkpt><trkpt lat="41.9528355" lon="13.4571463"><ele>1094.4285714285716</ele><time>2026-03-29T08:28:41.468Z</time></trkpt><trkpt lat="41.952775" lon="13.4571084"><ele>1093.2857142857142</ele><time>2026-03-29T08:28:49.416Z</time></trkpt><trkpt lat="41.9527139" lon="13.4570862"><ele>1092.142857142857</ele><time>2026-03-29T08:28:56.472Z</time></trkpt><trkpt lat="41.9526446" lon="13.4570799"><ele>1091.0</ele><time>2026-03-29T08:29:02.442Z</time></trkpt><trkpt lat="41.9525825" lon="13.4570555"><ele>1095.142857142857</ele><time>2026-03-29T08:29:08.414Z</time></trkpt><trkpt lat="41.9525232" lon="13.4570099"><ele>1099.2857142857142</ele><time>2026-03-29T08:29:14.411Z</time></trkpt><trkpt lat="41.9524624" lon="13.4569685"><ele>1103.4285714285716</ele><time>2026-03-29T08:29:21.446Z</time></trkpt><trkpt lat="41.9523982" lon="13.456953"><ele>1107.5714285714284</ele><time>2026-03-29T08:29:27.413Z</time></trkpt><trkpt lat="41.9523322" lon="13.456922"><ele>1111.7142857142858</ele><time>2026-03-29T08:29:33.416Z</time></trkpt><trkpt lat="41.9522668" lon="13.4568988"><ele>1115.857142857143</ele><time>2026-03-29T08:29:39.452Z</time></trkpt><trkpt lat="41.9522021" lon="13.4568802"><ele>1120.0</ele><time>2026-03-29T08:29:45.442Z</time></trkpt><trkpt lat="41.9521429" lon="13.4568513"><ele>1120.0</ele><time>2026-03-29T08:29:51.347Z</time></trkpt><trkpt lat="41.9520787" lon="13.4568083"><ele>1120.0</ele><time>2026-03-29T08:29:58.463Z</time></trkpt><trkpt lat="41.9520225" lon="13.4567655"><ele>1120.0</ele><time>2026-03-29T08:30:07.423Z</time></trkpt><trkpt lat="41.951963" lon="13.45672"><ele>1120.0</ele><time>2026-03-29T08:30:14.458Z</time></trkpt><trkpt lat="41.9518988" lon="13.456679"><ele>1120.0</ele><time>2026-03-29T08:30:22.42Z</time></trkpt><trkpt lat="41.9518407" lon="13.4566327"><ele>1120.0</ele><time>2026-03-29T08:30:29.445Z</time></trkpt><trkpt lat="41.9517765" lon="13.4566242"><ele>1120.0</ele><time>2026-03-29T08:30:39.411Z</time></trkpt><trkpt lat="41.951713" lon="13.4565973"><ele>1119.2857142857142</ele><time>2026-03-29T08:30:47.468Z</time></trkpt><trkpt lat="41.9516491" lon="13.4565702"><ele>1118.5714285714284</ele><time>2026-03-29T08:30:54.415Z</time></trkpt><trkpt lat="41.9516077" lon="13.4564992"><ele>1117.857142857143</ele><time>2026-03-29T08:31:05.457Z</time></trkpt><trkpt lat="41.9515358" lon="13.45648"><ele>1117.142857142857</ele><time>2026-03-29T08:31:12.422Z</time></trkpt><trkpt lat="41.9514774" lon="13.4564443"><ele>1116.4285714285713</ele><time>2026-03-29T08:31:19.344Z</time></trkpt><trkpt lat="41.9514179" lon="13.4564048"><ele>1115.7142857142858</ele><time>2026-03-29T08:31:28.412Z</time></trkpt><trkpt lat="41.9513481" lon="13.456371"><ele>1115.0</ele><time>2026-03-29T08:31:36.404Z</time></trkpt><trkpt lat="41.9512821" lon="13.4563458"><ele>1115.0</ele><time>2026-03-29T08:31:46.443Z</time></trkpt><trkpt lat="41.951223" lon="13.4563052"><ele>1115.0</ele><time>2026-03-29T08:31:56.38Z</time></trkpt><trkpt lat="41.9511573" lon="13.4563103"><ele>1115.0</ele><time>2026-03-29T08:32:03.324Z</time></trkpt><trkpt lat="41.951127" lon="13.456441"><ele>1115.0</ele><time>2026-03-29T08:33:28.363Z</time></trkpt><trkpt lat="41.9510951" lon="13.4565262"><ele>1115.0</ele><time>2026-03-29T08:33:33.426Z</time></trkpt><trkpt lat="41.9510759" lon="13.4566178"><ele>1115.0</ele><time>2026-03-29T08:33:39.416Z</time></trkpt><trkpt lat="41.9510196" lon="13.4566752"><ele>1115.0</ele><time>2026-03-29T08:33:46.409Z</time></trkpt><trkpt lat="41.9509542" lon="13.4567027"><ele>1115.0</ele><time>2026-03-29T08:33:51.446Z</time></trkpt><trkpt lat="41.9508874" lon="13.4567399"><ele>1115.0</ele><time>2026-03-29T08:33:59.42Z</time></trkpt><trkpt lat="41.9508328" lon="13.4568067"><ele>1115.0</ele><time>2026-03-29T08:34:05.415Z</time></trkpt><trkpt lat="41.9508011" lon="13.4568828"><ele>1115.0</ele><time>2026-03-29T08:34:10.442Z</time></trkpt><trkpt lat="41.9508036" lon="13.4569783"><ele>1115.0</ele><time>2026-03-29T08:34:16.412Z</time></trkpt><trkpt lat="41.9508158" lon="13.4570631"><ele>1115.0</ele><time>2026-03-29T08:34:21.411Z</time></trkpt><trkpt lat="41.9507939" lon="13.457143"><ele>1115.0</ele><time>2026-03-29T08:34:26.435Z</time></trkpt><trkpt lat="41.9507797" lon="13.4572297"><ele>1116.7142857142858</ele><time>2026-03-29T08:34:32.471Z</time></trkpt><trkpt lat="41.9507498" lon="13.4573129"><ele>1118.4285714285713</ele><time>2026-03-29T08:34:39.468Z</time></trkpt><trkpt lat="41.9507281" lon="13.4574008"><ele>1120.142857142857</ele><time>2026-03-29T08:34:46.386Z</time></trkpt><trkpt lat="41.9507349" lon="13.4574955"><ele>1121.857142857143</ele><time>2026-03-29T08:34:52.321Z</time></trkpt><trkpt lat="41.9506947" lon="13.4575675"><ele>1123.5714285714284</ele><time>2026-03-29T08:35:01.411Z</time></trkpt><trkpt lat="41.9506775" lon="13.4576495"><ele>1125.2857142857142</ele><time>2026-03-29T08:35:29.411Z</time></trkpt><trkpt lat="41.950683" lon="13.4577354"><ele>1127.0</ele><time>2026-03-29T08:35:35.416Z</time></trkpt><trkpt lat="41.9506763" lon="13.4578221"><ele>1127.0</ele><time>2026-03-29T08:35:41.415Z</time></trkpt><trkpt lat="41.9506747" lon="13.4579107"><ele>1127.0</ele><time>2026-03-29T08:35:49.419Z</time></trkpt><trkpt lat="41.9506217" lon="13.457966"><ele>1127.0</ele><time>2026-03-29T08:35:55.454Z</time></trkpt><trkpt lat="41.9506175" lon="13.4580644"><ele>1127.0</ele><time>2026-03-29T08:36:02.441Z</time></trkpt><trkpt lat="41.9506033" lon="13.4581593"><ele>1127.0</ele><time>2026-03-29T08:36:08.427Z</time></trkpt><trkpt lat="41.9506017" lon="13.4582534"><ele>1127.0</ele><time>2026-03-29T08:36:15.416Z</time></trkpt><trkpt lat="41.950595" lon="13.458339"><ele>1127.0</ele><time>2026-03-29T08:36:22.411Z</time></trkpt><trkpt lat="41.9505987" lon="13.4584317"><ele>1125.857142857143</ele><time>2026-03-29T08:36:29.452Z</time></trkpt><trkpt lat="41.9505742" lon="13.4585115"><ele>1124.7142857142858</ele><time>2026-03-29T08:36:36.411Z</time></trkpt><trkpt lat="41.9505242" lon="13.4585764"><ele>1123.5714285714284</ele><time>2026-03-29T08:36:43.326Z</time></trkpt><trkpt lat="41.9504641" lon="13.4586143"><ele>1122.4285714285716</ele><time>2026-03-29T08:36:50.417Z</time></trkpt><trkpt lat="41.9503968" lon="13.4586384"><ele>1121.2857142857142</ele><time>2026-03-29T08:36:58.324Z</time></trkpt><trkpt lat="41.9503346" lon="13.4586777"><ele>1120.142857142857</ele><time>2026-03-29T08:37:06.414Z</time></trkpt><trkpt lat="41.9502755" lon="13.4587329"><ele>1119.0</ele><time>2026-03-29T08:37:13.413Z</time></trkpt><trkpt lat="41.9502203" lon="13.4587835"><ele>1117.142857142857</ele><time>2026-03-29T08:37:20.446Z</time></trkpt><trkpt lat="41.9501932" lon="13.4588692"><ele>1115.2857142857142</ele><time>2026-03-29T08:37:27.413Z</time></trkpt><trkpt lat="41.9501521" lon="13.4589402"><ele>1113.4285714285716</ele><time>2026-03-29T08:37:33.422Z</time></trkpt><trkpt lat="41.9501213" lon="13.4590174"><ele>1111.5714285714284</ele><time>2026-03-29T08:37:39.456Z</time></trkpt><trkpt lat="41.9500575" lon="13.4590565"><ele>1109.7142857142858</ele><time>2026-03-29T08:37:45.364Z</time></trkpt><trkpt lat="41.9499988" lon="13.4590885"><ele>1107.857142857143</ele><time>2026-03-29T08:37:51.426Z</time></trkpt><trkpt lat="41.9499446" lon="13.4591431"><ele>1106.0</ele><time>2026-03-29T08:37:58.414Z</time></trkpt><trkpt lat="41.9498896" lon="13.4591931"><ele>1111.2857142857142</ele><time>2026-03-29T08:38:04.467Z</time></trkpt><trkpt lat="41.9498314" lon="13.4592301"><ele>1116.5714285714284</ele><time>2026-03-29T08:38:10.437Z</time></trkpt><trkpt lat="41.9497655" lon="13.4592474"><ele>1121.857142857143</ele><time>2026-03-29T08:38:16.411Z</time></trkpt><trkpt lat="41.9497029" lon="13.4592698"><ele>1127.142857142857</ele><time>2026-03-29T08:38:22.41Z</time></trkpt><trkpt lat="41.9496397" lon="13.4593034"><ele>1132.4285714285713</ele><time>2026-03-29T08:38:28.441Z</time></trkpt><trkpt lat="41.9495874" lon="13.4593536"><ele>1137.7142857142858</ele><time>2026-03-29T08:38:34.411Z</time></trkpt><trkpt lat="41.9495314" lon="13.4594013"><ele>1143.0</ele><time>2026-03-29T08:38:39.413Z</time></trkpt><trkpt lat="41.9494934" lon="13.4594767"><ele>1143.0</ele><time>2026-03-29T08:38:45.439Z</time></trkpt><trkpt lat="41.9494526" lon="13.4595604"><ele>1143.0</ele><time>2026-03-29T08:38:52.429Z</time></trkpt><trkpt lat="41.9494036" lon="13.459626"><ele>1143.0</ele><time>2026-03-29T08:38:59.405Z</time></trkpt><trkpt lat="41.9493495" lon="13.4596925"><ele>1143.0</ele><time>2026-03-29T08:39:06.461Z</time></trkpt><trkpt lat="41.9492928" lon="13.4597508"><ele>1143.0</ele><time>2026-03-29T08:39:13.416Z</time></trkpt><trkpt lat="41.9492365" lon="13.4598203"><ele>1143.0</ele><time>2026-03-29T08:39:20.441Z</time></trkpt><trkpt lat="41.9491725" lon="13.459868"><ele>1143.0</ele><time>2026-03-29T08:39:27.412Z</time></trkpt><trkpt lat="41.9491127" lon="13.4599232"><ele>1142.2857142857142</ele><time>2026-03-29T08:39:33.416Z</time></trkpt><trkpt lat="41.9490588" lon="13.4599752"><ele>1141.5714285714284</ele><time>2026-03-29T08:39:47.413Z</time></trkpt><trkpt lat="41.9489944" lon="13.4599978"><ele>1140.857142857143</ele><time>2026-03-29T08:39:53.326Z</time></trkpt><trkpt lat="41.9489335" lon="13.4600345"><ele>1140.142857142857</ele><time>2026-03-29T08:39:59.422Z</time></trkpt><trkpt lat="41.9488725" lon="13.4600658"><ele>1139.4285714285716</ele><time>2026-03-29T08:40:05.414Z</time></trkpt><trkpt lat="41.9488026" lon="13.4600833"><ele>1138.7142857142858</ele><time>2026-03-29T08:40:10.43Z</time></trkpt><trkpt lat="41.9487344" lon="13.4601142"><ele>1138.0</ele><time>2026-03-29T08:40:16.462Z</time></trkpt><trkpt lat="41.9486711" lon="13.4601235"><ele>1138.0000000000002</ele><time>2026-03-29T08:40:22.413Z</time></trkpt><trkpt lat="41.9486063" lon="13.4601312"><ele>1138.0</ele><time>2026-03-29T08:40:28.435Z</time></trkpt><trkpt lat="41.9485648" lon="13.460197"><ele>1138.0</ele><time>2026-03-29T08:40:35.414Z</time></trkpt><trkpt lat="41.948516" lon="13.4602617"><ele>1138.0</ele><time>2026-03-29T08:40:41.467Z</time></trkpt><trkpt lat="41.9484598" lon="13.4603258"><ele>1138.0</ele><time>2026-03-29T08:40:47.36Z</time></trkpt><trkpt lat="41.9484029" lon="13.4603815"><ele>1138.0000000000002</ele><time>2026-03-29T08:40:53.465Z</time></trkpt><trkpt lat="41.9483449" lon="13.4604371"><ele>1138.0</ele><time>2026-03-29T08:41:00.419Z</time></trkpt><trkpt lat="41.9482726" lon="13.4604748"><ele>1137.4285714285716</ele><time>2026-03-29T08:42:16.413Z</time></trkpt><trkpt lat="41.948216" lon="13.4605275"><ele>1136.857142857143</ele><time>2026-03-29T08:42:21.359Z</time></trkpt><trkpt lat="41.948156" lon="13.4605861"><ele>1136.2857142857142</ele><time>2026-03-29T08:42:26.423Z</time></trkpt><trkpt lat="41.9480915" lon="13.4606294"><ele>1135.7142857142858</ele><time>2026-03-29T08:42:32.497Z</time></trkpt><trkpt lat="41.9480282" lon="13.4606447"><ele>1135.142857142857</ele><time>2026-03-29T08:42:41.413Z</time></trkpt><trkpt lat="41.9479644" lon="13.4606565"><ele>1134.5714285714287</ele><time>2026-03-29T08:43:43.415Z</time></trkpt><trkpt lat="41.947912" lon="13.4605919"><ele>1134.0</ele><time>2026-03-29T08:43:50.43Z</time></trkpt><trkpt lat="41.9479188" lon="13.4605003"><ele>1137.142857142857</ele><time>2026-03-29T08:43:58.414Z</time></trkpt><trkpt lat="41.9479476" lon="13.4604248"><ele>1140.2857142857142</ele><time>2026-03-29T08:44:08.467Z</time></trkpt><trkpt lat="41.9480029" lon="13.4603665"><ele>1143.4285714285716</ele><time>2026-03-29T08:44:18.438Z</time></trkpt><trkpt lat="41.9479841" lon="13.4602829"><ele>1146.5714285714284</ele><time>2026-03-29T08:44:27.446Z</time></trkpt><trkpt lat="41.9479502" lon="13.4602079"><ele>1149.7142857142858</ele><time>2026-03-29T08:44:38.415Z</time></trkpt><trkpt lat="41.9479715" lon="13.4601268"><ele>1152.857142857143</ele><time>2026-03-29T08:44:49.414Z</time></trkpt><trkpt lat="41.9479869" lon="13.4600379"><ele>1156.0</ele><time>2026-03-29T08:45:00.362Z</time></trkpt><trkpt lat="41.9479453" lon="13.4599741"><ele>1156.0</ele><time>2026-03-29T08:45:13.467Z</time></trkpt><trkpt lat="41.9479343" lon="13.4598836"><ele>1156.0</ele><time>2026-03-29T08:45:23.411Z</time></trkpt><trkpt lat="41.947902" lon="13.4598076"><ele>1156.0</ele><time>2026-03-29T08:45:32.424Z</time></trkpt><trkpt lat="41.9478713" lon="13.4597198"><ele>1156.0</ele><time>2026-03-29T08:45:46.401Z</time></trkpt><trkpt lat="41.9479103" lon="13.459649"><ele>1156.0</ele><time>2026-03-29T08:45:55.458Z</time></trkpt><trkpt lat="41.9479725" lon="13.4596184"><ele>1156.0</ele><time>2026-03-29T08:46:02.419Z</time></trkpt><trkpt lat="41.9479619" lon="13.4595335"><ele>1156.0</ele><time>2026-03-29T08:46:14.413Z</time></trkpt><trkpt lat="41.9480222" lon="13.4595049"><ele>1159.142857142857</ele><time>2026-03-29T08:46:25.432Z</time></trkpt><trkpt lat="41.9480198" lon="13.4594189"><ele>1162.2857142857142</ele><time>2026-03-29T08:46:35.415Z</time></trkpt><trkpt lat="41.9479884" lon="13.4593444"><ele>1165.4285714285713</ele><time>2026-03-29T08:46:45.468Z</time></trkpt><trkpt lat="41.9480213" lon="13.4592632"><ele>1168.5714285714284</ele><time>2026-03-29T08:48:40.43Z</time></trkpt><trkpt lat="41.9480251" lon="13.4591777"><ele>1171.7142857142856</ele><time>2026-03-29T08:48:47.413Z</time></trkpt><trkpt lat="41.9479935" lon="13.4590962"><ele>1174.857142857143</ele><time>2026-03-29T08:48:53.415Z</time></trkpt><trkpt lat="41.9479721" lon="13.4590115"><ele>1178.0</ele><time>2026-03-29T08:49:02.415Z</time></trkpt><trkpt lat="41.9479494" lon="13.4589282"><ele>1178.0</ele><time>2026-03-29T08:49:10.416Z</time></trkpt><trkpt lat="41.9479437" lon="13.4588398"><ele>1178.0</ele><time>2026-03-29T08:49:23.41Z</time></trkpt><trkpt lat="41.9479257" lon="13.458757"><ele>1178.0</ele><time>2026-03-29T08:49:31.425Z</time></trkpt><trkpt lat="41.9479601" lon="13.4586779"><ele>1178.0</ele><time>2026-03-29T08:49:45.467Z</time></trkpt><trkpt lat="41.9479765" lon="13.4585916"><ele>1178.0</ele><time>2026-03-29T08:49:57.384Z</time></trkpt><trkpt lat="41.9480271" lon="13.4585102"><ele>1178.0</ele><time>2026-03-29T08:50:33.412Z</time></trkpt><trkpt lat="41.9480835" lon="13.458452"><ele>1178.0</ele><time>2026-03-29T08:50:42.44Z</time></trkpt><trkpt lat="41.9481291" lon="13.4583842"><ele>1181.4285714285713</ele><time>2026-03-29T08:51:05.38Z</time></trkpt><trkpt lat="41.9481345" lon="13.4582858"><ele>1184.8571428571427</ele><time>2026-03-29T08:51:36.417Z</time></trkpt><trkpt lat="41.9481515" lon="13.4581886"><ele>1188.2857142857142</ele><time>2026-03-29T08:51:43.398Z</time></trkpt><trkpt lat="41.9481858" lon="13.4581168"><ele>1191.7142857142858</ele><time>2026-03-29T08:51:53.452Z</time></trkpt><trkpt lat="41.9481864" lon="13.4580272"><ele>1195.1428571428573</ele><time>2026-03-29T08:52:06.427Z</time></trkpt><trkpt lat="41.9481687" lon="13.4579412"><ele>1198.5714285714284</ele><time>2026-03-29T08:52:17.411Z</time></trkpt><trkpt lat="41.9481365" lon="13.4578586"><ele>1202.0</ele><time>2026-03-29T08:52:29.486Z</time></trkpt><trkpt lat="41.9481277" lon="13.4577714"><ele>1205.2857142857142</ele><time>2026-03-29T08:52:40.339Z</time></trkpt><trkpt lat="41.948115" lon="13.4576863"><ele>1208.5714285714287</ele><time>2026-03-29T08:52:51.414Z</time></trkpt><trkpt lat="41.9480871" lon="13.4575991"><ele>1211.857142857143</ele><time>2026-03-29T08:53:02.451Z</time></trkpt><trkpt lat="41.9481057" lon="13.4575086"><ele>1215.142857142857</ele><time>2026-03-29T08:53:14.42Z</time></trkpt><trkpt lat="41.9481258" lon="13.4574166"><ele>1218.4285714285716</ele><time>2026-03-29T08:53:55.412Z</time></trkpt><trkpt lat="41.9481436" lon="13.45732"><ele>1221.7142857142858</ele><time>2026-03-29T08:54:03.467Z</time></trkpt><trkpt lat="41.9481871" lon="13.4572576"><ele>1225.0</ele><time>2026-03-29T08:54:13.414Z</time></trkpt><trkpt lat="41.9482228" lon="13.4571823"><ele>1226.7142857142858</ele><time>2026-03-29T08:54:23.418Z</time></trkpt><trkpt lat="41.9481997" lon="13.4570985"><ele>1228.4285714285716</ele><time>2026-03-29T08:54:32.414Z</time></trkpt><trkpt lat="41.948232" lon="13.457021"><ele>1230.142857142857</ele><time>2026-03-29T08:54:45.446Z</time></trkpt><trkpt lat="41.9482973" lon="13.4569923"><ele>1231.857142857143</ele><time>2026-03-29T08:54:55.414Z</time></trkpt><trkpt lat="41.9483216" lon="13.456913"><ele>1233.5714285714287</ele><time>2026-03-29T08:55:07.412Z</time></trkpt><trkpt lat="41.9483472" lon="13.4568294"><ele>1235.2857142857142</ele><time>2026-03-29T09:00:07.412Z</time></trkpt><trkpt lat="41.9483532" lon="13.4567331"><ele>1237.0</ele><time>2026-03-29T09:00:16.418Z</time></trkpt><trkpt lat="41.9483474" lon="13.456638"><ele>1237.0</ele><time>2026-03-29T09:00:24.485Z</time></trkpt><trkpt lat="41.9483648" lon="13.4565491"><ele>1237.0</ele><time>2026-03-29T09:00:32.442Z</time></trkpt><trkpt lat="41.948409" lon="13.4564859"><ele>1237.0</ele><time>2026-03-29T09:00:39.413Z</time></trkpt><trkpt lat="41.9484376" lon="13.4563986"><ele>1237.0</ele><time>2026-03-29T09:00:46.423Z</time></trkpt><trkpt lat="41.9484352" lon="13.456304"><ele>1237.0</ele><time>2026-03-29T09:00:54.469Z</time></trkpt><trkpt lat="41.9484631" lon="13.4562161"><ele>1237.0</ele><time>2026-03-29T09:01:02.415Z</time></trkpt><trkpt lat="41.948492" lon="13.4561408"><ele>1237.0</ele><time>2026-03-29T09:01:08.449Z</time></trkpt><trkpt lat="41.9484843" lon="13.4560506"><ele>1237.2857142857142</ele><time>2026-03-29T09:01:15.419Z</time></trkpt><trkpt lat="41.9485088" lon="13.4559602"><ele>1237.5714285714287</ele><time>2026-03-29T09:01:23.436Z</time></trkpt><trkpt lat="41.9485252" lon="13.4558655"><ele>1237.857142857143</ele><time>2026-03-29T09:01:31.412Z</time></trkpt><trkpt lat="41.948528" lon="13.455775"><ele>1238.142857142857</ele><time>2026-03-29T09:01:39.429Z</time></trkpt><trkpt lat="41.9485252" lon="13.4556795"><ele>1238.4285714285716</ele><time>2026-03-29T09:01:48.485Z</time></trkpt><trkpt lat="41.948535" lon="13.455587"><ele>1238.7142857142858</ele><time>2026-03-29T09:01:57.432Z</time></trkpt><trkpt lat="41.9485275" lon="13.455499"><ele>1239.0</ele><time>2026-03-29T09:02:06.459Z</time></trkpt><trkpt lat="41.9485751" lon="13.4554339"><ele>1240.4285714285713</ele><time>2026-03-29T09:02:13.423Z</time></trkpt><trkpt lat="41.94864" lon="13.4553823"><ele>1241.857142857143</ele><time>2026-03-29T09:02:18.368Z</time></trkpt><trkpt lat="41.948671" lon="13.4553052"><ele>1243.2857142857142</ele><time>2026-03-29T09:02:28.467Z</time></trkpt><trkpt lat="41.9486717" lon="13.4552191"><ele>1244.7142857142858</ele><time>2026-03-29T09:02:36.456Z</time></trkpt><trkpt lat="41.9486689" lon="13.4551339"><ele>1246.142857142857</ele><time>2026-03-29T09:02:43.416Z</time></trkpt><trkpt lat="41.9486316" lon="13.4550641"><ele>1247.5714285714284</ele><time>2026-03-29T09:02:52.448Z</time></trkpt><trkpt lat="41.9486298" lon="13.4549737"><ele>1249.0</ele><time>2026-03-29T09:03:01.413Z</time></trkpt><trkpt lat="41.9486304" lon="13.4548845"><ele>1248.9999999999998</ele><time>2026-03-29T09:03:08.389Z</time></trkpt><trkpt lat="41.9486242" lon="13.454798"><ele>1249.0</ele><time>2026-03-29T09:03:18.418Z</time></trkpt><trkpt lat="41.9485985" lon="13.4547205"><ele>1249.0</ele><time>2026-03-29T09:03:28.415Z</time></trkpt><trkpt lat="41.9485755" lon="13.45463"><ele>1249.0</ele><time>2026-03-29T09:03:38.415Z</time></trkpt><trkpt lat="41.9485294" lon="13.4545521"><ele>1249.0</ele><time>2026-03-29T09:03:45.453Z</time></trkpt><trkpt lat="41.9484737" lon="13.4545047"><ele>1248.9999999999998</ele><time>2026-03-29T09:03:54.416Z</time></trkpt><trkpt lat="41.9484418" lon="13.4544275"><ele>1249.0</ele><time>2026-03-29T09:04:03.424Z</time></trkpt><trkpt lat="41.9483777" lon="13.4544129"><ele>1252.7142857142856</ele><time>2026-03-29T09:04:15.426Z</time></trkpt><trkpt lat="41.9483364" lon="13.4543393"><ele>1256.4285714285713</ele><time>2026-03-29T09:04:27.414Z</time></trkpt><trkpt lat="41.9483499" lon="13.4542549"><ele>1260.142857142857</ele><time>2026-03-29T09:04:37.453Z</time></trkpt><trkpt lat="41.948339" lon="13.4541576"><ele>1263.8571428571427</ele><time>2026-03-29T09:04:53.446Z</time></trkpt><trkpt lat="41.9482836" lon="13.4541036"><ele>1267.5714285714284</ele><time>2026-03-29T09:05:24.425Z</time></trkpt><trkpt lat="41.9482795" lon="13.4540105"><ele>1271.2857142857142</ele><time>2026-03-29T09:05:32.413Z</time></trkpt><trkpt lat="41.948266" lon="13.4539197"><ele>1275.0</ele><time>2026-03-29T09:05:39.415Z</time></trkpt><trkpt lat="41.9482537" lon="13.4538312"><ele>1277.0</ele><time>2026-03-29T09:05:47.419Z</time></trkpt><trkpt lat="41.9482691" lon="13.4537438"><ele>1279.0</ele><time>2026-03-29T09:05:55.418Z</time></trkpt><trkpt lat="41.9482698" lon="13.4536547"><ele>1281.0</ele><time>2026-03-29T09:06:03.452Z</time></trkpt><trkpt lat="41.9482774" lon="13.453569"><ele>1283.0</ele><time>2026-03-29T09:06:10.414Z</time></trkpt><trkpt lat="41.948285" lon="13.4534795"><ele>1285.0</ele><time>2026-03-29T09:06:18.437Z</time></trkpt><trkpt lat="41.9483216" lon="13.4534067"><ele>1287.0</ele><time>2026-03-29T09:06:27.416Z</time></trkpt><trkpt lat="41.948283" lon="13.4533379"><ele>1289.0</ele><time>2026-03-29T09:06:36.429Z</time></trkpt><trkpt lat="41.9482455" lon="13.4532666"><ele>1289.0</ele><time>2026-03-29T09:06:46.42Z</time></trkpt><trkpt lat="41.94822" lon="13.4531819"><ele>1289.0</ele><time>2026-03-29T09:06:54.445Z</time></trkpt><trkpt lat="41.9481899" lon="13.4531062"><ele>1289.0</ele><time>2026-03-29T09:07:05.467Z</time></trkpt><trkpt lat="41.9482038" lon="13.4530236"><ele>1289.0</ele><time>2026-03-29T09:07:13.414Z</time></trkpt><trkpt lat="41.9482448" lon="13.4529583"><ele>1289.0</ele><time>2026-03-29T09:07:22.418Z</time></trkpt><trkpt lat="41.9482159" lon="13.4528829"><ele>1289.0</ele><time>2026-03-29T09:07:30.453Z</time></trkpt><trkpt lat="41.9481979" lon="13.4527973"><ele>1289.0</ele><time>2026-03-29T09:07:39.418Z</time></trkpt><trkpt lat="41.9481905" lon="13.452711"><ele>1290.7142857142858</ele><time>2026-03-29T09:07:46.445Z</time></trkpt><trkpt lat="41.9481605" lon="13.4526289"><ele>1292.4285714285713</ele><time>2026-03-29T09:07:53.417Z</time></trkpt><trkpt lat="41.94819" lon="13.4525407"><ele>1294.142857142857</ele><time>2026-03-29T09:08:01.431Z</time></trkpt><trkpt lat="41.9481993" lon="13.4524538"><ele>1295.857142857143</ele><time>2026-03-29T09:08:10.482Z</time></trkpt><trkpt lat="41.9482302" lon="13.4523752"><ele>1297.5714285714287</ele><time>2026-03-29T09:08:18.384Z</time></trkpt><trkpt lat="41.9482098" lon="13.4522897"><ele>1299.2857142857142</ele><time>2026-03-29T09:08:29.467Z</time></trkpt><trkpt lat="41.948189" lon="13.4522006"><ele>1301.0</ele><time>2026-03-29T09:08:39.45Z</time></trkpt><trkpt lat="41.9481793" lon="13.4521066"><ele>1303.142857142857</ele><time>2026-03-29T09:08:50.42Z</time></trkpt><trkpt lat="41.9481785" lon="13.4520214"><ele>1305.2857142857142</ele><time>2026-03-29T09:08:58.415Z</time></trkpt><trkpt lat="41.9481999" lon="13.4519301"><ele>1307.4285714285716</ele><time>2026-03-29T09:09:07.414Z</time></trkpt><trkpt lat="41.9481847" lon="13.4518425"><ele>1309.5714285714284</ele><time>2026-03-29T09:09:14.451Z</time></trkpt><trkpt lat="41.9481223" lon="13.4517512"><ele>1311.7142857142858</ele><time>2026-03-29T09:10:08.42Z</time></trkpt><trkpt lat="41.9481017" lon="13.4516627"><ele>1313.857142857143</ele><time>2026-03-29T09:10:15.413Z</time></trkpt><trkpt lat="41.9480898" lon="13.451579"><ele>1316.0</ele><time>2026-03-29T09:10:22.445Z</time></trkpt><trkpt lat="41.9481242" lon="13.4515043"><ele>1316.0</ele><time>2026-03-29T09:10:29.416Z</time></trkpt><trkpt lat="41.9481249" lon="13.4514184"><ele>1316.0</ele><time>2026-03-29T09:10:36.426Z</time></trkpt><trkpt lat="41.9481079" lon="13.4513318"><ele>1316.0</ele><time>2026-03-29T09:10:44.416Z</time></trkpt><trkpt lat="41.9481167" lon="13.4512427"><ele>1316.0</ele><time>2026-03-29T09:10:52.419Z</time></trkpt><trkpt lat="41.94811" lon="13.4511517"><ele>1316.0</ele><time>2026-03-29T09:11:00.439Z</time></trkpt><trkpt lat="41.9480791" lon="13.4510736"><ele>1316.0</ele><time>2026-03-29T09:11:09.419Z</time></trkpt><trkpt lat="41.9480738" lon="13.4509864"><ele>1316.0</ele><time>2026-03-29T09:11:17.415Z</time></trkpt><trkpt lat="41.9480767" lon="13.4508955"><ele>1317.857142857143</ele><time>2026-03-29T09:11:23.464Z</time></trkpt><trkpt lat="41.9480941" lon="13.4508106"><ele>1319.7142857142858</ele><time>2026-03-29T09:11:31.443Z</time></trkpt><trkpt lat="41.9480909" lon="13.4507244"><ele>1321.5714285714284</ele><time>2026-03-29T09:11:41.413Z</time></trkpt><trkpt lat="41.9480538" lon="13.4506429"><ele>1323.4285714285716</ele><time>2026-03-29T09:11:52.416Z</time></trkpt><trkpt lat="41.9480098" lon="13.4505786"><ele>1325.2857142857142</ele><time>2026-03-29T09:12:00.427Z</time></trkpt><trkpt lat="41.9480095" lon="13.4504895"><ele>1327.142857142857</ele><time>2026-03-29T09:12:09.362Z</time></trkpt><trkpt lat="41.9480266" lon="13.4503904"><ele>1329.0</ele><time>2026-03-29T09:12:40.441Z</time></trkpt><trkpt lat="41.948009" lon="13.4503008"><ele>1331.2857142857142</ele><time>2026-03-29T09:12:47.433Z</time></trkpt><trkpt lat="41.9480064" lon="13.4502109"><ele>1333.5714285714287</ele><time>2026-03-29T09:12:56.433Z</time></trkpt><trkpt lat="41.947964" lon="13.4501345"><ele>1335.857142857143</ele><time>2026-03-29T09:13:04.415Z</time></trkpt><trkpt lat="41.9479885" lon="13.4500475"><ele>1338.142857142857</ele><time>2026-03-29T09:13:12.42Z</time></trkpt><trkpt lat="41.9480396" lon="13.4499788"><ele>1340.4285714285713</ele><time>2026-03-29T09:13:20.27Z</time></trkpt><trkpt lat="41.9480661" lon="13.4499018"><ele>1342.7142857142858</ele><time>2026-03-29T09:13:28.417Z</time></trkpt><trkpt lat="41.9481115" lon="13.4498397"><ele>1345.0</ele><time>2026-03-29T09:16:01.467Z</time></trkpt><trkpt lat="41.9481173" lon="13.4497544"><ele>1345.0</ele><time>2026-03-29T09:16:09.453Z</time></trkpt><trkpt lat="41.948146" lon="13.4496699"><ele>1345.0</ele><time>2026-03-29T09:16:17.468Z</time></trkpt><trkpt lat="41.9481234" lon="13.4495819"><ele>1345.0</ele><time>2026-03-29T09:16:28.463Z</time></trkpt><trkpt lat="41.9480874" lon="13.4495086"><ele>1345.0</ele><time>2026-03-29T09:16:38.364Z</time></trkpt><trkpt lat="41.9480655" lon="13.4494212"><ele>1345.0</ele><time>2026-03-29T09:16:48.415Z</time></trkpt><trkpt lat="41.9480248" lon="13.4493522"><ele>1345.0</ele><time>2026-03-29T09:16:56.399Z</time></trkpt><trkpt lat="41.9480223" lon="13.4494466"><ele>1345.0</ele><time>2026-03-29T09:19:44.417Z</time></trkpt><trkpt lat="41.9479595" lon="13.4494787"><ele>1347.4285714285716</ele><time>2026-03-29T09:19:50.41Z</time></trkpt><trkpt lat="41.9478989" lon="13.4494345"><ele>1349.857142857143</ele><time>2026-03-29T09:19:57.414Z</time></trkpt><trkpt lat="41.9478434" lon="13.4493935"><ele>1352.2857142857142</ele><time>2026-03-29T09:20:03.413Z</time></trkpt><trkpt lat="41.9478194" lon="13.4494764"><ele>1354.7142857142858</ele><time>2026-03-29T09:20:44.447Z</time></trkpt><trkpt lat="41.947762" lon="13.4495225"><ele>1357.142857142857</ele><time>2026-03-29T09:20:57.422Z</time></trkpt><trkpt lat="41.9477075" lon="13.4494768"><ele>1359.5714285714287</ele><time>2026-03-29T09:21:04.415Z</time></trkpt><trkpt lat="41.9476417" lon="13.4494697"><ele>1362.0</ele><time>2026-03-29T09:21:14.42Z</time></trkpt><trkpt lat="41.9475797" lon="13.4494482"><ele>1360.7142857142858</ele><time>2026-03-29T09:21:24.478Z</time></trkpt><trkpt lat="41.9475148" lon="13.449447"><ele>1359.4285714285716</ele><time>2026-03-29T09:22:37.413Z</time></trkpt><trkpt lat="41.9474896" lon="13.4495292"><ele>1358.1428571428573</ele><time>2026-03-29T09:22:43.44Z</time></trkpt><trkpt lat="41.9474915" lon="13.4496258"><ele>1356.857142857143</ele><time>2026-03-29T09:22:49.419Z</time></trkpt><trkpt lat="41.9474648" lon="13.4497039"><ele>1355.5714285714284</ele><time>2026-03-29T09:23:05.442Z</time></trkpt><trkpt lat="41.9474101" lon="13.4497484"><ele>1354.2857142857144</ele><time>2026-03-29T09:23:13.416Z</time></trkpt><trkpt lat="41.9473561" lon="13.449691"><ele>1353.0</ele><time>2026-03-29T09:23:20.481Z</time></trkpt><trkpt lat="41.9472985" lon="13.4497405"><ele>1350.142857142857</ele><time>2026-03-29T09:23:27.439Z</time></trkpt><trkpt lat="41.9472405" lon="13.4497777"><ele>1347.2857142857142</ele><time>2026-03-29T09:23:35.441Z</time></trkpt><trkpt lat="41.9472135" lon="13.449855"><ele>1344.4285714285713</ele><time>2026-03-29T09:23:43.422Z</time></trkpt><trkpt lat="41.947175" lon="13.4499328"><ele>1341.5714285714284</ele><time>2026-03-29T09:23:50.427Z</time></trkpt><trkpt lat="41.9471202" lon="13.4499853"><ele>1338.7142857142858</ele><time>2026-03-29T09:23:59.478Z</time></trkpt><trkpt lat="41.947117" lon="13.4500777"><ele>1335.8571428571427</ele><time>2026-03-29T09:24:06.422Z</time></trkpt><trkpt lat="41.9470926" lon="13.4501612"><ele>1333.0</ele><time>2026-03-29T09:24:13.459Z</time></trkpt><trkpt lat="41.9470818" lon="13.450252"><ele>1332.9999999999998</ele><time>2026-03-29T09:24:23.444Z</time></trkpt><trkpt lat="41.9470846" lon="13.4503409"><ele>1333.0</ele><time>2026-03-29T09:24:30.457Z</time></trkpt><trkpt lat="41.9470565" lon="13.4504257"><ele>1333.0</ele><time>2026-03-29T09:24:40.416Z</time></trkpt><trkpt lat="41.9470349" lon="13.4505171"><ele>1333.0</ele><time>2026-03-29T09:24:50.413Z</time></trkpt><trkpt lat="41.947057" lon="13.4505993"><ele>1333.0</ele><time>2026-03-29T09:25:29.262Z</time></trkpt><trkpt lat="41.9470363" lon="13.4506817"><ele>1332.9999999999998</ele><time>2026-03-29T09:25:34.427Z</time></trkpt><trkpt lat="41.9470092" lon="13.4507658"><ele>1333.0</ele><time>2026-03-29T09:25:42.417Z</time></trkpt><trkpt lat="41.9469628" lon="13.4508287"><ele>1330.4285714285713</ele><time>2026-03-29T09:25:50.445Z</time></trkpt><trkpt lat="41.9469073" lon="13.4508773"><ele>1327.857142857143</ele><time>2026-03-29T09:26:00.404Z</time></trkpt><trkpt lat="41.9468695" lon="13.4509658"><ele>1325.2857142857142</ele><time>2026-03-29T09:26:08.328Z</time></trkpt><trkpt lat="41.9467954" lon="13.4509672"><ele>1322.7142857142858</ele><time>2026-03-29T09:26:25.42Z</time></trkpt><trkpt lat="41.9467632" lon="13.4510439"><ele>1320.142857142857</ele><time>2026-03-29T09:26:32.415Z</time></trkpt><trkpt lat="41.9467034" lon="13.45109"><ele>1317.5714285714284</ele><time>2026-03-29T09:26:44.384Z</time></trkpt><trkpt lat="41.9467021" lon="13.4511817"><ele>1315.0</ele><time>2026-03-29T09:26:52.417Z</time></trkpt><trkpt lat="41.9467008" lon="13.4512707"><ele>1312.857142857143</ele><time>2026-03-29T09:26:59.416Z</time></trkpt><trkpt lat="41.9467457" lon="13.4513401"><ele>1310.7142857142858</ele><time>2026-03-29T09:27:06.416Z</time></trkpt><trkpt lat="41.9467884" lon="13.4514187"><ele>1308.5714285714284</ele><time>2026-03-29T09:27:16.4Z</time></trkpt><trkpt lat="41.9467946" lon="13.4515129"><ele>1306.4285714285716</ele><time>2026-03-29T09:27:25.44Z</time></trkpt><trkpt lat="41.9467691" lon="13.4516022"><ele>1304.2857142857144</ele><time>2026-03-29T09:27:33.406Z</time></trkpt><trkpt lat="41.9467255" lon="13.4516747"><ele>1302.142857142857</ele><time>2026-03-29T09:27:40.451Z</time></trkpt><trkpt lat="41.9467214" lon="13.4517626"><ele>1300.0</ele><time>2026-03-29T09:27:49.416Z</time></trkpt><trkpt lat="41.9467377" lon="13.4518579"><ele>1300.0</ele><time>2026-03-29T09:27:57.468Z</time></trkpt><trkpt lat="41.9467186" lon="13.4519541"><ele>1300.0</ele><time>2026-03-29T09:28:04.467Z</time></trkpt><trkpt lat="41.9466806" lon="13.4520285"><ele>1300.0</ele><time>2026-03-29T09:28:11.467Z</time></trkpt><trkpt lat="41.9467361" lon="13.4520949"><ele>1300.0</ele><time>2026-03-29T09:28:18.415Z</time></trkpt><trkpt lat="41.9467376" lon="13.4521853"><ele>1300.0</ele><time>2026-03-29T09:28:26.208Z</time></trkpt><trkpt lat="41.9466934" lon="13.4522492"><ele>1300.0</ele><time>2026-03-29T09:28:33.4Z</time></trkpt><trkpt lat="41.9466895" lon="13.452335"><ele>1300.0</ele><time>2026-03-29T09:28:41.447Z</time></trkpt><trkpt lat="41.9466899" lon="13.4524334"><ele>1294.857142857143</ele><time>2026-03-29T09:28:49.447Z</time></trkpt><trkpt lat="41.9466941" lon="13.4525223"><ele>1289.7142857142858</ele><time>2026-03-29T09:29:00.414Z</time></trkpt><trkpt lat="41.9466766" lon="13.4526103"><ele>1284.5714285714287</ele><time>2026-03-29T09:29:09.462Z</time></trkpt><trkpt lat="41.9466153" lon="13.4526378"><ele>1279.4285714285716</ele><time>2026-03-29T09:29:16.419Z</time></trkpt><trkpt lat="41.9465736" lon="13.4527064"><ele>1274.2857142857142</ele><time>2026-03-29T09:29:23.348Z</time></trkpt><trkpt lat="41.9465761" lon="13.4527987"><ele>1269.1428571428573</ele><time>2026-03-29T09:29:31.467Z</time></trkpt><trkpt lat="41.946611" lon="13.4528823"><ele>1264.0</ele><time>2026-03-29T09:29:40.426Z</time></trkpt><trkpt lat="41.9465936" lon="13.4529669"><ele>1261.857142857143</ele><time>2026-03-29T09:29:46.474Z</time></trkpt><trkpt lat="41.9465722" lon="13.453056"><ele>1259.7142857142858</ele><time>2026-03-29T09:29:55.425Z</time></trkpt><trkpt lat="41.9465554" lon="13.4531414"><ele>1257.5714285714284</ele><time>2026-03-29T09:30:04.416Z</time></trkpt><trkpt lat="41.9465336" lon="13.453235"><ele>1255.4285714285716</ele><time>2026-03-29T09:30:10.413Z</time></trkpt><trkpt lat="41.9465364" lon="13.4533274"><ele>1253.2857142857142</ele><time>2026-03-29T09:30:18.456Z</time></trkpt><trkpt lat="41.9465651" lon="13.4534033"><ele>1251.142857142857</ele><time>2026-03-29T09:30:26.42Z</time></trkpt><trkpt lat="41.946523" lon="13.4534754"><ele>1249.0</ele><time>2026-03-29T09:30:35.454Z</time></trkpt><trkpt lat="41.9465462" lon="13.4535584"><ele>1248.9999999999998</ele><time>2026-03-29T09:30:45.417Z</time></trkpt><trkpt lat="41.9465339" lon="13.4536439"><ele>1249.0</ele><time>2026-03-29T09:31:03.438Z</time></trkpt><trkpt lat="41.9464844" lon="13.4536969"><ele>1249.0</ele><time>2026-03-29T09:31:10.368Z</time></trkpt><trkpt lat="41.9464613" lon="13.4537854"><ele>1249.0</ele><time>2026-03-29T09:31:19.415Z</time></trkpt><trkpt lat="41.9464784" lon="13.4538686"><ele>1249.0</ele><time>2026-03-29T09:31:27.451Z</time></trkpt><trkpt lat="41.9464586" lon="13.4539515"><ele>1248.9999999999998</ele><time>2026-03-29T09:31:37.416Z</time></trkpt><trkpt lat="41.9464644" lon="13.4540374"><ele>1249.0</ele><time>2026-03-29T09:31:47.419Z</time></trkpt><trkpt lat="41.9464429" lon="13.4541187"><ele>1246.4285714285713</ele><time>2026-03-29T09:31:56.415Z</time></trkpt><trkpt lat="41.9464364" lon="13.4542094"><ele>1243.857142857143</ele><time>2026-03-29T09:32:04.326Z</time></trkpt><trkpt lat="41.9464379" lon="13.4542955"><ele>1241.2857142857142</ele><time>2026-03-29T09:32:12.415Z</time></trkpt><trkpt lat="41.9463954" lon="13.4543596"><ele>1238.7142857142858</ele><time>2026-03-29T09:32:22.292Z</time></trkpt><trkpt lat="41.9463808" lon="13.4544559"><ele>1236.142857142857</ele><time>2026-03-29T09:32:31.44Z</time></trkpt><trkpt lat="41.9463969" lon="13.4545387"><ele>1233.5714285714284</ele><time>2026-03-29T09:32:37.414Z</time></trkpt><trkpt lat="41.9464203" lon="13.4546284"><ele>1231.0</ele><time>2026-03-29T09:32:45.413Z</time></trkpt><trkpt lat="41.9464338" lon="13.4547122"><ele>1228.7142857142858</ele><time>2026-03-29T09:32:51.303Z</time></trkpt><trkpt lat="41.9464151" lon="13.4547943"><ele>1226.4285714285716</ele><time>2026-03-29T09:32:59.413Z</time></trkpt><trkpt lat="41.9464203" lon="13.4548835"><ele>1224.1428571428573</ele><time>2026-03-29T09:33:06.467Z</time></trkpt><trkpt lat="41.9464479" lon="13.45496"><ele>1221.857142857143</ele><time>2026-03-29T09:33:23.418Z</time></trkpt><trkpt lat="41.9464772" lon="13.4550374"><ele>1219.5714285714287</ele><time>2026-03-29T09:33:29.446Z</time></trkpt><trkpt lat="41.9465038" lon="13.4551222"><ele>1217.2857142857144</ele><time>2026-03-29T09:33:38.417Z</time></trkpt><trkpt lat="41.946539" lon="13.4552004"><ele>1215.0</ele><time>2026-03-29T09:33:45.437Z</time></trkpt><trkpt lat="41.9465954" lon="13.4552548"><ele>1215.0000000000002</ele><time>2026-03-29T09:33:54.413Z</time></trkpt><trkpt lat="41.9466233" lon="13.4553358"><ele>1215.0</ele><time>2026-03-29T09:34:02.434Z</time></trkpt><trkpt lat="41.946645" lon="13.4554195"><ele>1215.0</ele><time>2026-03-29T09:34:10.415Z</time></trkpt><trkpt lat="41.9466736" lon="13.4555013"><ele>1215.0</ele><time>2026-03-29T09:34:17.419Z</time></trkpt><trkpt lat="41.946672" lon="13.4555899"><ele>1215.0</ele><time>2026-03-29T09:34:24.459Z</time></trkpt><trkpt lat="41.946628" lon="13.4556711"><ele>1215.0000000000002</ele><time>2026-03-29T09:34:31.419Z</time></trkpt><trkpt lat="41.9466024" lon="13.4557619"><ele>1215.0</ele><time>2026-03-29T09:34:38.439Z</time></trkpt><trkpt lat="41.9465626" lon="13.4558433"><ele>1214.4285714285716</ele><time>2026-03-29T09:34:46.416Z</time></trkpt><trkpt lat="41.9465682" lon="13.4559391"><ele>1213.857142857143</ele><time>2026-03-29T09:34:54.446Z</time></trkpt><trkpt lat="41.946626" lon="13.4559773"><ele>1213.2857142857142</ele><time>2026-03-29T09:34:59.459Z</time></trkpt><trkpt lat="41.9466598" lon="13.4560538"><ele>1212.7142857142858</ele><time>2026-03-29T09:35:06.421Z</time></trkpt><trkpt lat="41.9466685" lon="13.4561565"><ele>1212.142857142857</ele><time>2026-03-29T09:35:13.439Z</time></trkpt><trkpt lat="41.9467066" lon="13.4562299"><ele>1211.5714285714287</ele><time>2026-03-29T09:35:22.445Z</time></trkpt><trkpt lat="41.9467248" lon="13.4563247"><ele>1211.0</ele><time>2026-03-29T09:35:34.458Z</time></trkpt><trkpt lat="41.9467318" lon="13.4564204"><ele>1211.0</ele><time>2026-03-29T09:35:43.467Z</time></trkpt><trkpt lat="41.9467204" lon="13.4565067"><ele>1211.0</ele><time>2026-03-29T09:35:52.418Z</time></trkpt><trkpt lat="41.9467087" lon="13.4566025"><ele>1211.0</ele><time>2026-03-29T09:36:02.417Z</time></trkpt><trkpt lat="41.9467215" lon="13.4566906"><ele>1211.0</ele><time>2026-03-29T09:36:10.463Z</time></trkpt><trkpt lat="41.946719" lon="13.4567875"><ele>1211.0</ele><time>2026-03-29T09:36:20.421Z</time></trkpt><trkpt lat="41.9466803" lon="13.4568667"><ele>1211.0</ele><time>2026-03-29T09:36:29.415Z</time></trkpt><trkpt lat="41.9467093" lon="13.4569505"><ele>1211.0</ele><time>2026-03-29T09:36:37.401Z</time></trkpt><trkpt lat="41.9467092" lon="13.4570408"><ele>1204.5714285714287</ele><time>2026-03-29T09:36:46.469Z</time></trkpt><trkpt lat="41.9466853" lon="13.4571196"><ele>1198.142857142857</ele><time>2026-03-29T09:36:57.43Z</time></trkpt><trkpt lat="41.9466376" lon="13.4571761"><ele>1191.7142857142858</ele><time>2026-03-29T09:37:04.365Z</time></trkpt><trkpt lat="41.9466045" lon="13.4572551"><ele>1185.2857142857142</ele><time>2026-03-29T09:37:13.328Z</time></trkpt><trkpt lat="41.9465739" lon="13.4573382"><ele>1178.857142857143</ele><time>2026-03-29T09:37:26.442Z</time></trkpt><trkpt lat="41.9465641" lon="13.4574225"><ele>1172.4285714285716</ele><time>2026-03-29T09:37:39.417Z</time></trkpt><trkpt lat="41.946623" lon="13.4574585"><ele>1166.0</ele><time>2026-03-29T09:37:48.421Z</time></trkpt><trkpt lat="41.9465933" lon="13.4575355"><ele>1166.0000000000002</ele><time>2026-03-29T09:37:57.473Z</time></trkpt><trkpt lat="41.9466052" lon="13.4576293"><ele>1166.0</ele><time>2026-03-29T09:38:06.423Z</time></trkpt><trkpt lat="41.9466009" lon="13.4577173"><ele>1166.0</ele><time>2026-03-29T09:38:14.384Z</time></trkpt><trkpt lat="41.9465562" lon="13.4577821"><ele>1166.0</ele><time>2026-03-29T09:38:49.418Z</time></trkpt><trkpt lat="41.9465709" lon="13.4578655"><ele>1166.0</ele><time>2026-03-29T09:38:58.42Z</time></trkpt><trkpt lat="41.9465531" lon="13.4579498"><ele>1166.0000000000002</ele><time>2026-03-29T09:39:07.421Z</time></trkpt><trkpt lat="41.9465615" lon="13.4580379"><ele>1166.0</ele><time>2026-03-29T09:39:16.423Z</time></trkpt><trkpt lat="41.946562" lon="13.4581293"><ele>1163.1428571428573</ele><time>2026-03-29T09:39:29.42Z</time></trkpt><trkpt lat="41.9465469" lon="13.4582132"><ele>1160.2857142857142</ele><time>2026-03-29T09:39:39.416Z</time></trkpt><trkpt lat="41.9465195" lon="13.4582944"><ele>1157.4285714285716</ele><time>2026-03-29T09:39:48.417Z</time></trkpt><trkpt lat="41.9464589" lon="13.4583386"><ele>1154.5714285714287</ele><time>2026-03-29T09:39:59.416Z</time></trkpt><trkpt lat="41.946495" lon="13.4584141"><ele>1151.7142857142858</ele><time>2026-03-29T09:40:10.305Z</time></trkpt><trkpt lat="41.9464642" lon="13.4584946"><ele>1148.857142857143</ele><time>2026-03-29T09:40:20.468Z</time></trkpt><trkpt lat="41.9464006" lon="13.4585271"><ele>1146.0</ele><time>2026-03-29T09:40:31.467Z</time></trkpt><trkpt lat="41.9464285" lon="13.4586139"><ele>1146.0</ele><time>2026-03-29T09:40:41.402Z</time></trkpt><trkpt lat="41.9464612" lon="13.458688"><ele>1146.0</ele><time>2026-03-29T09:40:55.415Z</time></trkpt><trkpt lat="41.9465061" lon="13.4587517"><ele>1146.0</ele><time>2026-03-29T09:41:01.421Z</time></trkpt><trkpt lat="41.94652" lon="13.4588377"><ele>1146.0</ele><time>2026-03-29T09:41:08.461Z</time></trkpt><trkpt lat="41.9465266" lon="13.4589249"><ele>1146.0</ele><time>2026-03-29T09:41:16.425Z</time></trkpt><trkpt lat="41.9464887" lon="13.4589985"><ele>1146.0</ele><time>2026-03-29T09:41:23.448Z</time></trkpt><trkpt lat="41.94654" lon="13.4590605"><ele>1146.0</ele><time>2026-03-29T09:41:43.416Z</time></trkpt><trkpt lat="41.9465607" lon="13.4591508"><ele>1142.5714285714287</ele><time>2026-03-29T09:41:51.415Z</time></trkpt><trkpt lat="41.9465522" lon="13.4592353"><ele>1139.1428571428573</ele><time>2026-03-29T09:41:56.324Z</time></trkpt><trkpt lat="41.9465775" lon="13.4593269"><ele>1135.7142857142858</ele><time>2026-03-29T09:42:02.085Z</time></trkpt><trkpt lat="41.9466045" lon="13.4594199"><ele>1132.2857142857142</ele><time>2026-03-29T09:42:07.979Z</time></trkpt><trkpt lat="41.9466282" lon="13.4595033"><ele>1128.8571428571427</ele><time>2026-03-29T09:42:13.491Z</time></trkpt><trkpt lat="41.9466375" lon="13.4595986"><ele>1125.4285714285713</ele><time>2026-03-29T09:42:19.343Z</time></trkpt><trkpt lat="41.9466348" lon="13.4596902"><ele>1122.0</ele><time>2026-03-29T09:42:26.263Z</time></trkpt><trkpt lat="41.9466592" lon="13.459775"><ele>1119.5714285714284</ele><time>2026-03-29T09:42:31.438Z</time></trkpt><trkpt lat="41.9466784" lon="13.4598649"><ele>1117.142857142857</ele><time>2026-03-29T09:42:37.416Z</time></trkpt><trkpt lat="41.9466953" lon="13.459956"><ele>1114.7142857142858</ele><time>2026-03-29T09:42:43.415Z</time></trkpt><trkpt lat="41.9467123" lon="13.4600549"><ele>1112.2857142857142</ele><time>2026-03-29T09:42:49.441Z</time></trkpt><trkpt lat="41.9467288" lon="13.4601394"><ele>1109.857142857143</ele><time>2026-03-29T09:42:55.402Z</time></trkpt><trkpt lat="41.9467492" lon="13.4602338"><ele>1107.4285714285713</ele><time>2026-03-29T09:43:01.323Z</time></trkpt><trkpt lat="41.9467677" lon="13.4603264"><ele>1105.0</ele><time>2026-03-29T09:43:07.229Z</time></trkpt><trkpt lat="41.9467834" lon="13.4604192"><ele>1107.857142857143</ele><time>2026-03-29T09:43:13.163Z</time></trkpt><trkpt lat="41.9467996" lon="13.460504"><ele>1110.7142857142858</ele><time>2026-03-29T09:43:18.182Z</time></trkpt><trkpt lat="41.9468208" lon="13.4606072"><ele>1113.5714285714287</ele><time>2026-03-29T09:43:24.206Z</time></trkpt><trkpt lat="41.9468346" lon="13.4606976"><ele>1116.4285714285716</ele><time>2026-03-29T09:43:30.202Z</time></trkpt><trkpt lat="41.94685" lon="13.4607817"><ele>1119.2857142857144</ele><time>2026-03-29T09:43:35.417Z</time></trkpt><trkpt lat="41.9468624" lon="13.4608736"><ele>1122.142857142857</ele><time>2026-03-29T09:43:41.44Z</time></trkpt><trkpt lat="41.946871" lon="13.460967"><ele>1125.0</ele><time>2026-03-29T09:43:47.42Z</time></trkpt><trkpt lat="41.9468942" lon="13.4610585"><ele>1125.0</ele><time>2026-03-29T09:43:53.42Z</time></trkpt><trkpt lat="41.9469026" lon="13.4611522"><ele>1125.0</ele><time>2026-03-29T09:43:59.389Z</time></trkpt><trkpt lat="41.9469213" lon="13.461234"><ele>1125.0</ele><time>2026-03-29T09:44:04.445Z</time></trkpt><trkpt lat="41.9469493" lon="13.4613363"><ele>1125.0</ele><time>2026-03-29T09:44:11.494Z</time></trkpt><trkpt lat="41.9469831" lon="13.4614136"><ele>1125.0</ele><time>2026-03-29T09:44:17.445Z</time></trkpt><trkpt lat="41.9470046" lon="13.4614955"><ele>1125.0</ele><time>2026-03-29T09:44:22.416Z</time></trkpt><trkpt lat="41.9470144" lon="13.4615913"><ele>1125.0</ele><time>2026-03-29T09:44:28.415Z</time></trkpt><trkpt lat="41.9470092" lon="13.4616866"><ele>1122.5714285714287</ele><time>2026-03-29T09:44:34.248Z</time></trkpt><trkpt lat="41.9470225" lon="13.4617814"><ele>1120.1428571428573</ele><time>2026-03-29T09:44:40.342Z</time></trkpt><trkpt lat="41.9470411" lon="13.4618671"><ele>1117.7142857142858</ele><time>2026-03-29T09:44:46.467Z</time></trkpt><trkpt lat="41.9470407" lon="13.4619577"><ele>1115.2857142857142</ele><time>2026-03-29T09:44:52.445Z</time></trkpt><trkpt lat="41.9470474" lon="13.462062"><ele>1112.8571428571427</ele><time>2026-03-29T09:52:11.418Z</time></trkpt><trkpt lat="41.9470477" lon="13.4621527"><ele>1110.4285714285713</ele><time>2026-03-29T09:52:17.447Z</time></trkpt><trkpt lat="41.9470411" lon="13.4622455"><ele>1108.0</ele><time>2026-03-29T09:52:24.432Z</time></trkpt><trkpt lat="41.9470274" lon="13.4623341"><ele>1105.7142857142858</ele><time>2026-03-29T09:52:32.343Z</time></trkpt><trkpt lat="41.9470197" lon="13.4624207"><ele>1103.4285714285713</ele><time>2026-03-29T09:52:39.322Z</time></trkpt><trkpt lat="41.9470465" lon="13.462499"><ele>1101.142857142857</ele><time>2026-03-29T09:52:45.437Z</time></trkpt><trkpt lat="41.9470572" lon="13.4625871"><ele>1098.857142857143</ele><time>2026-03-29T09:52:53.341Z</time></trkpt><trkpt lat="41.9470718" lon="13.4626721"><ele>1096.5714285714284</ele><time>2026-03-29T09:53:01.378Z</time></trkpt><trkpt lat="41.947086" lon="13.4627701"><ele>1094.2857142857142</ele><time>2026-03-29T09:53:09.405Z</time></trkpt><trkpt lat="41.9470461" lon="13.4628406"><ele>1092.0</ele><time>2026-03-29T09:53:16.429Z</time></trkpt><trkpt lat="41.9470547" lon="13.4629263"><ele>1088.5714285714287</ele><time>2026-03-29T09:53:24.475Z</time></trkpt><trkpt lat="41.9470929" lon="13.4630039"><ele>1085.142857142857</ele><time>2026-03-29T09:53:31.482Z</time></trkpt><trkpt lat="41.9470586" lon="13.463085"><ele>1081.7142857142858</ele><time>2026-03-29T09:54:00.41Z</time></trkpt><trkpt lat="41.9470724" lon="13.4631676"><ele>1078.2857142857142</ele><time>2026-03-29T09:54:05.344Z</time></trkpt><trkpt lat="41.9470858" lon="13.4632553"><ele>1074.857142857143</ele><time>2026-03-29T09:54:13.457Z</time></trkpt><trkpt lat="41.9470474" lon="13.4633375"><ele>1071.4285714285716</ele><time>2026-03-29T09:54:21.336Z</time></trkpt><trkpt lat="41.9469882" lon="13.4633706"><ele>1068.0</ele><time>2026-03-29T09:54:27.436Z</time></trkpt><trkpt lat="41.9469421" lon="13.4634455"><ele>1068.0000000000002</ele><time>2026-03-29T09:54:36.467Z</time></trkpt><trkpt lat="41.946893" lon="13.4635143"><ele>1068.0</ele><time>2026-03-29T09:54:46.259Z</time></trkpt><trkpt lat="41.9468336" lon="13.4635469"><ele>1068.0</ele><time>2026-03-29T09:54:52.165Z</time></trkpt><trkpt lat="41.9467748" lon="13.4635897"><ele>1068.0</ele><time>2026-03-29T09:54:59.205Z</time></trkpt><trkpt lat="41.9467142" lon="13.4636233"><ele>1068.0</ele><time>2026-03-29T09:55:06.416Z</time></trkpt><trkpt lat="41.9467101" lon="13.4637088"><ele>1068.0000000000002</ele><time>2026-03-29T09:55:13.416Z</time></trkpt><trkpt lat="41.9466922" lon="13.4637984"><ele>1068.0</ele><time>2026-03-29T09:55:21.446Z</time></trkpt><trkpt lat="41.9466447" lon="13.4638635"><ele>1066.0000000000002</ele><time>2026-03-29T09:55:28.417Z</time></trkpt><trkpt lat="41.9466283" lon="13.4639552"><ele>1064.0</ele><time>2026-03-29T09:55:35.463Z</time></trkpt><trkpt lat="41.9466121" lon="13.4640464"><ele>1062.0</ele><time>2026-03-29T09:55:43.378Z</time></trkpt><trkpt lat="41.9465695" lon="13.4641224"><ele>1060.0</ele><time>2026-03-29T09:55:52.461Z</time></trkpt><trkpt lat="41.9465719" lon="13.4642119"><ele>1058.0</ele><time>2026-03-29T09:56:00.324Z</time></trkpt><trkpt lat="41.9466211" lon="13.4642681"><ele>1056.0000000000002</ele><time>2026-03-29T09:56:07.421Z</time></trkpt><trkpt lat="41.9466905" lon="13.4643092"><ele>1054.0</ele><time>2026-03-29T09:56:14.405Z</time></trkpt><trkpt lat="41.9467577" lon="13.4642885"><ele>1053.0000000000002</ele><time>2026-03-29T09:56:22.419Z</time></trkpt><trkpt lat="41.9468246" lon="13.4643038"><ele>1052.0</ele><time>2026-03-29T09:56:28.445Z</time></trkpt><trkpt lat="41.9468774" lon="13.464364"><ele>1051.0</ele><time>2026-03-29T09:56:36.419Z</time></trkpt><trkpt lat="41.9469185" lon="13.4644436"><ele>1050.0</ele><time>2026-03-29T09:56:43.419Z</time></trkpt><trkpt lat="41.946982" lon="13.4644926"><ele>1049.0</ele><time>2026-03-29T09:56:50.422Z</time></trkpt><trkpt lat="41.9470451" lon="13.4644945"><ele>1048.0000000000002</ele><time>2026-03-29T09:56:56.42Z</time></trkpt><trkpt lat="41.9471163" lon="13.4644876"><ele>1047.0</ele><time>2026-03-29T09:57:03.431Z</time></trkpt><trkpt lat="41.9471832" lon="13.4644543"><ele>1047.0000000000002</ele><time>2026-03-29T09:57:11.488Z</time></trkpt><trkpt lat="41.9472186" lon="13.4643773"><ele>1047.0</ele><time>2026-03-29T09:57:18.242Z</time></trkpt><trkpt lat="41.9472841" lon="13.464378"><ele>1047.0</ele><time>2026-03-29T09:57:25.361Z</time></trkpt><trkpt lat="41.9473518" lon="13.4643885"><ele>1047.0</ele><time>2026-03-29T09:57:32.417Z</time></trkpt><trkpt lat="41.9474234" lon="13.4644021"><ele>1047.0</ele><time>2026-03-29T09:57:39.439Z</time></trkpt><trkpt lat="41.9474865" lon="13.4644407"><ele>1047.0000000000002</ele><time>2026-03-29T09:57:46.323Z</time></trkpt><trkpt lat="41.9475441" lon="13.4644812"><ele>1047.0</ele><time>2026-03-29T09:57:52.418Z</time></trkpt><trkpt lat="41.9476118" lon="13.4645075"><ele>1045.4285714285716</ele><time>2026-03-29T09:57:59.454Z</time></trkpt><trkpt lat="41.9476751" lon="13.464542"><ele>1043.857142857143</ele><time>2026-03-29T09:58:05.418Z</time></trkpt><trkpt lat="41.947738" lon="13.4645213"><ele>1042.2857142857142</ele><time>2026-03-29T09:58:12.301Z</time></trkpt><trkpt lat="41.9477806" lon="13.4644473"><ele>1040.7142857142858</ele><time>2026-03-29T09:58:19.12Z</time></trkpt><trkpt lat="41.9478426" lon="13.4644154"><ele>1039.142857142857</ele><time>2026-03-29T09:58:26.122Z</time></trkpt><trkpt lat="41.9478538" lon="13.4645096"><ele>1037.5714285714287</ele><time>2026-03-29T09:58:33.402Z</time></trkpt><trkpt lat="41.9479207" lon="13.4645452"><ele>1036.0</ele><time>2026-03-29T09:58:40.425Z</time></trkpt><trkpt lat="41.9479831" lon="13.46456"><ele>1032.5714285714287</ele><time>2026-03-29T09:58:45.424Z</time></trkpt><trkpt lat="41.9480054" lon="13.4646421"><ele>1029.142857142857</ele><time>2026-03-29T09:58:52.419Z</time></trkpt><trkpt lat="41.9480442" lon="13.4647115"><ele>1025.7142857142858</ele><time>2026-03-29T09:58:58.42Z</time></trkpt><trkpt lat="41.9481053" lon="13.4647557"><ele>1022.2857142857143</ele><time>2026-03-29T09:59:05.434Z</time></trkpt><trkpt lat="41.9481365" lon="13.4648331"><ele>1018.8571428571429</ele><time>2026-03-29T09:59:13.365Z</time></trkpt><trkpt lat="41.9482014" lon="13.4648869"><ele>1015.4285714285716</ele><time>2026-03-29T09:59:22.226Z</time></trkpt><trkpt lat="41.9482517" lon="13.4649552"><ele>1012.0000000000001</ele><time>2026-03-29T09:59:30.419Z</time></trkpt><trkpt lat="41.9483142" lon="13.4649962"><ele>1012.0000000000001</ele><time>2026-03-29T09:59:37.447Z</time></trkpt><trkpt lat="41.9483793" lon="13.4650121"><ele>1012.0</ele><time>2026-03-29T09:59:45.379Z</time></trkpt><trkpt lat="41.9484271" lon="13.4650692"><ele>1012.0000000000001</ele><time>2026-03-29T09:59:52.48Z</time></trkpt><trkpt lat="41.9484902" lon="13.4650505"><ele>1012.0000000000001</ele><time>2026-03-29T10:00:01.457Z</time></trkpt><trkpt lat="41.9484603" lon="13.465134"><ele>1012.0</ele><time>2026-03-29T10:00:08.419Z</time></trkpt><trkpt lat="41.9484074" lon="13.4651881"><ele>1012.0000000000001</ele><time>2026-03-29T10:00:14.459Z</time></trkpt><trkpt lat="41.9483653" lon="13.4652544"><ele>1012.0000000000001</ele><time>2026-03-29T10:00:24.418Z</time></trkpt><trkpt lat="41.9483522" lon="13.4653428"><ele>1012.0000000000001</ele><time>2026-03-29T10:00:33.442Z</time></trkpt><trkpt lat="41.9483018" lon="13.4653962"><ele>1012.0</ele><time>2026-03-29T10:00:52.451Z</time></trkpt><trkpt lat="41.9482466" lon="13.4654593"><ele>1012.0000000000001</ele><time>2026-03-29T10:01:00.424Z</time></trkpt><trkpt lat="41.948304" lon="13.4655168"><ele>1012.0000000000001</ele><time>2026-03-29T10:01:12.418Z</time></trkpt><trkpt lat="41.9483623" lon="13.4655732"><ele>1012.0</ele><time>2026-03-29T10:01:19.36Z</time></trkpt><trkpt lat="41.9484173" lon="13.4656288"><ele>1012.0000000000001</ele><time>2026-03-29T10:01:27.452Z</time></trkpt><trkpt lat="41.9484803" lon="13.4656305"><ele>1012.0000000000001</ele><time>2026-03-29T10:01:35.419Z</time></trkpt><trkpt lat="41.948533" lon="13.4656791"><ele>1005.857142857143</ele><time>2026-03-29T10:01:46.421Z</time></trkpt><trkpt lat="41.948593" lon="13.4657263"><ele>999.7142857142858</ele><time>2026-03-29T10:01:55.157Z</time></trkpt><trkpt lat="41.9486537" lon="13.4657752"><ele>993.5714285714286</ele><time>2026-03-29T10:02:02.453Z</time></trkpt><trkpt lat="41.9487145" lon="13.4657312"><ele>987.4285714285714</ele><time>2026-03-29T10:02:10.523Z</time></trkpt><trkpt lat="41.9487813" lon="13.4657023"><ele>981.2857142857142</ele><time>2026-03-29T10:02:19.451Z</time></trkpt><trkpt lat="41.9487612" lon="13.4657833"><ele>975.142857142857</ele><time>2026-03-29T10:02:28.188Z</time></trkpt><trkpt lat="41.9488334" lon="13.4657486"><ele>968.9999999999999</ele><time>2026-03-29T10:02:38.485Z</time></trkpt><trkpt lat="41.9488929" lon="13.4657058"><ele>968.9999999999999</ele><time>2026-03-29T10:02:46.381Z</time></trkpt><trkpt lat="41.9489584" lon="13.4656579"><ele>969.0</ele><time>2026-03-29T10:02:54.452Z</time></trkpt><trkpt lat="41.9490174" lon="13.4656117"><ele>968.9999999999999</ele><time>2026-03-29T10:03:04.343Z</time></trkpt><trkpt lat="41.9490864" lon="13.4656215"><ele>968.9999999999999</ele><time>2026-03-29T10:03:14.966Z</time></trkpt><trkpt lat="41.9491413" lon="13.4656678"><ele>969.0</ele><time>2026-03-29T10:03:21.1Z</time></trkpt><trkpt lat="41.9491316" lon="13.4657538"><ele>968.9999999999999</ele><time>2026-03-29T10:03:31.421Z</time></trkpt><trkpt lat="41.9491861" lon="13.4658062"><ele>968.9999999999999</ele><time>2026-03-29T10:03:39.427Z</time></trkpt><trkpt lat="41.9492468" lon="13.4657772"><ele>965.5714285714284</ele><time>2026-03-29T10:03:45.34Z</time></trkpt><trkpt lat="41.9493106" lon="13.4657681"><ele>962.1428571428571</ele><time>2026-03-29T10:03:52.401Z</time></trkpt><trkpt lat="41.9493575" lon="13.4658291"><ele>958.7142857142857</ele><time>2026-03-29T10:04:00.432Z</time></trkpt><trkpt lat="41.9493791" lon="13.465916"><ele>955.2857142857142</ele><time>2026-03-29T10:04:09.419Z</time></trkpt><trkpt lat="41.949441" lon="13.4659417"><ele>951.8571428571429</ele><time>2026-03-29T10:04:20.199Z</time></trkpt><trkpt lat="41.9494659" lon="13.4660219"><ele>948.4285714285714</ele><time>2026-03-29T10:04:29.42Z</time></trkpt><trkpt lat="41.9495297" lon="13.4659781"><ele>945.0</ele><time>2026-03-29T10:04:38.485Z</time></trkpt><trkpt lat="41.9495748" lon="13.465906"><ele>945.0</ele><time>2026-03-29T10:04:47.42Z</time></trkpt><trkpt lat="41.9496271" lon="13.465855"><ele>945.0</ele><time>2026-03-29T10:04:57.458Z</time></trkpt><trkpt lat="41.9496915" lon="13.4658343"><ele>945.0</ele><time>2026-03-29T10:05:06.422Z</time></trkpt><trkpt lat="41.9497498" lon="13.4658722"><ele>945.0</ele><time>2026-03-29T10:05:13.45Z</time></trkpt><trkpt lat="41.9498115" lon="13.4659127"><ele>945.0</ele><time>2026-03-29T10:05:23.281Z</time></trkpt><trkpt lat="41.949877" lon="13.4659348"><ele>945.0</ele><time>2026-03-29T10:05:31.057Z</time></trkpt><trkpt lat="41.9499408" lon="13.4659524"><ele>945.0</ele><time>2026-03-29T10:05:40.42Z</time></trkpt><trkpt lat="41.94998" lon="13.4660248"><ele>941.5714285714286</ele><time>2026-03-29T10:05:46.284Z</time></trkpt><trkpt lat="41.9500434" lon="13.4660404"><ele>938.1428571428571</ele><time>2026-03-29T10:05:53.022Z</time></trkpt><trkpt lat="41.950109" lon="13.4660049"><ele>934.7142857142858</ele><time>2026-03-29T10:05:59.922Z</time></trkpt><trkpt lat="41.9501512" lon="13.4660744"><ele>931.2857142857143</ele><time>2026-03-29T10:06:10.181Z</time></trkpt><trkpt lat="41.9501931" lon="13.4661398"><ele>927.8571428571429</ele><time>2026-03-29T10:06:17.325Z</time></trkpt><trkpt lat="41.9502454" lon="13.4662001"><ele>924.4285714285716</ele><time>2026-03-29T10:06:27.102Z</time></trkpt><trkpt lat="41.9502923" lon="13.466272"><ele>921.0000000000001</ele><time>2026-03-29T10:06:39.338Z</time></trkpt><trkpt lat="41.9503108" lon="13.466353"><ele>918.1428571428573</ele><time>2026-03-29T10:06:46.4Z</time></trkpt><trkpt lat="41.9502782" lon="13.4664284"><ele>915.2857142857143</ele><time>2026-03-29T10:06:54.43Z</time></trkpt><trkpt lat="41.9502122" lon="13.4664487"><ele>912.4285714285716</ele><time>2026-03-29T10:07:02.419Z</time></trkpt><trkpt lat="41.9501528" lon="13.4664915"><ele>909.5714285714287</ele><time>2026-03-29T10:07:11.324Z</time></trkpt><trkpt lat="41.9502016" lon="13.4665594"><ele>906.7142857142858</ele><time>2026-03-29T10:07:17.419Z</time></trkpt><trkpt lat="41.9502688" lon="13.4665446"><ele>903.8571428571429</ele><time>2026-03-29T10:07:23.442Z</time></trkpt><trkpt lat="41.9503059" lon="13.4666216"><ele>901.0</ele><time>2026-03-29T10:07:32.303Z</time></trkpt><trkpt lat="41.950297" lon="13.4667121"><ele>901.0</ele><time>2026-03-29T10:07:41.325Z</time></trkpt><trkpt lat="41.9502972" lon="13.4667978"><ele>901.0000000000001</ele><time>2026-03-29T10:07:52.358Z</time></trkpt><trkpt lat="41.9502733" lon="13.4668867"><ele>901.0</ele><time>2026-03-29T10:08:01.2Z</time></trkpt><trkpt lat="41.9503184" lon="13.4669493"><ele>901.0</ele><time>2026-03-29T10:08:10.467Z</time></trkpt><trkpt lat="41.9503764" lon="13.4669087"><ele>901.0000000000001</ele><time>2026-03-29T10:08:17.42Z</time></trkpt><trkpt lat="41.9504435" lon="13.4669067"><ele>901.0</ele><time>2026-03-29T10:08:25.319Z</time></trkpt><trkpt lat="41.9504609" lon="13.4669928"><ele>901.0</ele><time>2026-03-29T10:08:32.22Z</time></trkpt><trkpt lat="41.9504343" lon="13.4670699"><ele>898.7142857142858</ele><time>2026-03-29T10:08:42.205Z</time></trkpt><trkpt lat="41.950381" lon="13.4671196"><ele>896.4285714285716</ele><time>2026-03-29T10:08:49.326Z</time></trkpt><trkpt lat="41.9503323" lon="13.4671861"><ele>894.1428571428571</ele><time>2026-03-29T10:08:59.101Z</time></trkpt><trkpt lat="41.9503799" lon="13.4672417"><ele>891.8571428571429</ele><time>2026-03-29T10:09:06.466Z</time></trkpt><trkpt lat="41.9504505" lon="13.4672292"><ele>889.5714285714286</ele><time>2026-03-29T10:09:13.427Z</time></trkpt><trkpt lat="41.9504536" lon="13.4673184"><ele>887.2857142857142</ele><time>2026-03-29T10:09:24.286Z</time></trkpt><trkpt lat="41.9505195" lon="13.4673162"><ele>885.0</ele><time>2026-03-29T10:09:30.426Z</time></trkpt><trkpt lat="41.9505816" lon="13.4673365"><ele>885.0</ele><time>2026-03-29T10:09:37.467Z</time></trkpt><trkpt lat="41.9506539" lon="13.4673431"><ele>885.0</ele><time>2026-03-29T10:09:47.427Z</time></trkpt><trkpt lat="41.9507136" lon="13.4673797"><ele>885.0</ele><time>2026-03-29T10:09:55.419Z</time></trkpt><trkpt lat="41.9507782" lon="13.4673973"><ele>885.0</ele><time>2026-03-29T10:10:04.422Z</time></trkpt><trkpt lat="41.9508436" lon="13.4674133"><ele>885.0</ele><time>2026-03-29T10:10:12.424Z</time></trkpt><trkpt lat="41.950912" lon="13.4674205"><ele>885.0</ele><time>2026-03-29T10:10:21.423Z</time></trkpt><trkpt lat="41.950976" lon="13.4674627"><ele>885.0</ele><time>2026-03-29T10:10:29.42Z</time></trkpt><trkpt lat="41.9510405" lon="13.4674487"><ele>882.1428571428571</ele><time>2026-03-29T10:10:39.237Z</time></trkpt><trkpt lat="41.9511042" lon="13.4674588"><ele>879.2857142857142</ele><time>2026-03-29T10:10:48.423Z</time></trkpt><trkpt lat="41.9510961" lon="13.4675454"><ele>876.4285714285714</ele><time>2026-03-29T10:10:55.32Z</time></trkpt><trkpt lat="41.9511444" lon="13.4676053"><ele>873.5714285714286</ele><time>2026-03-29T10:11:02.32Z</time></trkpt><trkpt lat="41.9512003" lon="13.467662"><ele>870.7142857142858</ele><time>2026-03-29T10:11:11.467Z</time></trkpt><trkpt lat="41.9511827" lon="13.4677483"><ele>867.8571428571429</ele><time>2026-03-29T10:11:25.483Z</time></trkpt><trkpt lat="41.9512371" lon="13.467805"><ele>865.0</ele><time>2026-03-29T10:11:33.438Z</time></trkpt><trkpt lat="41.9512771" lon="13.4678794"><ele>865.0</ele><time>2026-03-29T10:11:42.42Z</time></trkpt><trkpt lat="41.9513451" lon="13.4678674"><ele>865.0</ele><time>2026-03-29T10:11:49.426Z</time></trkpt><trkpt lat="41.9514101" lon="13.4678708"><ele>865.0</ele><time>2026-03-29T10:11:58.482Z</time></trkpt><trkpt lat="41.9514464" lon="13.4679477"><ele>865.0</ele><time>2026-03-29T10:12:07.429Z</time></trkpt><trkpt lat="41.9514872" lon="13.4680235"><ele>865.0</ele><time>2026-03-29T10:12:16.42Z</time></trkpt><trkpt lat="41.9515289" lon="13.468092"><ele>865.0</ele><time>2026-03-29T10:12:26.282Z</time></trkpt><trkpt lat="41.9515035" lon="13.4681796"><ele>865.0</ele><time>2026-03-29T10:12:33.419Z</time></trkpt><trkpt lat="41.9514399" lon="13.4682216"><ele>863.2857142857143</ele><time>2026-03-29T10:12:40.422Z</time></trkpt><trkpt lat="41.9513768" lon="13.4682556"><ele>861.5714285714287</ele><time>2026-03-29T10:12:47.484Z</time></trkpt><trkpt lat="41.9513426" lon="13.46835"><ele>859.8571428571429</ele><time>2026-03-29T10:12:52.422Z</time></trkpt><trkpt lat="41.9512735" lon="13.4683801"><ele>858.1428571428571</ele><time>2026-03-29T10:12:58.422Z</time></trkpt><trkpt lat="41.951213" lon="13.4684108"><ele>856.4285714285714</ele><time>2026-03-29T10:13:03.406Z</time></trkpt><trkpt lat="41.9511451" lon="13.4684316"><ele>854.7142857142857</ele><time>2026-03-29T10:13:09.279Z</time></trkpt><trkpt lat="41.9510724" lon="13.4684529"><ele>853.0</ele><time>2026-03-29T10:13:15.249Z</time></trkpt><trkpt lat="41.9510117" lon="13.4684822"><ele>853.0</ele><time>2026-03-29T10:13:20.061Z</time></trkpt><trkpt lat="41.9509509" lon="13.4685096"><ele>853.0</ele><time>2026-03-29T10:13:25.443Z</time></trkpt><trkpt lat="41.9509125" lon="13.4685854"><ele>853.0</ele><time>2026-03-29T10:13:31.422Z</time></trkpt><trkpt lat="41.9508563" lon="13.4686443"><ele>853.0</ele><time>2026-03-29T10:13:37.447Z</time></trkpt><trkpt lat="41.9507979" lon="13.4686917"><ele>853.0</ele><time>2026-03-29T10:13:44.418Z</time></trkpt><trkpt lat="41.9507401" lon="13.4687356"><ele>853.0</ele><time>2026-03-29T10:13:50.422Z</time></trkpt><trkpt lat="41.9506801" lon="13.4687639"><ele>853.0</ele><time>2026-03-29T10:13:55.404Z</time></trkpt><trkpt lat="41.9506168" lon="13.4688058"><ele>852.7142857142857</ele><time>2026-03-29T10:14:01.42Z</time></trkpt><trkpt lat="41.9505499" lon="13.4688255"><ele>852.4285714285714</ele><time>2026-03-29T10:14:07.419Z</time></trkpt><trkpt lat="41.9504877" lon="13.4688411"><ele>852.1428571428571</ele><time>2026-03-29T10:14:13.453Z</time></trkpt><trkpt lat="41.9504282" lon="13.4688773"><ele>851.8571428571429</ele><time>2026-03-29T10:14:19.423Z</time></trkpt><trkpt lat="41.9503628" lon="13.4689016"><ele>851.5714285714287</ele><time>2026-03-29T10:14:25.422Z</time></trkpt><trkpt lat="41.9502946" lon="13.4689206"><ele>851.2857142857143</ele><time>2026-03-29T10:14:31.381Z</time></trkpt><trkpt lat="41.950225" lon="13.468951"><ele>851.0</ele><time>2026-03-29T10:14:37.386Z</time></trkpt><trkpt lat="41.9501561" lon="13.4689862"><ele>851.0</ele><time>2026-03-29T10:14:43.421Z</time></trkpt><trkpt lat="41.9500864" lon="13.4690111"><ele>851.0</ele><time>2026-03-29T10:14:48.463Z</time></trkpt><trkpt lat="41.9500186" lon="13.4690499"><ele>851.0</ele><time>2026-03-29T10:14:54.42Z</time></trkpt><trkpt lat="41.9499528" lon="13.4690862"><ele>851.0</ele><time>2026-03-29T10:15:00.423Z</time></trkpt><trkpt lat="41.9498866" lon="13.4691274"><ele>851.0</ele><time>2026-03-29T10:15:06.457Z</time></trkpt><trkpt lat="41.9498197" lon="13.4691481"><ele>851.0</ele><time>2026-03-29T10:15:12.419Z</time></trkpt><trkpt lat="41.9497572" lon="13.4691824"><ele>851.0</ele><time>2026-03-29T10:15:18.427Z</time></trkpt><trkpt lat="41.949715" lon="13.4692619"><ele>850.1428571428571</ele><time>2026-03-29T10:15:25.417Z</time></trkpt><trkpt lat="41.9497374" lon="13.4693443"><ele>849.2857142857143</ele><time>2026-03-29T10:15:30.423Z</time></trkpt><trkpt lat="41.9497568" lon="13.4694291"><ele>848.4285714285713</ele><time>2026-03-29T10:15:36.264Z</time></trkpt><trkpt lat="41.9497595" lon="13.4695213"><ele>847.5714285714286</ele><time>2026-03-29T10:15:42.298Z</time></trkpt><trkpt lat="41.9497608" lon="13.4696094"><ele>846.7142857142857</ele><time>2026-03-29T10:15:48.304Z</time></trkpt><trkpt lat="41.9497584" lon="13.4696945"><ele>845.8571428571428</ele><time>2026-03-29T10:15:55.44Z</time></trkpt><trkpt lat="41.9496919" lon="13.4697349"><ele>845.0</ele><time>2026-03-29T10:17:11.423Z</time></trkpt><trkpt lat="41.9496434" lon="13.4698069"><ele>844.9999999999999</ele><time>2026-03-29T10:17:17.422Z</time></trkpt><trkpt lat="41.949595" lon="13.4698686"><ele>845.0</ele><time>2026-03-29T10:17:24.463Z</time></trkpt><trkpt lat="41.9495379" lon="13.4699164"><ele>845.0</ele><time>2026-03-29T10:17:30.443Z</time></trkpt><trkpt lat="41.9494827" lon="13.4699683"><ele>845.0</ele><time>2026-03-29T10:17:37.438Z</time></trkpt><trkpt lat="41.9494322" lon="13.4700274"><ele>845.0</ele><time>2026-03-29T10:17:44.419Z</time></trkpt><trkpt lat="41.9494169" lon="13.4701217"><ele>844.9999999999999</ele><time>2026-03-29T10:17:50.398Z</time></trkpt><trkpt lat="41.9494616" lon="13.470198"><ele>845.0</ele><time>2026-03-29T10:17:56.141Z</time></trkpt><trkpt lat="41.9494818" lon="13.470283"><ele>844.9999999999999</ele><time>2026-03-29T10:18:01.484Z</time></trkpt><trkpt lat="41.9494513" lon="13.4703757"><ele>845.0</ele><time>2026-03-29T10:18:06.34Z</time></trkpt><trkpt lat="41.9494295" lon="13.4704724"><ele>845.0</ele><time>2026-03-29T10:18:11.418Z</time></trkpt><trkpt lat="41.9494115" lon="13.4705551"><ele>845.0</ele><time>2026-03-29T10:18:17.465Z</time></trkpt><trkpt lat="41.9493993" lon="13.4706548"><ele>845.0</ele><time>2026-03-29T10:18:23.42Z</time></trkpt><trkpt lat="41.9493669" lon="13.4707283"><ele>844.9999999999999</ele><time>2026-03-29T10:18:28.432Z</time></trkpt><trkpt lat="41.9493352" lon="13.4708164"><ele>845.0</ele><time>2026-03-29T10:18:34.418Z</time></trkpt><trkpt lat="41.9492864" lon="13.4708878"><ele>844.9999999999999</ele><time>2026-03-29T10:18:40.419Z</time></trkpt><trkpt lat="41.9492368" lon="13.4709645"><ele>845.0</ele><time>2026-03-29T10:18:46.436Z</time></trkpt><trkpt lat="41.949202" lon="13.4710437"><ele>845.0</ele><time>2026-03-29T10:18:55.403Z</time></trkpt><trkpt lat="41.9491318" lon="13.4710617"><ele>845.0</ele><time>2026-03-29T10:19:02.443Z</time></trkpt><trkpt lat="41.9490884" lon="13.4711404"><ele>845.0</ele><time>2026-03-29T10:19:07.404Z</time></trkpt><trkpt lat="41.9490544" lon="13.4712219"><ele>844.9999999999999</ele><time>2026-03-29T10:19:12.421Z</time></trkpt><trkpt lat="41.9490096" lon="13.4713004"><ele>845.0</ele><time>2026-03-29T10:19:19.426Z</time></trkpt><trkpt lat="41.9489726" lon="13.4713701"><ele>844.9999999999999</ele><time>2026-03-29T10:19:25.437Z</time></trkpt><trkpt lat="41.9489505" lon="13.4714564"><ele>845.0</ele><time>2026-03-29T10:19:31.28Z</time></trkpt><trkpt lat="41.9489376" lon="13.4715511"><ele>845.0</ele><time>2026-03-29T10:19:37.144Z</time></trkpt><trkpt lat="41.948922" lon="13.471635"><ele>845.0</ele><time>2026-03-29T10:19:43.038Z</time></trkpt><trkpt lat="41.9488919" lon="13.471717"><ele>845.0</ele><time>2026-03-29T10:19:48.962Z</time></trkpt><trkpt lat="41.9488656" lon="13.4717994"><ele>844.9999999999999</ele><time>2026-03-29T10:19:55.868Z</time></trkpt><trkpt lat="41.9488361" lon="13.471876"><ele>845.0</ele><time>2026-03-29T10:20:01.47Z</time></trkpt><trkpt lat="41.9488143" lon="13.4719686"><ele>844.9999999999999</ele><time>2026-03-29T10:20:08.625Z</time></trkpt><trkpt lat="41.9487821" lon="13.4720422"><ele>845.0</ele><time>2026-03-29T10:20:14.466Z</time></trkpt><trkpt lat="41.9487544" lon="13.4721347"><ele>845.0</ele><time>2026-03-29T10:20:21.181Z</time></trkpt><trkpt lat="41.948721" lon="13.4722161"><ele>845.0</ele><time>2026-03-29T10:20:28.098Z</time></trkpt><trkpt lat="41.9486834" lon="13.4722993"><ele>845.0</ele><time>2026-03-29T10:20:34.79Z</time></trkpt><trkpt lat="41.9486627" lon="13.4723886"><ele>844.9999999999999</ele><time>2026-03-29T10:20:41.665Z</time></trkpt><trkpt lat="41.948631" lon="13.4724758"><ele>845.0</ele><time>2026-03-29T10:20:48.439Z</time></trkpt><trkpt lat="41.948607" lon="13.472561"><ele>842.9999999999999</ele><time>2026-03-29T10:20:54.38Z</time></trkpt><trkpt lat="41.9485586" lon="13.4726165"><ele>841.0</ele><time>2026-03-29T10:21:00.405Z</time></trkpt><trkpt lat="41.9485012" lon="13.4726798"><ele>839.0</ele><time>2026-03-29T10:21:08.083Z</time></trkpt><trkpt lat="41.9484679" lon="13.4727576"><ele>837.0</ele><time>2026-03-29T10:21:15.884Z</time></trkpt><trkpt lat="41.9484392" lon="13.4728373"><ele>835.0</ele><time>2026-03-29T10:21:22.783Z</time></trkpt><trkpt lat="41.9483917" lon="13.4729011"><ele>832.9999999999999</ele><time>2026-03-29T10:21:30.82Z</time></trkpt><trkpt lat="41.9483385" lon="13.4729523"><ele>831.0</ele><time>2026-03-29T10:21:38.684Z</time></trkpt><trkpt lat="41.9482891" lon="13.4730139"><ele>831.4285714285713</ele><time>2026-03-29T10:21:48.964Z</time></trkpt><trkpt lat="41.9482234" lon="13.4730307"><ele>831.8571428571429</ele><time>2026-03-29T10:21:56.697Z</time></trkpt><trkpt lat="41.9481613" lon="13.4730494"><ele>832.2857142857142</ele><time>2026-03-29T10:22:02.466Z</time></trkpt><trkpt lat="41.9480985" lon="13.473064"><ele>832.7142857142857</ele><time>2026-03-29T10:22:08.387Z</time></trkpt><trkpt lat="41.9480315" lon="13.4730628"><ele>833.1428571428571</ele><time>2026-03-29T10:22:15.145Z</time></trkpt><trkpt lat="41.9479628" lon="13.4730296"><ele>833.5714285714286</ele><time>2026-03-29T10:22:22.471Z</time></trkpt><trkpt lat="41.9479054" lon="13.472978"><ele>834.0</ele><time>2026-03-29T10:22:29.421Z</time></trkpt><trkpt lat="41.9478496" lon="13.4729209"><ele>834.0</ele><time>2026-03-29T10:22:35.455Z</time></trkpt><trkpt lat="41.9477969" lon="13.4728731"><ele>834.0</ele><time>2026-03-29T10:22:41.421Z</time></trkpt><trkpt lat="41.947739" lon="13.4728178"><ele>834.0</ele><time>2026-03-29T10:22:47.425Z</time></trkpt><trkpt lat="41.9476899" lon="13.4727636"><ele>834.0</ele><time>2026-03-29T10:22:53.203Z</time></trkpt><trkpt lat="41.947633" lon="13.4727024"><ele>834.0</ele><time>2026-03-29T10:22:59.42Z</time></trkpt><trkpt lat="41.9475847" lon="13.4726367"><ele>834.0</ele><time>2026-03-29T10:23:05.481Z</time></trkpt><trkpt lat="41.9475248" lon="13.4725896"><ele>834.0</ele><time>2026-03-29T10:23:11.462Z</time></trkpt><trkpt lat="41.947456" lon="13.4725756"><ele>834.8571428571429</ele><time>2026-03-29T10:23:17.471Z</time></trkpt><trkpt lat="41.9474025" lon="13.4725227"><ele>835.7142857142857</ele><time>2026-03-29T10:23:23.326Z</time></trkpt><trkpt lat="41.947364" lon="13.4724521"><ele>836.5714285714286</ele><time>2026-03-29T10:23:29.421Z</time></trkpt><trkpt lat="41.9473641" lon="13.4723591"><ele>837.4285714285714</ele><time>2026-03-29T10:23:36.42Z</time></trkpt><trkpt lat="41.947306" lon="13.4723036"><ele>838.2857142857142</ele><time>2026-03-29T10:23:43.401Z</time></trkpt><trkpt lat="41.9472506" lon="13.4722501"><ele>839.1428571428571</ele><time>2026-03-29T10:23:49.408Z</time></trkpt><trkpt lat="41.9472028" lon="13.4721763"><ele>840.0</ele><time>2026-03-29T10:23:56.421Z</time></trkpt><trkpt lat="41.9471661" lon="13.4720963"><ele>840.0</ele><time>2026-03-29T10:24:03.421Z</time></trkpt><trkpt lat="41.9471019" lon="13.4720663"><ele>840.0</ele><time>2026-03-29T10:24:09.422Z</time></trkpt><trkpt lat="41.9470358" lon="13.4720314"><ele>840.0</ele><time>2026-03-29T10:24:16.26Z</time></trkpt><trkpt lat="41.9469778" lon="13.471986"><ele>840.0</ele><time>2026-03-29T10:24:24.086Z</time></trkpt><trkpt lat="41.9469197" lon="13.4719515"><ele>840.0</ele><time>2026-03-29T10:24:29.842Z</time></trkpt><trkpt lat="41.946848" lon="13.4719396"><ele>840.0</ele><time>2026-03-29T10:24:36.621Z</time></trkpt><trkpt lat="41.9467962" lon="13.4718796"><ele>840.0</ele><time>2026-03-29T10:24:42.465Z</time></trkpt><trkpt lat="41.9467419" lon="13.4718337"><ele>836.1428571428571</ele><time>2026-03-29T10:24:48.225Z</time></trkpt><trkpt lat="41.946674" lon="13.4718365"><ele>832.2857142857142</ele><time>2026-03-29T10:24:54.454Z</time></trkpt><trkpt lat="41.9466456" lon="13.4719238"><ele>828.4285714285714</ele><time>2026-03-29T10:25:01.426Z</time></trkpt><trkpt lat="41.9466444" lon="13.4720235"><ele>824.5714285714286</ele><time>2026-03-29T10:25:08.385Z</time></trkpt><trkpt lat="41.9466501" lon="13.4721113"><ele>820.7142857142857</ele><time>2026-03-29T10:25:15.422Z</time></trkpt><trkpt lat="41.946648" lon="13.4721992"><ele>816.8571428571429</ele><time>2026-03-29T10:25:23.421Z</time></trkpt><trkpt lat="41.9466201" lon="13.4722764"><ele>813.0</ele><time>2026-03-29T10:25:31.464Z</time></trkpt><trkpt lat="41.9466024" lon="13.4723664"><ele>810.4285714285714</ele><time>2026-03-29T10:25:40.422Z</time></trkpt><trkpt lat="41.9465936" lon="13.4724553"><ele>807.8571428571428</ele><time>2026-03-29T10:25:47.364Z</time></trkpt><trkpt lat="41.9465596" lon="13.47254"><ele>805.2857142857142</ele><time>2026-03-29T10:25:55.441Z</time></trkpt><trkpt lat="41.9465385" lon="13.4726268"><ele>802.7142857142858</ele><time>2026-03-29T10:26:03.451Z</time></trkpt><trkpt lat="41.9465422" lon="13.4727195"><ele>800.1428571428571</ele><time>2026-03-29T10:26:10.246Z</time></trkpt><trkpt lat="41.9466022" lon="13.4727629"><ele>797.5714285714286</ele><time>2026-03-29T10:26:16.441Z</time></trkpt><trkpt lat="41.9466583" lon="13.4728079"><ele>795.0</ele><time>2026-03-29T10:26:23.42Z</time></trkpt><trkpt lat="41.946673" lon="13.472902"><ele>794.1428571428571</ele><time>2026-03-29T10:26:29.405Z</time></trkpt><trkpt lat="41.9466891" lon="13.4729913"><ele>793.2857142857143</ele><time>2026-03-29T10:26:37.423Z</time></trkpt><trkpt lat="41.9467156" lon="13.4730753"><ele>792.4285714285713</ele><time>2026-03-29T10:26:44.286Z</time></trkpt><trkpt lat="41.9467472" lon="13.4731533"><ele>791.5714285714286</ele><time>2026-03-29T10:26:54.446Z</time></trkpt><trkpt lat="41.9467918" lon="13.473216"><ele>790.7142857142857</ele><time>2026-03-29T10:27:02.423Z</time></trkpt><trkpt lat="41.9468368" lon="13.473278"><ele>789.8571428571428</ele><time>2026-03-29T10:27:10.321Z</time></trkpt><trkpt lat="41.9469067" lon="13.4732908"><ele>789.0</ele><time>2026-03-29T10:27:21.466Z</time></trkpt><trkpt lat="41.9469742" lon="13.4732827"><ele>788.8571428571428</ele><time>2026-03-29T10:27:30.288Z</time></trkpt><trkpt lat="41.9470339" lon="13.4733257"><ele>788.7142857142857</ele><time>2026-03-29T10:27:38.402Z</time></trkpt><trkpt lat="41.9470752" lon="13.4733942"><ele>788.5714285714286</ele><time>2026-03-29T10:27:47.349Z</time></trkpt><trkpt lat="41.9471182" lon="13.4734669"><ele>788.4285714285713</ele><time>2026-03-29T10:27:57.422Z</time></trkpt><trkpt lat="41.947131" lon="13.4735509"><ele>788.2857142857143</ele><time>2026-03-29T10:28:08.371Z</time></trkpt><trkpt lat="41.9471371" lon="13.4736423"><ele>788.1428571428571</ele><time>2026-03-29T10:28:16.424Z</time></trkpt><trkpt lat="41.9471548" lon="13.4737267"><ele>788.0</ele><time>2026-03-29T10:28:23.302Z</time></trkpt><trkpt lat="41.9471887" lon="13.4737985"><ele>785.0</ele><time>2026-03-29T10:28:33.423Z</time></trkpt><trkpt lat="41.9472038" lon="13.4738863"><ele>782.0</ele><time>2026-03-29T10:28:41.414Z</time></trkpt><trkpt lat="41.947235" lon="13.4739723"><ele>779.0</ele><time>2026-03-29T10:28:48.365Z</time></trkpt><trkpt lat="41.9472466" lon="13.4740637"><ele>776.0</ele><time>2026-03-29T10:28:56.421Z</time></trkpt><trkpt lat="41.9473026" lon="13.4741055"><ele>773.0</ele><time>2026-03-29T10:29:02.424Z</time></trkpt><trkpt lat="41.947348" lon="13.4741842"><ele>770.0</ele><time>2026-03-29T10:29:10.469Z</time></trkpt><trkpt lat="41.9473784" lon="13.4742605"><ele>767.0</ele><time>2026-03-29T10:29:17.322Z</time></trkpt><trkpt lat="41.9474079" lon="13.474337"><ele>767.0</ele><time>2026-03-29T10:29:24.463Z</time></trkpt><trkpt lat="41.9474514" lon="13.4744108"><ele>767.0</ele><time>2026-03-29T10:29:32.421Z</time></trkpt><trkpt lat="41.947495" lon="13.4744779"><ele>767.0</ele><time>2026-03-29T10:29:37.48Z</time></trkpt><trkpt lat="41.9475411" lon="13.4745449"><ele>767.0</ele><time>2026-03-29T10:29:52.419Z</time></trkpt><trkpt lat="41.9475943" lon="13.4746001"><ele>767.0</ele><time>2026-03-29T10:30:00.42Z</time></trkpt><trkpt lat="41.947655" lon="13.4746525"><ele>767.0</ele><time>2026-03-29T10:30:10.424Z</time></trkpt><trkpt lat="41.9477083" lon="13.4747098"><ele>767.0</ele><time>2026-03-29T10:30:16.42Z</time></trkpt><trkpt lat="41.9477331" lon="13.4747908"><ele>763.8571428571429</ele><time>2026-03-29T10:30:22.379Z</time></trkpt><trkpt lat="41.9477953" lon="13.4748253"><ele>760.7142857142858</ele><time>2026-03-29T10:30:30.244Z</time></trkpt><trkpt lat="41.947845" lon="13.4748773"><ele>757.5714285714286</ele><time>2026-03-29T10:30:37.442Z</time></trkpt><trkpt lat="41.9478903" lon="13.4749398"><ele>754.4285714285714</ele><time>2026-03-29T10:30:44.346Z</time></trkpt><trkpt lat="41.947903" lon="13.4750323"><ele>751.2857142857142</ele><time>2026-03-29T10:30:52.428Z</time></trkpt><trkpt lat="41.9479558" lon="13.4750886"><ele>748.1428571428571</ele><time>2026-03-29T10:31:01.422Z</time></trkpt><trkpt lat="41.9479877" lon="13.4751646"><ele>745.0</ele><time>2026-03-29T10:31:07.399Z</time></trkpt><trkpt lat="41.9480273" lon="13.475234"><ele>745.0</ele><time>2026-03-29T10:31:15.09Z</time></trkpt><trkpt lat="41.9480769" lon="13.4752906"><ele>745.0</ele><time>2026-03-29T10:31:23.078Z</time></trkpt><trkpt lat="41.9481286" lon="13.4753452"><ele>745.0</ele><time>2026-03-29T10:31:28.822Z</time></trkpt><trkpt lat="41.9481899" lon="13.4753682"><ele>745.0</ele><time>2026-03-29T10:31:35.421Z</time></trkpt><trkpt lat="41.9482303" lon="13.4754348"><ele>745.0</ele><time>2026-03-29T10:31:42.321Z</time></trkpt><trkpt lat="41.9482831" lon="13.4754978"><ele>745.0</ele><time>2026-03-29T10:31:49.456Z</time></trkpt><trkpt lat="41.9483243" lon="13.4755746"><ele>745.0</ele><time>2026-03-29T10:31:56.343Z</time></trkpt><trkpt lat="41.9483424" lon="13.4756631"><ele>742.1428571428571</ele><time>2026-03-29T10:32:03.436Z</time></trkpt><trkpt lat="41.9483748" lon="13.4757457"><ele>739.2857142857142</ele><time>2026-03-29T10:32:11.422Z</time></trkpt><trkpt lat="41.9484066" lon="13.4758199"><ele>736.4285714285714</ele><time>2026-03-29T10:32:17.419Z</time></trkpt><trkpt lat="41.9484371" lon="13.4759111"><ele>733.5714285714286</ele><time>2026-03-29T10:32:45.264Z</time></trkpt><trkpt lat="41.9484611" lon="13.4760037"><ele>730.7142857142858</ele><time>2026-03-29T10:32:51.421Z</time></trkpt><trkpt lat="41.9484662" lon="13.4760947"><ele>727.8571428571429</ele><time>2026-03-29T10:32:58.453Z</time></trkpt><trkpt lat="41.9484613" lon="13.4761863"><ele>725.0</ele><time>2026-03-29T10:33:05.425Z</time></trkpt><trkpt lat="41.9484296" lon="13.4762662"><ele>723.4285714285714</ele><time>2026-03-29T10:33:12.434Z</time></trkpt><trkpt lat="41.9483713" lon="13.4763112"><ele>721.8571428571429</ele><time>2026-03-29T10:33:19.474Z</time></trkpt><trkpt lat="41.9483174" lon="13.4763626"><ele>720.2857142857142</ele><time>2026-03-29T10:33:25.423Z</time></trkpt><trkpt lat="41.9482565" lon="13.4763353"><ele>718.7142857142858</ele><time>2026-03-29T10:33:33.467Z</time></trkpt><trkpt lat="41.948214" lon="13.4763982"><ele>717.1428571428571</ele><time>2026-03-29T10:33:38.419Z</time></trkpt><trkpt lat="41.9481631" lon="13.4764632"><ele>715.5714285714286</ele><time>2026-03-29T10:34:57.436Z</time></trkpt><trkpt lat="41.9481603" lon="13.4765571"><ele>714.0</ele><time>2026-03-29T10:35:19.423Z</time></trkpt><trkpt lat="41.9480829" lon="13.4766417"><ele>714.0</ele><time>2026-03-29T10:35:22.423Z</time></trkpt><trkpt lat="41.9480251" lon="13.4766887"><ele>714.0</ele><time>2026-03-29T10:35:24.42Z</time></trkpt><trkpt lat="41.9479573" lon="13.4767314"><ele>714.0</ele><time>2026-03-29T10:35:26.422Z</time></trkpt><trkpt lat="41.9478952" lon="13.4767651"><ele>714.0</ele><time>2026-03-29T10:35:28.423Z</time></trkpt><trkpt lat="41.9478242" lon="13.4768478"><ele>714.0</ele><time>2026-03-29T10:35:32.425Z</time></trkpt><trkpt lat="41.9477173" lon="13.4769114"><ele>714.0</ele><time>2026-03-29T10:35:34.421Z</time></trkpt><trkpt lat="41.9476166" lon="13.4769658"><ele>713.8333333333334</ele><time>2026-03-29T10:35:36.421Z</time></trkpt><trkpt lat="41.9475289" lon="13.4770189"><ele>713.6666666666666</ele><time>2026-03-29T10:35:38.421Z</time></trkpt><trkpt lat="41.9474727" lon="13.4770585"><ele>713.5</ele><time>2026-03-29T10:35:39.423Z</time></trkpt><trkpt lat="41.9474023" lon="13.4770923"><ele>713.3333333333333</ele><time>2026-03-29T10:35:40.424Z</time></trkpt><trkpt lat="41.9473074" lon="13.4771436"><ele>713.1666666666666</ele><time>2026-03-29T10:35:42.422Z</time></trkpt><trkpt lat="41.9472447" lon="13.4771764"><ele>713.0</ele><time>2026-03-29T10:35:43.423Z</time></trkpt><trkpt lat="41.9471816" lon="13.4772036"><ele>713.0</ele><time>2026-03-29T10:35:44.423Z</time></trkpt><trkpt lat="41.9470925" lon="13.477249"><ele>713.0</ele><time>2026-03-29T10:35:46.422Z</time></trkpt><trkpt lat="41.9470122" lon="13.4773076"><ele>713.0</ele><time>2026-03-29T10:35:48.423Z</time></trkpt><trkpt lat="41.9469303" lon="13.4773449"><ele>713.0</ele><time>2026-03-29T10:35:50.419Z</time></trkpt><trkpt lat="41.9468752" lon="13.4773891"><ele>713.0</ele><time>2026-03-29T10:35:51.423Z</time></trkpt><trkpt lat="41.9467954" lon="13.4774172"><ele>713.0</ele><time>2026-03-29T10:35:53.424Z</time></trkpt><trkpt lat="41.9467233" lon="13.4774383"><ele>713.0</ele><time>2026-03-29T10:35:55.424Z</time></trkpt><trkpt lat="41.9466609" lon="13.4774587"><ele>736.0</ele><time>2026-03-29T10:35:57.419Z</time></trkpt><trkpt lat="41.9465843" lon="13.4774823"><ele>736.0</ele><time>2026-03-29T10:36:00.422Z</time></trkpt><trkpt lat="41.9465092" lon="13.4775227"><ele>736.0</ele><time>2026-03-29T10:36:03.424Z</time></trkpt><trkpt lat="41.9465111" lon="13.4776223"><ele>736.0</ele><time>2026-03-29T10:36:14.422Z</time></trkpt><trkpt lat="41.9465735" lon="13.477607"><ele>736.0</ele><time>2026-03-29T10:36:17.421Z</time></trkpt></trkseg></trk></gpx>